     2              OBSERVATION DATA    GPS                 RINEX VERSION / TYPE
teqc 2003Nov3 Frederique Rolandone20040722 00:09:29UTC      PGM / RUN BY / DATE
                                                            COMMENT
42-44 dBHz = 7, 45-48 dBHz = 8, >= 49 dBHz = 9              COMMENT
42-44 dBHz = 7, 45-48 dBHz = 8, >= 49 dBHz = 9              COMMENT
42-44 dBHz = 7, 45-48 dBHz = 8, >= 49 dBHz = 9              COMMENT
42-44 dBHz = 7, 45-48 dBHz = 8, >= 49 dBHz = 9              COMMENT
42-44 dBHz = 7, 45-48 dBHz = 8, >= 49 dBHz = 9              COMMENT
42-44 dBHz = 7, 45-48 dBHz = 8, >= 49 dBHz = 9              COMMENT
Original Marker Name: 05sk                                  COMMENT
Campaign Name: UC Berkeley Central Calif 2003-2004          COMMENT
4-Character Station Name: 05SK                              COMMENT
6-Character Antenna Code: TRZEPH                            COMMENT
Vertical Measurement Point: MGP                             COMMENT
Vertical Offset to Rinex Ref. Point: 0.0443                 COMMENT
Radial Measurement Point: OGP                               COMMENT
Radial Offset to Rinex Ref. Point: 0.1698                   COMMENT
Antenna Height from Field Measurement: 1.2891 m             COMMENT
Original XYZ: 0.0000 0.0000 0.0000                          COMMENT
New XYZ position is based on association with SCEC monument COMMENT
E1F1Q1G2+0011. Position of that monument is believed to be  COMMENT
valid to within 1 m horizontally; vertical accuracy         COMMENT
should be no worse than 3-times this value.                 COMMENT
                                                            COMMENT
Revised Rinex header created by UCSD GPS archive for        COMMENT
GSAC on 04-Feb-2005 (2005:035) 16:34:13 GMT                 COMMENT
For assistance contact dagnew@ucsd.edu                      COMMENT
or anderson@python.ucsd.edu                                 COMMENT
                                                            COMMENT
MON 198 PN 24 1998                                          MARKER NAME
05sk                                                        MARKER NUMBER
F. Rolandone UNIV CALIF BERKELEY                            OBSERVER / AGENCY
220281576 TRIMBLE 5700 NP 1.20 / SP 0.00                    REC # / TYPE / VERS
337833 TRM41249.00                                          ANT # / TYPE
 -2631128.0000 -4432875.0000  3744540.0000                  APPROX POSITION XYZ
        1.2336        0.0000        0.0000                  ANTENNA: DELTA H/E/N
     1     1     0                                          WAVELENGTH FACT L1/2
     4    L1    L2    C1    P2                              # / TYPES OF OBSERV
    30                                                      INTERVAL
  2004     7    17     0     0   30.000000                  TIME OF FIRST OBS
  2004     7    17    21     2   60.000000                  TIME OF LAST OBS
                                                            END OF HEADER
 04  7 17  0  0 30.0000000  0  8G 1G13G20G23G16G27G 3G 8
 -85322208.41059 -66467566.18255  21110876.5704   21110875.3674
 -52803458.55159 -41129097.01556  20828427.4064   20828424.8674
 -76313533.91457 -59450032.11353  22471089.9224   22471089.8594
 -84797772.46958 -66058763.40456  20872814.6414   20872809.6724
 -56809406.04358 -44249627.68353  22563613.5554   22563611.2384
 -33801015.93458 -26321556.01154  22317980.2664   22317979.8954
 -10730472.35557  -8345458.73952  23744492.5084   23744492.8054
  -5193770.14155  -4029866.43552  24414200.1024   24414202.8754
 04  7 17  0  1  0.0000000  0  8G 1G13G20G23G16G27G 3G 8
 -85394411.50449 -66523828.36545  21097137.2274   21097135.7704
 -52959832.64149 -41250946.93446  20798670.8204   20798668.2504
 -76322874.78547 -59457310.82043  22469313.2814   22469312.3134
 -84867719.85249 -66113267.87846  20859503.7974   20859498.8594
 -56844086.69147 -44276651.61143  22557013.5704   22557011.3204
 -33959907.33247 -26445367.43244  22287744.3134   22287743.6484
 -10900109.60547  -8477643.51542  23712210.9924   23712211.5594
  -5386838.19146  -4180308.90242  24377460.6954   24377463.5784
 04  7 17  0  1 30.0000000  0  8G 1G13G20G23G16G27G 3G 8
 -85466289.10249 -66579836.90845  21083458.9844   21083457.5744
 -53115937.55949 -41372587.12046  20768964.8364   20768961.8674
 -76331947.14848 -59464380.30743  22467587.2894   22467586.4344
 -84937305.22348 -66167490.28245  20846262.1644   20846257.5984
 -56878366.86348 -44303363.47643  22550490.6644   22550487.8244
 -34118613.82448 -26569034.77044  22257543.4224   22257542.7154
 -11069443.48447  -8609591.96142  23679988.2504   23679988.7934
  -5579768.28246  -4330643.88142  24340747.1024   24340749.8954
 04  7 17  0  2  0.0000000  0  8G 1G13G20G23G16G27G 3G 8
 -85537846.28949 -66635595.78445  21069842.3674   21069840.5904
 -53271777.44549 -41494020.78546  20739309.4534   20739306.8714
 -76340759.07848 -59471246.87443  22465909.8834   22465909.1914
 -85006533.60949 -66221434.50346  20833088.3674   20833083.9534
 -56912254.71948 -44329769.65743  22544042.1724   22544039.3524
 -34277141.15248 -26692562.51344  22227376.6254   22227375.7774
 -11238476.55947  -8741305.98142  23647822.2814   23647822.7774
  -5772565.59846  -4480875.36542  24304058.6884   24304061.3794
 04  7 17  0  2 30.0000000  0  8G 1G13G20G23G16G27G 3G 8
 -85609077.78949 -66691100.87345  21056287.2504   21056285.5864
 -53427346.02349 -41615243.03746  20709705.7194   20709703.0554
 -76349308.68748 -59477909.00643  22464283.1724   22464282.5904
 -85075400.47348 -66275097.01946  20819983.5554   20819978.8244
 -56945748.09848 -44355868.43343  22537668.2974   22537665.8054
 -34435484.92248 -26815947.22044  22197244.7034   22197244.0354
 -11407201.41848  -8872779.82242  23615715.1804   23615714.8484
  -5965225.32046  -4630999.66642  24267397.2344   24267399.3954
 04  7 17  0  3  0.0000000  0  8G 1G13G20G23G16G27G 3G 8
 -85679984.87549 -66746353.18346  21042794.0314   21042792.7464
 -53582643.20349 -41736253.82246  20680153.6564   20680151.0434
 -76357600.55148 -59484370.32043  22462705.4224   22462704.8524
 -85143907.10949 -66328478.84546  20806947.1254   20806942.3914
 -56978851.16848 -44381663.08343  22531369.5704   22531366.9414
 -34593647.46548 -26939190.71244  22167147.2424   22167146.6804
 -11575616.91048  -9004012.64142  23583667.3914   23583666.6954
  -6157748.46946  -4781017.52142  24230760.3674   24230763.7274
 04  7 17  0  3 29.9990000  0  8G 1G13G20G23G16G27G 3G 8
 -85750560.08249 -66801346.87945  21029364.1204   21029362.6054
 -53737657.64549 -41857044.28446  20650655.3704   20650653.0384
 -76365632.48047 -59490629.08843  22461176.9484   22461176.1554
 -85212046.49649 -66381574.50245  20793980.8704   20793976.1634
 -57011560.64548 -44407151.03243  22525145.0114   22525142.5974
 -34751619.06248 -27062285.40744  22137086.4094   22137085.3974
 -11743709.91048  -9134994.15942  23551679.7304   23551679.5224
  -6350123.97347  -4930920.37542  24194153.3864   24194155.5934
 04  7 17  0  3 59.9990000  0  8G 1G13G20G23G16G27G 3G 8
 -85820812.94149 -66856089.40545  21015995.7224   21015994.0774
 -53892403.20749 -41977625.22646  20621207.8314   20621205.3784
 -76373413.07048 -59496692.01543  22459697.4014   22459695.8514
 -85279828.10549 -66434391.37946  20781082.7144   20781077.7334
 -57043886.28148 -44432339.89343  22518993.7224   22518990.5034
 -34909415.84848 -27185243.89344  22107058.8084   22107057.9834
 -11911493.74648  -9265734.77442  23519751.3474   23519751.4834
  -6542369.42646  -5080721.85242  24157569.8394   24157572.1794
 04  7 17  0  4 29.9990000  0  8G 1G13G20G23G16G27G 3G 8
 -85890738.95349 -66910577.24145  21002689.4484   21002687.4174
 -54046871.29349 -42097989.95146  20591813.6984   20591811.1204
 -76380943.05547 -59502559.63343  22458263.8154   22458263.2764
 -85347247.64149 -66486926.10646  20768253.0734   20768248.1834
 -57075827.76248 -44457229.43343  22512915.0194   22512913.0384
 -35067031.22348 -27308061.03544  22077064.8084   22077064.8314
 -12078958.12148  -9396226.42742  23487884.2844   23487883.3154
  -6734476.58247  -5230415.59142  24121012.2454   24121015.6874
 04  7 17  0  4 59.9990000  0  8G 1G13G20G23G16G27G 3G 8
 -85960339.34849 -66964811.34145  20989444.4724   20989442.8864
 -54201062.03949 -42218138.58746  20562472.8394   20562469.8704
 -76388226.92648 -59508235.51443  22456877.9254   22456877.3744
 -85414306.55949 -66539179.83745  20755492.2304   20755487.6514
 -57107389.45748 -44481823.00543  22506909.2534   22506906.6124
 -35224467.01648 -27430738.23444  22047106.0114   22047105.5734
 -12246102.02048  -9526468.35842  23456077.8394   23456077.2374
  -6926446.70347  -5380002.56642  24084481.3944   24084484.4954
 04  7 17  0  5 29.9990000  0  8G 1G13G20G23G16G27G 3G 8
 -86029612.34449 -67018790.34045  20976262.1124   20976261.0624
 -54354972.05149 -42338068.45546  20533184.4174   20533181.8664
 -76395266.04347 -59513720.67843  22455538.5194   22455538.0424
 -85481003.50849 -66591151.51946  20742799.9724   20742795.5194
 -57138572.37548 -44506121.43742  22500975.3944   22500972.8314
 -35381722.31648 -27553274.78944  22017181.8394   22017180.6324
 -12412920.99248  -9656457.16942  23424332.6984   23424332.3194
  -7118277.66447  -5529481.10542  24047977.0264   24047980.5034
 04  7 17  0  5 59.9990000  0  8G 1G13G20G23G16G27G 3G 8
 -86098558.78949 -67072514.87245  20963142.3944   20963141.0814
 -54508601.11349 -42457779.39346  20503949.5814   20503946.9874
 -76402064.42647 -59519018.24443  22454244.5424   22454244.2454
 -85547339.36749 -66642841.83246  20730176.8624   20730172.2144
 -57169380.21948 -44530127.61543  22495112.7374   22495110.2144
 -35538798.64848 -27675671.89644  21987291.0034   21987289.8584
 -12579413.63347  -9786191.60942  23392650.5194   23392650.1794
  -7309970.96947  -5678852.35142  24011499.5344   24011502.4054
 04  7 17  0  6 29.9990000  0  8G 1G13G20G23G16G27G 3G 8
 -86167177.52048 -67125984.04745  20950084.9804   20950083.6164
 -54661946.94949 -42577269.64346  20474768.8004   20474766.0074
 -76408624.17647 -59524129.85943  22452996.3154   22452996.1834
 -85613313.43748 -66694250.23046  20717622.6284   20717617.9684
 -57199814.87548 -44553842.97243  22489321.0344   22489318.9094
 -35695695.77747 -27797929.36144  21957434.1754   21957433.4014
 -12745576.37548  -9915669.02342  23361031.1054   23361030.1084
  -7501525.55147  -5828115.47642  23975047.5974   23975050.3744
 04  7 17  0  6 59.9990000  0  8G 1G13G20G23G16G27G 3G 8
 -86235467.67648 -67179197.18745  20937089.8004   20937087.8944
 -54815007.36749 -42696537.49446  20445642.5034   20445639.6944
 -76414947.54747 -59529057.28143  22451793.6204   22451793.1204
 -85678925.00048 -66745376.15946  20705137.0114   20705132.3474
 -57229878.27748 -44577269.05643  22483600.5034   22483598.5624
 -35852413.49247 -27920047.01644  21927612.1444   21927611.3154
 -12911405.91847 -10044886.79642  23329473.9334   23329473.7884
  -7692940.39147  -5977269.78842  23938622.2764   23938625.0624
 04  7 17  0  7 29.9990000  0  8G 1G13G20G23G16G27G 3G 8
 -86303430.53949 -67232155.30345  20924156.8554   20924155.3004
 -54967782.00049 -42815582.65246  20416570.4644   20416567.6634
 -76421039.14547 -59533804.13043  22450633.9874   22450633.8664
 -85744175.65648 -66796220.85446  20692720.3944   20692715.8704
 -57259574.52748 -44600409.04943  22477949.7224   22477947.7924
 -36008953.87147 -28042026.48744  21897823.5974   21897822.4334
 -13076900.77047 -10173843.79542  23297981.5424   23297981.2694
  -7884217.14546  -6126316.46142  23902222.8704   23902226.1944
 04  7 17  0  7 59.9990000  0  8G 1G13G20G23G16G27G 3G 8
 -86371066.30548 -67284858.54145  20911286.0504   20911284.6834
 -55120269.91449 -42934404.40046  20387552.7924   20387550.3434
 -76426902.19947 -59538372.87843  22449519.2304   22449518.1014
 -85809065.75048 -66846784.59946  20680372.2304   20680367.4214
 -57288906.68048 -44623265.35143  22472368.7304   22472365.4804
 -36165317.60247 -28163868.31044  21868067.7534   21868066.9294
 -13242058.66447 -10302538.19842  23266552.5504   23266552.4604
  -8075355.75847  -6275255.57742  23865850.8234   23865853.5894
 04  7 17  0  8 29.9990000  0  8G 1G13G20G23G16G27G 3G 8
 -86438368.55149 -67337301.88145  20898478.8474   20898477.3354
 -55272463.53549 -43052996.81146  20358591.3474   20358589.0624
 -76432533.35247 -59542760.92443  22448447.3314   22448447.1364
 -85873588.93048 -66897062.43746  20668093.8624   20668089.2144
 -57317871.31248 -44645835.25343  22466856.4874   22466854.3314
 -36321499.10547 -28285568.14044  21838347.7454   21838346.7024
 -13406870.91847 -10430963.29442  23235190.1444   23235189.6014
  -8266350.07047  -6424082.17842  23829505.6204   23829508.3234
 04  7 17  0  8 59.9990000  0  8G 1G13G20G23G16G27G 3G 8
 -86505347.98049 -67389493.66745  20885733.3624   20885731.5654
 -55424372.12149 -43171367.13346  20329684.2454   20329681.3704
 -76437946.59047 -59546979.17543  22447417.2224   22447416.7964
 -85937756.48848 -66947063.16746  20655883.3234   20655878.5154
 -57346482.12148 -44668129.43643  22461411.9644   22461410.2924
 -36477509.96548 -28407134.99144  21808659.7304   21808658.9174
 -13571345.85247 -10559125.51342  23203892.2694   23203891.6634
  -8457211.10546  -6572804.89442  23793185.6674   23793187.9684
 04  7 17  0  9 29.9990000  0  8G 1G13G20G23G16G27G 3G 8
 -86571996.31248 -67441427.46845  20873050.5114   20873049.1874
 -55575986.12149 -43289507.88746  20300832.8704   20300830.4014
 -76443136.78547 -59551023.61043  22446429.8704   22446429.4524
 -86001560.18048 -66996780.35646  20643741.4804   20643737.0654
 -57374733.50048 -44690143.55043  22456036.3784   22456033.3234
 -36633342.53148 -28528562.92444  21779005.8704   21779004.7924
 -13735472.76647 -10687016.58842  23172659.0654   23172658.9134
  -8647930.43046  -6721417.26242  23756892.9174   23756896.2574
 04  7 17  0  9 59.9990000  0  8G 1G13G20G23G16G27G 3G 8
 -86638312.21949 -67493102.24945  20860430.8784   20860429.3824
 -55727302.87549 -43407417.03646  20272038.2454   20272035.6594
 -76448105.85947 -59554895.74043  22445484.0584   22445483.9874
 -86064999.08648 -67046213.30246  20631669.6754   20631665.1084
 -57402627.14148 -44711878.90743  22450727.8474   22450726.1904
 -36788996.06648 -28649851.35644  21749386.0654   21749385.2104
 -13899247.92647 -10814633.55442  23141493.5654   23141493.5264
  -8838507.09047  -6869918.43542  23720627.7924   23720629.8554
 04  7 17  0 10 29.9980000  0  8G 1G13G20G23G16G27G 3G 8
 -86704296.99249 -67544518.97245  20847874.7094   20847873.1474
 -55878319.43749 -43525092.26546  20243300.9284   20243298.1624
 -76452860.12147 -59558600.51243  22444579.2874   22444579.4794
 -86128074.77048 -67095363.21946  20619666.7794   20619662.3224
 -57430168.43048 -44733339.72243  22445487.3344   22445485.5494
 -36944469.55548 -28770999.48444  21719800.1074   21719799.3224
 -14062666.86746 -10941972.92442  23110396.0224   23110396.0614
  -9028937.82846  -7018305.95142  23684389.7014   23684392.2214
 04  7 17  0 10 59.9980000  0  8G 1G13G20G23G16G27G 3G 8
 -86769955.32849 -67595681.35545  20835380.1704   20835378.8814
 -56029044.93449 -43642540.69246  20214618.6934   20214616.1584
 -76457403.53147 -59562140.95843  22443715.2484   22443714.9554
 -86190791.96948 -67144233.79646  20607732.1234   20607727.7644
 -57457362.54748 -44754530.01943  22440311.7174   22440310.2054
 -37099774.64548 -28892016.39744  21690246.6074   21690245.6274
 -14225738.23446 -11069041.44342  23079363.6704   23079364.3384
  -9219235.76246  -7166589.95042  23648177.4514   23648179.5454
 04  7 17  0 11 29.9980000  0  8G 1G13G20G23G16G27G 3G 8
 -86835278.09849 -67646582.24545  20822949.7644   20822948.4904
 -56179465.94949 -43759751.86346  20185994.5614   20185992.1074
 -76461732.10547 -59565514.02843  22442891.5924   22442891.3614
 -86253141.87148 -67192818.16645  20595867.4364   20595862.9634
 -57484204.45748 -44775445.85743  22435204.5684   22435202.5414
 -37254899.71948 -29012893.03345  21660727.2564   21660726.4754
 -14388447.35946 -11195827.71142  23048401.6624   23048401.7094
  -9409388.06647  -7314760.48242  23611992.3894   23611994.2364
 04  7 17  0 11 59.9980000  0  8G 1G13G20G23G16G27G 3G 8
 -86900267.30949 -67697223.23145  20810582.7094   20810581.1474
 -56329583.02749 -43876726.20446  20157428.3114   20157425.6434
 -76465850.78147 -59568723.52943  22442107.8184   22442107.7254
 -86315126.88748 -67241118.20845  20584072.0294   20584067.4204
 -57510698.99248 -44796091.01643  22430163.0924   22430160.4554
 -37409847.45748 -29133631.48645  21631241.4124   21631240.8264
 -14550793.98446 -11322331.51942  23017508.4124   23017508.5254
  -9599396.64546  -7462818.98242  23575835.0064   23575837.4824
 04  7 17  0 12 29.9980000  0  8G 1G13G20G23G16G27G 3G 8
 -86964927.13349 -67747607.54245  20798278.6004   20798277.0454
 -56479399.03149 -43993465.94146  20128919.2174   20128916.1704
 -76469766.84447 -59571775.15643  22441362.8814   22441362.8304
 -86376751.39548 -67289137.34346  20572345.4984   20572340.8544
 -57536853.02048 -44816470.84143  22425186.1624   22425183.3424
 -37564622.73848 -29254235.56444  21601789.1314   21601787.8654
 -14712779.37147 -11448553.82742  22986683.7794   22986683.6864
  -9789265.80546  -7610768.87342  23539703.8264   23539706.5144
 04  7 17  0 12 59.9980000  0  8G 1G13G20G23G16G27G 3G 8
 -87029257.27748 -67797734.97245  20786036.8424   20786035.3894
 -56628912.07049 -44109969.58646  20100467.8114   20100465.0924
 -76473483.10947 -59574671.10243  22440655.3034   22440655.6504
 -86438015.08248 -67336875.31246  20560687.1704   20560682.7174
 -57562669.14548 -44836587.36443  22420273.6234   22420270.8504
 -37719225.59048 -29374705.28045  21572368.9044   21572368.0924
 -14874400.75047 -11574492.55142  22955927.8814   22955927.7524
  -9978995.05947  -7758609.77642  23503599.0534   23503601.6114
 04  7 17  0 13 29.9980000  0  8G 1G13G20G23G16G27G 3G 8
 -87093255.21949 -67847603.54745  20773858.3654   20773856.9434
 -56778118.48049 -44226234.30646  20072074.6234   20072072.2054
 -76477000.41447 -59577412.01343  22439986.6004   22439986.6474
 -86498916.02048 -67384330.63046  20549098.1004   20549093.9124
 -57588147.63348 -44856440.78243  22415425.3344   22415423.1784
 -37873654.53948 -29495039.48944  21542982.2404   21542981.2294
 -15035653.37947 -11700143.85542  22925241.8114   22925242.6314
 -10168581.99247  -7906339.74942  23467521.7954   23467524.7484
 04  7 17  0 13 59.9980000  0  8G 1G13G20G23G16G27G 3G 8
 -87156919.35549 -67897212.01045  20761743.8734   20761742.5144
 -56927015.13749 -44342257.66046  20043740.7174   20043737.9594
 -76480320.14147 -59579998.98043  22439354.8504   22439355.0064
 -86559452.91049 -67431502.27745  20537578.4754   20537573.7094
 -57613290.12148 -44876032.39642  22410640.6624   22410637.9754
 -38027908.61748 -29615237.42645  21513628.1074   21513627.7684
 -15196533.38346 -11825504.85442  22894627.7094   22894628.2954
 -10358025.53947  -8053957.98942  23431472.4594   23431474.4864
 04  7 17  0 14 29.9980000  0  8G 1G13G20G23G16G27G 3G 8
 -87220247.68049 -67946558.79145  20749692.7094   20749691.2684
 -57075598.60549 -44458036.97746  20015465.9754   20015463.0724
 -76483443.36747 -59582432.80743  22438760.6004   22438760.8034
 -86619623.81248 -67478388.73845  20526128.3114   20526123.7954
 -57638097.26648 -44895362.74442  22405920.3184   22405917.8694
 -38181986.41848 -29735298.01445  21484308.3894   21484307.3814
 -15357036.34046 -11950572.07242  22864086.5144   22864085.8074
 -10547323.27047  -8201462.55242  23395450.4204   23395452.6474
 04  7 17  0 14 59.9980000  0  8G 1G13G20G23G16G27G 3G 8
 -87283239.21148 -67995643.16545  20737705.8424   20737704.3774
 -57223866.37549 -44573570.29446  19987251.6864   19987248.7834
 -76486371.88747 -59584714.93942  22438203.5844   22438204.0144
 -86679427.77748 -67524989.27646  20514748.2484   20514743.4204
 -57662570.43448 -44914432.79242  22401263.7174   22401260.2994
 -38335887.45347 -29855220.85945  21455022.3114   21455020.7604
 -15517158.53946 -12075342.53642  22833614.9204   22833615.0334
 -10736474.11747  -8348852.72142  23359455.1234   23359457.7954
 04  7 17  0 15 29.9980000  0  8G 1G13G20G23G16G27G 3G 8
 -87345898.94948 -68044468.97445  20725781.8814   20725780.9824
 -57371822.06649 -44688860.42246  19959096.5374   19959093.9204
 -76489114.01647 -59586851.82343  22437681.8974   22437681.6504
 -86738870.16048 -67571308.05145  20503436.5294   20503431.9084
 -57686717.64548 -44933248.86442  22396668.0224   22396665.5724
 -38489617.29748 -29975010.30745  21425768.4364   21425767.3264
 -15676902.75447 -12199818.49042  22803216.4984   22803217.0374
 -10925483.19547  -8496132.43342  23323488.4044   23323490.5294
 04  7 17  0 15 59.9980000  0  8G 1G13G20G23G16G27G 3G 8
 -87408222.50448 -68093032.81545  20713922.0764   20713920.8694
 -57519459.83249 -44803902.82546  19931002.0064   19930999.2254
 -76491668.28547 -59588842.31743  22437195.4674   22437195.9944
 -86797947.08648 -67617342.06746  20492194.6234   20492189.9864
 -57710537.55948 -44951809.91243  22392135.6544   22392133.1234
 -38643172.23048 -30094663.47145  21396547.4364   21396546.6504
 -15836261.91847 -12323994.42042  22772891.9754   22772891.6194
 -11114346.43747  -8643298.46442  23287549.0684   23287551.1234
 04  7 17  0 16 29.9980000  0  8G 1G13G20G23G16G27G 3G 8
 -87470209.00048 -68141334.03145  20702126.7954   20702125.2214
 -57666777.29749 -44918695.64046  19902968.5144   19902965.9394
 -76494037.04347 -59590688.28243  22436745.6004   22436745.2954
 -86856657.61748 -67663090.56946  20481022.6864   20481018.0764
 -57734031.87948 -44970117.22843  22387664.8114   22387661.8934
 -38796551.87548 -30214180.02845  21367360.3264   21367359.5224
 -15995232.78547 -12447867.75142  22742640.6004   22742641.1314
 -11303062.32047  -8790349.70842  23251637.7174   23251639.7914
 04  7 17  0 16 59.9980000  0  8G 1G13G20G23G16G27G 3G 8
 -87531859.63348 -68189373.53745  20690394.8504   20690394.0964
 -57813773.96149 -45033238.48446  19874995.8344   19874992.9944
 -76496224.49647 -59592392.94043  22436329.4754   22436329.8464
 -86915003.48848 -67708554.94446  20469919.5294   20469915.2364
 -57757204.59448 -44988173.95342  22383254.1934   22383252.2134
 -38949758.08648 -30333561.45545  21338206.3974   21338205.2254
 -16153814.11347 -12571437.59142  22712463.2324   22712463.3934
 -11491632.60947  -8937287.47442  23215753.2954   23215755.6074
 04  7 17  0 17 29.9970000  0  8G 1G13G20G23G16G27G 3G 8
 -87593171.53949 -68237149.09745  20678727.7744   20678726.7714
 -57960442.92649 -45147525.98446  19847085.7904   19847082.9384
 -76498232.63347 -59593957.90643  22435947.2824   22435947.7864
 -86972982.15648 -67753733.16445  20458886.8604   20458882.2314
 -57780057.09848 -45005981.20742  22378906.7514   22378903.8494
 -39102785.60948 -30452803.64945  21309086.4784   21309085.0244
 -16311997.28947 -12694697.15543  22682362.1734   22682362.0404
 -11680050.29747  -9084106.33742  23179899.0094   23179901.1854
 04  7 17  0 17 59.9970000  0  9G 1G13G20G23G16G19G27G 3G 8
 -87654149.94949 -68284664.80745  20667124.3454   20667122.4624
 -58106793.52349 -45261565.39746  19819236.2124   19819233.3064
 -76500065.97747 -59595386.65342  22435598.7354   22435598.9854
 -87030598.75048 -67798629.25945  20447922.5094   20447918.2634
 -57802594.71548 -45023543.06642  22374617.4704   22374616.2824
   -280569.93455   -196557.35652  23890966.3064   23890966.5174
 -39255646.30548 -30571915.83545  21279997.8134   21279996.4974
 -16469792.04347 -12817654.05842  22652334.9314   22652335.1344
 -11868328.99247  -9230816.91042  23144070.6494   23144072.5524
 04  7 17  0 18 29.9970000  0  9G 1G13G20G23G16G19G27G 3G 8
 -87714803.87949 -68331927.65545  20655582.0794   20655581.0404
 -58252830.55149 -45375360.48346  19791446.3374   19791443.2864
 -76501738.41847 -59596690.03243  22435280.1184   22435280.7284
 -87087862.74248 -67843250.60345  20437025.7514   20437021.2594
 -57824830.55147 -45040869.80542  22370386.1654   22370384.7824
   -470108.55545   -344249.62942  23854898.5014   23854897.9314
 -39408346.67248 -30690903.09245  21250939.4854   21250938.6264
 -16627201.62147 -12940310.82642  22622380.7044   22622380.9354
 -12056473.43447  -9377422.83542  23108267.6964   23108269.9934
 04  7 17  0 18 59.9970000  0  9G 1G13G20G23G16G19G27G 3G 8
 -87775138.75849 -68378941.88045  20644100.6424   20644099.6224
 -58398557.76249 -45488914.14346  19763715.3764   19763712.7044
 -76503258.28547 -59597874.51143  22434991.1964   22434991.3604
 -87144779.90648 -67887601.69645  20426194.6814   20426190.4464
 -57846772.59047 -45057967.58443  22366210.4234   22366208.9934
   -659640.96146   -491937.12942  23818832.1104   23818831.4664
 -39560892.76648 -30809770.14545  21221911.0094   21221909.8494
 -16784228.85947 -13062669.65843  22592499.1264   22592499.7904
 -12244488.80547  -9523928.22242  23072488.6964   23072491.3454
 04  7 17  0 19 29.9970000  0  9G 1G13G20G23G16G19G27G 3G 8
 -87835152.04349 -68425705.54445  20632680.5714   20632679.2784
 -58543971.22348 -45602223.32946  19736044.0484   19736041.3994
 -76504626.11347 -59598940.51543  22434731.3064   22434731.2244
 -87201347.80948 -67931680.62646  20415430.1814   20415425.8564
 -57868421.38747 -45074836.81542  22362090.8604   22362089.7124
   -849162.32045   -639615.97042  23782766.0564   23782766.7124
 -39713282.60548 -30928515.43545  21192912.1184   21192911.0604
 -16940868.72747 -13184726.65743  22562691.7204   22562691.9464
 -12432372.90247  -9670331.24142  23036736.2044   23036738.4894
 04  7 17  0 19 59.9970000  0  9G 1G13G20G23G16G19G27G 3G 8
 -87894836.48848 -68472212.95545  20621322.9384   20621321.8964
 -58689062.02349 -45715281.09346  19708434.5174   19708431.4854
 -76505837.69947 -59599884.77442  22434500.9624   22434501.1574
 -87257559.41448 -67975481.92145  20404733.7674   20404729.3374
 -57889772.03148 -45091473.75442  22358028.9784   22358026.5444
  -1038662.60946   -787278.45542  23746706.6344   23746705.9704
 -39865509.18448 -31047133.51445  21163944.1034   21163943.3414
 -17097111.66047 -13306474.34342  22532959.9154   22532959.8454
 -12620118.05147  -9816626.10642  23001009.1964   23001011.6034
 04  7 17  0 20 29.9970000  0  9G 1G13G20G23G16G19G27G 3G 8
 -87954191.78549 -68518463.89545  20610028.2044   20610027.1884
 -58833828.53949 -45828086.16946  19680885.8534   19680883.0444
 -76506895.62147 -59600709.32242  22434299.1574   22434299.8924
 -87313415.07048 -68019005.85745  20394104.9384   20394100.3494
 -57910827.41847 -45107880.65643  22354022.0404   22354020.1964
  -1228138.84046   -934922.13042  23710649.9934   23710649.5014
 -40017573.09048 -31165624.83745  21135007.8844   21135007.0714
 -17252955.06647 -13427910.72342  22503303.6264   22503303.9704
 -12807724.55147  -9962812.87542  22965309.4544   22965311.1734
 04  7 17  0 20 59.9970000  0  9G 1G13G20G23G16G19G27G 3G 8
 -88013214.69149 -68564455.81545  20598796.5094   20598795.3454
 -58978265.84449 -45940634.71146  19653400.2744   19653397.7434
 -76507799.63747 -59601413.93742  22434128.0014   22434127.7284
 -87368911.52048 -68062249.90045  20383544.0014   20383539.7714
 -57931586.69147 -45124056.78442  22350071.1264   22350070.2004
  -1417585.00846  -1082542.46542  23674599.6654   23674599.0324
 -40169471.47348 -31283987.17445  21106101.9544   21106101.2474
 -17408393.13347 -13549031.24742  22473724.8374   22473724.5094
 -12995188.81647 -10108888.79742  22929635.1964   22929637.9744
 04  7 17  0 21 29.9970000  0  9G 1G13G20G23G16G19G27G 3G 8
 -88071908.93049 -68610191.63645  20587627.5484   20587626.4354
 -59122376.19149 -46052928.49346  19625977.1264   19625974.4934
 -76508556.34047 -59602003.74042  22433983.4544   22433984.2744
 -87424052.85948 -68105217.21045  20373050.8604   20373046.8964
 -57952056.47347 -45140007.30642  22346176.0954   22346174.1574
  -1607001.94946  -1230139.99742  23638554.1344   23638554.0604
 -40321208.62148 -31402223.88845  21077227.6814   21077226.9114
 -17563427.31248 -13669837.05042  22444223.0714   22444222.6424
 -13182514.36747 -10254856.65242  22893989.4314   22893990.9314
 04  7 17  0 21 59.9970000  0  9G 1G13G20G23G16G19G27G 3G 8
 -88130269.70749 -68655667.61745  20576521.9624   20576520.7824
 -59266153.10949 -46164962.44746  19598617.5404   19598614.2864
 -76509164.10947 -59602477.48742  22433868.6264   22433868.8804
 -87478834.47748 -68147904.23645  20362626.5014   20362622.0874
 -57972234.73448 -45155730.72142  22342336.5954   22342334.3764
  -1796382.18047  -1377708.91342  23602516.2904   23602516.0564
 -40472780.15648 -31520331.53145  21048384.2284   21048383.4114
 -17718050.32448 -13790322.47742  22414799.2044   22414798.1534
 -13369696.51248 -10400712.76642  22858369.2044   22858370.8564
 04  7 17  0 22 29.9970000  0  9G 1G13G20G23G16G19G27G 3G 8
 -88188297.49649 -68700884.12445  20565479.5794   20565478.3024
 -59409595.50449 -46276735.73946  19571321.0874   19571318.0914
 -76509626.41047 -59602837.91042  22433780.2904   22433780.6654
 -87533257.14148 -68190311.55645  20352270.3534   20352265.7354
 -57992124.54348 -45171229.35642  22338551.7044   22338549.9034
  -1985723.23847  -1525247.33642  23566485.3844   23566485.5994
 -40624187.06649 -31638310.90045  21019572.3534   21019571.7434
 -17872260.29748 -13910486.04942  22385453.9074   22385453.5564
 -13556735.74247 -10546457.50542  22822777.2674   22822778.7864
 04  7 17  0 22 59.9970000  0  9G 1G13G20G23G16G19G27G 3G 8
 -88245991.78549 -68745840.75445  20554500.9384   20554499.6184
 -59552701.21149 -46388246.68846  19544088.9624   19544086.3644
 -76509945.35547 -59603086.58842  22433720.0714   22433720.0954
 -87587320.50848 -68232438.90545  20341982.2674   20341977.9464
 -58011728.07848 -45186504.91242  22334821.2354   22334819.3604
  -2175021.83647  -1672752.62042  23530463.6814   23530463.3064
 -40775429.20748 -31756161.89045  20990791.9154   20990790.9814
 -18026054.31248 -14030325.53842  22356187.6264   22356187.2164
 -13743631.26647 -10692090.24142  22787211.2204   22787213.0054
 04  7 17  0 23 29.9970000  0  9G 1G13G20G23G16G19G27G 3G 8
 -88303347.82849 -68790533.83345  20543586.3454   20543585.2744
 -59695463.99649 -46499490.41546  19516922.0794   19516919.2984
 -76510119.20347 -59603222.26242  22433686.9234   22433687.5524
 -87641020.13748 -68274282.81145  20331763.8294   20331759.3374
 -58031043.16047 -45201555.71942  22331145.3214   22331144.1534
  -2364270.46547  -1820219.00442  23494450.3064   23494450.5284
 -40926502.35548 -31873881.20745  20962043.6264   20962042.9424
 -18179425.35547 -14149835.38342  22327002.5324   22327001.6884
 -13930377.97347 -10837607.06042  22751673.4624   22751676.7164
 04  7 17  0 23 59.9970000  0  9G 1G13G20G23G16G19G27G 3G 8
 -88360372.62149 -68834968.77845  20532734.7744   20532733.9074
 -59837889.18449 -46610471.07546  19489819.8214   19489816.6384
 -76510157.85547 -59603252.52342  22433679.7904   22433680.2244
 -87694363.31248 -68315848.95545  20321612.8064   20321608.2714
 -58050079.36748 -45216389.24142  22327523.6184   22327521.3684
  -2553472.94547  -1967649.45142  23458446.8764   23458446.2474
 -41077413.94948 -31991474.62045  20933326.3374   20933325.2004
 -18332378.00846 -14269019.24243  22297896.4854   22297896.2084
 -14116983.44948 -10983013.80642  22716165.2904   22716166.6224
 04  7 17  0 24 29.9970000  0  9G 1G13G20G23G16G19G27G 3G 8
 -88417061.21149 -68879141.75845  20521947.2434   20521946.3064
 -59979970.23049 -46721183.57346  19462782.6654   19462779.9194
 -76510059.23847 -59603175.88042  22433698.2284   22433699.2824
 -87747345.23448 -68357133.62545  20311530.8924   20311526.5054
 -58068834.59848 -45231003.76542  22323954.9784   22323953.2044
  -2742621.67647  -2115037.99142  23422453.0874   23422452.4744
 -41228159.37148 -32108938.55045  20904640.6424   20904639.4624
 -18484904.95747 -14387871.37742  22268870.7434   22268871.3374
 -14303442.08647 -11128306.14242  22680682.7514   22680684.2204
 04  7 17  0 24 59.9960000  0  9G 1G13G20G23G16G19G27G 3G 8
 -88473410.96149 -68923050.70045  20511224.5274   20511223.2894
 -60121700.07849 -46831622.41746  19435812.4734   19435809.6764
 -76509825.57446 -59602993.97642  22433743.2774   22433744.3674
 -87799963.93448 -68398135.25845  20301517.8874   20301513.3714
 -58087310.22747 -45245400.41142  22320438.4654   22320436.9774
  -2931706.69147  -2262376.86942  23386470.8094   23386471.1804
 -41378733.59048 -32226269.07945  20875986.9814   20875985.8284
 -18636998.12548 -14506385.50442  22239928.7154   22239928.5704
 -14489747.29347 -11273478.86942  22645229.6994   22645231.8634
 04  7 17  0 25 29.9960000  0  9G 1G13G20G23G16G19G27G 3G 8
 -88529425.83649 -68966698.69645  20500565.4184   20500564.1214
 -60263086.93749 -46941793.99346  19408907.2314   19408904.5474
 -76509459.91447 -59602709.23742  22433813.2464   22433813.6844
 -87852223.21548 -68438856.82245  20291573.4814   20291569.0234
 -58105510.17247 -45259582.32142  22316975.7234   22316974.0904
  -3120738.08646  -2409674.00942  23350499.7854   23350499.5394
 -41529147.15249 -32343474.43745  20847364.6214   20847363.3404
 -18788665.37548 -14624567.76842  22211067.5124   22211067.6644
 -14675911.68047 -11418541.88042  22609803.6684   22609806.0394
 04  7 17  0 25 59.9960000  0  9G 1G13G20G23G16G19G27G 3G 8
 -88585107.51649 -69010087.07445  20489969.3954   20489968.3164
 -60404127.95349 -47051696.09146  19382068.1454   19382065.5824
 -76508968.55547 -59602326.55342  22433906.7934   22433907.7894
 -87904125.14148 -68479299.92345  20281696.7934   20281692.1064
 -58123439.84047 -45273553.53742  22313563.4024   22313562.3244
  -3309709.92247  -2556924.70442  23314539.2234   23314538.7814
 -41679398.88749 -32460553.68145  20818772.5044   20818771.4454
 -18939902.80548 -14742415.07442  22182288.4104   22182286.9414
 -14861931.94547 -11563492.60342  22574405.2704   22574406.9574
 04  7 17  0 26 29.9960000  0  9G 1G13G20G23G16G19G27G 3G 8
 -88640448.55949 -69053209.99645  20479438.2154   20479436.7464
 -60544813.71949 -47161321.36347  19355296.2934   19355293.8094
 -76508346.98046 -59601842.36842  22434024.8404   22434025.9964
 -87955662.53548 -68519458.97845  20271889.4574   20271885.0984
 -58141094.72347 -45287310.69442  22310203.6604   22310202.2584
  -3498611.99647  -2704121.05242  23278592.3244   23278592.0554
 -41829481.77049 -32577501.35345  20790212.2074   20790211.3244
 -19090700.60247 -14859919.81742  22153592.1994   22153591.3444
 -15047800.89547 -11708325.41542  22539035.4184   22539037.2424
 04  7 17  0 26 59.9960000  0  9G 1G13G20G23G16G19G27G 3G 8
 -88695453.62149 -69096071.13545  20468971.1454   20468970.1764
 -60685147.51649 -47270672.36746  19328591.8164   19328589.0164
 -76507602.74647 -59601262.66342  22434166.7704   22434167.9814
 -88006840.25848 -68559337.76245  20262150.9184   20262146.2894
 -58158481.98447 -45300859.25442  22306896.2074   22306894.6564
  -3687445.85247  -2851264.28242  23242658.6374   23242657.8874
 -41979401.01648 -32694321.51345  20761683.5744   20761682.3404
 -19241061.17647 -14977083.85742  22124978.8484   22124978.5124
 -15233523.13347 -11853043.92942  22503692.8714   22503695.4574
 04  7 17  0 27 29.9960000  0  9G 1G13G20G23G16G19G27G 3G 8
 -88750121.27749 -69138669.34945  20458567.9184   20458567.3444
 -60825126.14149 -47379746.62146  19301954.7774   19301951.9964
 -76506737.40647 -59600588.56142  22434331.2384   22434332.9924
 -88057657.71948 -68598935.82645  20252480.6294   20252476.3524
 -58175602.81247 -45314200.27942  22303637.4494   22303636.2424
  -3876207.37547  -2998351.10342  23206738.5744   23206737.7424
 -42129155.50849 -32811013.30245  20733186.4814   20733185.5434
 -19390980.81247 -15093904.34542  22096450.5664   22096450.1994
 -15419097.40647 -11997647.13342  22468379.9264   22468382.0274
 04  7 17  0 27 59.9960000  0  9G 1G13G20G23G16G19G27G 3G 8
 -88804449.41049 -69181003.00345  20448230.0124   20448229.2384
 -60964746.24649 -47488541.51346  19275385.9024   19275383.1804
 -76505751.59047 -59599820.56442  22434519.3874   22434520.5904
 -88108112.61348 -68638251.36845  20242879.5904   20242875.1214
 -58192457.81647 -45327334.11242  22300430.3244   22300428.4344
  -4064891.46547  -3145377.54042  23170831.9024   23170832.7464
 -42278743.66849 -32927575.48745  20704720.6764   20704719.7114
 -19540455.13747 -15210377.81842  22068006.4414   22068006.0744
 -15604520.64547 -12142132.63242  22433095.1134   22433096.6214
 04  7 17  0 28 29.9960000  0  9G 1G13G20G23G16G19G27G 3G 8
 -88858440.23449 -69223073.83445  20437956.1914   20437955.0044
 -61104008.09449 -47597057.24046  19248885.1844   19248882.0864
 -76504650.00047 -59598962.38142  22434729.1064   22434730.2504
 -88158207.43749 -68677286.34745  20233346.7624   20233342.4224
 -58209051.37547 -45340264.24042  22297271.5744   22297271.4844
  -4253497.09046  -3292342.87042  23134942.4494   23134941.8914
 -42428167.71548 -33044009.77645  20676285.9964   20676285.0474
 -19689483.73847 -15326503.96742  22039647.4814   22039646.7114
 -15789795.39147 -12286502.40142  22397837.9104   22397839.8954
 04  7 17  0 28 59.9960000  0  9G 1G13G20G23G16G19G27G 3G 8
 -88912090.02049 -69264878.90944  20427746.5984   20427746.1484
 -61242906.15249 -47705289.48446  19222453.7314   19222450.8754
 -76503431.68047 -59598013.25342  22434961.3244   22434962.7274
 -88207938.58248 -68716037.93545  20223883.0594   20223879.2074
 -58225382.40647 -45352989.82043  22294164.6604   22294163.6414
  -4442017.38746  -3439241.71242  23099068.6454   23099067.6994
 -42577424.24249 -33160313.54145  20647883.8634   20647882.4494
 -19838060.61347 -15442278.08142  22011374.0824   22011373.5044
 -15974917.70347 -12430753.39842  22362610.9574   22362612.4104
 04  7 17  0 29 29.9960000  0  9G 1G13G20G23G16G19G27G 3G 8
 -88965404.50849 -69306422.71245  20417601.3164   20417600.4884
 -61381444.28949 -47813241.27346  19196090.9344   19196088.1564
 -76502105.36747 -59596979.94642  22435213.0354   22435215.0204
 -88257312.10948 -68754510.85645  20214487.8244   20214483.7814
 -58241459.37947 -45365517.41542  22291106.2624   22291104.0984
  -4630455.41446  -3586076.47542  23063209.3014   23063208.9574
 -42726519.46149 -33276491.60445  20619511.8714   20619510.6564
 -19986189.02047 -15557702.77142  21983186.2074   21983185.7504
 -16159893.38747 -12574890.17642  22327410.6214   22327412.3404
 04  7 17  0 29 59.9960000  0  9G 1G13G20G23G16G19G27G 3G 8
 -89018383.35949 -69347704.98744  20407520.0274   20407518.8984
 -61519620.95749 -47920911.40646  19169796.8164   19169793.9064
 -76500673.57047 -59595864.47742  22435487.3874   22435487.3014
 -88306327.98448 -68792705.08545  20205160.4024   20205156.4574
 -58257284.53547 -45377848.77342  22288093.8954   22288092.6844
  -4818807.92646  -3732844.57142  23027367.3164   23027366.4384
 -42875453.46949 -33392544.04445  20591170.6294   20591169.2584
 -20133866.59047 -15672776.17742  21955084.3794   21955083.7584
 -16344721.98047 -12718912.28542  22292238.9654   22292239.9264
 04  7 17  0 30 29.9960000  0  9G 1G13G20G23G16G19G27G 3G 8
 -89071028.87949 -69388727.53545  20397502.1294   20397500.9574
 -61657436.45749 -48028300.10746  19143571.4414   19143568.4144
 -76499141.16847 -59594670.61642  22435778.1604   22435779.6024
 -88354988.84448 -68830622.70045  20195900.3404   20195896.1524
 -58272862.50447 -45389987.55942  22285130.2854   22285128.3754
  -5007073.94547  -3879545.26642  22991540.4104   22991540.1524
 -43024228.73849 -33508472.80245  20562859.4184   20562858.4104
 -20281093.10547 -15787498.12942  21927068.0204   21927067.7034
 -16529405.68047 -12862821.56042  22257094.6524   22257096.2034
 04  7 17  0 30 59.9960000  0  9G 1G13G20G23G16G19G27G 3G 8
 -89123339.81249 -69429489.36445  20387547.4264   20387546.5044
 -61794887.94549 -48135405.16346  19117415.0984   19117412.3594
 -76497509.60547 -59593399.45142  22436089.2624   22436090.4144
 -88403293.80548 -68868262.97345  20186708.4814   20186704.1804
 -58288194.73447 -45401934.79642  22282213.2624   22282210.7194
  -5195249.27746  -4026175.26942  22955732.5664   22955731.9654
 -43172844.46548 -33624277.22245  20534578.7544   20534578.0904
 -20427865.14146 -15901865.92042  21899138.2314   21899137.1764
 -16713942.60547 -13006616.45042  22221978.5904   22221980.2314
 04  7 17  0 31 29.9960000  0  9G 1G13G20G23G16G19G27G 3G 8
 -89175309.58649 -69469985.33145  20377657.9814   20377657.0664
 -61931967.19949 -48242220.16346  19091329.9814   19091327.0274
 -76495775.20746 -59592048.13742  22436419.1374   22436420.7934
 -88451236.43448 -68905620.92245  20177585.4344   20177581.2624
 -58303277.02747 -45413687.36142  22279342.9184   22279340.9224
  -5383324.30547  -4172727.14042  22919942.8484   22919942.4614
 -43321294.22349 -33739952.32645  20506329.7854   20506328.8984
 -20574174.05947 -16015872.83542  21871295.7464   21871295.5004
 -16898325.97347 -13150291.63342  22186890.8244   22186892.6804
 04  7 17  0 31 59.9950000  0  9G 1G13G20G23G16G19G27G 3G 8
 -89226943.21149 -69510219.39345  20367832.2414   20367831.4174
 -62068674.78949 -48348745.55746  19065315.1714   19065312.5304
 -76493947.63347 -59590624.27542  22436766.0544   22436768.8004
 -88498822.40248 -68942700.94245  20168529.8354   20168525.7964
 -58318118.34447 -45425252.11742  22276518.3354   22276517.1364
  -5571296.59447  -4319198.92242  22884172.7804   22884172.4054
 -43469580.41049 -33855499.97245  20478111.9214   20478110.7064
 -20720019.62147 -16129518.70942  21843542.6484   21843542.7654
 -17082556.53947 -13293847.77842  22151833.3274   22151835.1794
 04  7 17  0 32 29.9950000  0  9G 1G13G20G23G16G19G27G 3G 8
 -89278243.99249 -69550194.07945  20358070.1324   20358069.5854
 -62205017.99649 -48454987.01646  19039370.1324   19039367.2144
 -76492029.16047 -59589129.55942  22437131.8354   22437133.5264
 -88546054.87948 -68979505.52745  20159541.8434   20159538.0734
 -58332722.00847 -45436631.66942  22273738.8664   22273738.5264
  -5759175.15247  -4465597.71642  22848420.5384   22848420.4404
 -43617712.73049 -33970927.71745  20449923.3824   20449922.0304
 -20865408.67647 -16242808.84742  21815875.7024   21815875.8274
 -17266646.55548 -13437294.42842  22116802.0934   22116803.0814
 04  7 17  0 32 59.9950000  0  9G 1G13G20G23G16G19G27G 3G 8
 -89329211.31249 -69589908.92244  20348371.8194   20348370.6284
 -62340991.57049 -48560940.45346  19013495.1164   19013492.5234
 -76490023.70346 -59587567.03742  22437513.8824   22437515.5934
 -88592933.70348 -69016034.52245  20150621.2654   20150617.4684
 -58347090.75446 -45447828.23542  22271005.7734   22271003.2334
  -5946952.02347  -4611917.24742  22812687.6714   22812687.1084
 -43765687.73049 -34086232.87645  20421764.3514   20421763.5464
 -21010335.25047 -16355738.60542  21788296.9374   21788296.9444
 -17450590.39547 -13580627.15742  22081797.6014   22081799.6674
 04  7 17  0 33 29.9950000  0  9G 1G13G20G23G16G19G27G 3G 8
 -89379839.21549 -69629359.28745  20338737.3194   20338736.8664
 -62476587.66049 -48666599.74446  18987691.9294   18987689.1554
 -76487927.73846 -59585934.09442  22437912.4684   22437914.4994
 -88639453.00848 -69052283.37845  20141768.6164   20141764.8154
 -58361221.23046 -45458839.04742  22268316.7884   22268315.3824
  -6134617.91847  -4758150.30142  22776975.9604   22776975.7884
 -43913499.71949 -34201411.01345  20393636.8124   20393635.7734
 -21154791.10547 -16468301.57342  21760808.3984   21760808.0194
 -17634381.92247 -13723841.19842  22046823.7184   22046825.2884
 04  7 17  0 33 59.9950000  0  9G 1G13G20G23G16G19G27G 3G 8
 -89430134.32849 -69668550.34145  20329166.7414   20329165.7184
 -62611811.52749 -48771968.99446  18961959.8664   18961956.8234
 -76485750.70747 -59584237.84542  22438327.1554   22438328.5624
 -88685619.94948 -69088257.67545  20132983.4684   20132979.8514
 -58375122.58646 -45469671.38042  22265671.1944   22265669.2884
  -6322176.28147  -4904299.56142  22741284.7024   22741284.3434
 -44061155.39149 -34316467.34545  20365538.8274   20365537.3154
 -21298780.76246 -16580501.29242  21733407.6714   21733407.5424
 -17818027.37948 -13866941.44542  22011878.0384   22011878.4874
 04  7 17  0 34 29.9950000  0  9G 1G13G20G23G16G19G27G 3G 8
 -89480097.87549 -69707483.03145  20319658.6014   20319658.2804
 -62746662.20749 -48877047.45046  18936298.7024   18936296.0114
 -76483496.60246 -59582481.62942  22438756.3984   22438757.9524
 -88731435.81248 -69123958.40645  20124265.2804   20124261.4134
 -58388798.28946 -45480327.84942  22263068.1944   22263066.5194
  -6509625.23047  -5050363.58242  22705614.7184   22705614.3194
 -44208656.31649 -34431403.10345  20337470.5154   20337468.9374
 -21442303.20346 -16692336.92442  21706096.0074   21706095.9644
 -18001527.80548 -14009928.64342  21976958.5854   21976959.7884
 04  7 17  0 34 59.9950000  0  9G 1G13G20G23G16G19G27G 3G 8
 -89529728.13749 -69746156.01645  20310214.4054   20310214.2494
 -62881136.33249 -48981832.48546  18910708.9764   18910706.1554
 -76481166.15647 -59580665.89942  22439199.7804   22439201.8624
 -88776899.26648 -69159384.51045  20115613.7654   20115610.0734
 -58402249.16845 -45490809.18742  22260508.5774   22260507.2764
  -6696960.14847  -5196338.71342  22669965.4214   22669965.2064
 -44356000.84449 -34546217.00145  20309431.3984   20309430.6284
 -21585354.30947 -16803805.27142  21678874.5074   21678874.2104
 -18184881.29747 -14152801.36142  21942067.1634   21942068.1874
 04  7 17  0 35 29.9950000  0  9G 1G13G20G23G16G19G27G 3G 8
 -89579024.00849 -69784568.44344  20300833.8904   20300833.5974
 -63015230.97749 -49086321.82246  18885191.6634   18885188.9254
 -76478760.69146 -59578791.75342  22439657.6324   22439659.2884
 -88822009.42648 -69194535.33845  20107029.9134   20107025.9134
 -58415476.40646 -45501116.24442  22257992.3514   22257990.7924
  -6884176.43747  -5342221.44642  22634339.9054   22634339.1714
 -44503188.12949 -34660908.35445  20281422.6944   20281421.5974
 -21727930.65247 -16914903.71242  21651742.7574   21651743.2184
 -18368086.44948 -14295558.51043  21907204.0464   21907205.5384
 04  7 17  0 35 59.9950000  0  9G 1G13G20G23G16G19G27G 3G 8
 -89627985.83249 -69822720.56645  20291517.0154   20291516.2654
 -63148944.74249 -49190514.37346  18859747.0234   18859744.1124
 -76476283.65246 -59576861.77642  22440129.8194   22440131.3864
 -88866766.89548 -69229411.34445  20098513.1714   20098509.1054
 -58428482.60546 -45511251.04542  22255517.0384   22255516.4094
  -7071271.44947  -5488009.66342  22598736.4994   22598735.8784
 -44650218.77749 -34775477.66945  20253443.3904   20253442.5734
 -21870030.59047 -17025630.89942  21624702.2184   21624702.6754
 -18551143.74648 -14438200.42043  21872369.9134   21872370.4914
 04  7 17  0 36 29.9950000  0  9G 1G13G20G23G16G19G27G 3G 8
 -89676613.69149 -69860612.44845  20282263.6484   20282262.5304
 -63282276.40649 -49294409.18447  18834374.8044   18834371.9524
 -76473737.58247 -59574878.05942  22440613.8354   22440616.0464
 -88911171.98848 -69264012.77545  20090062.6014   20090058.9644
 -58441270.42646 -45521215.67842  22253084.5934   22253083.2024
  -7258242.08647  -5633700.99842  22563157.6324   22563156.3904
 -44797093.04749 -34889925.13045  20225494.4214   20225493.1284
 -22011652.12547 -17135985.30242  21597752.7414   21597752.3904
 -18734053.00848 -14580726.98342  21837562.5384   21837564.2184
 04  7 17  0 36 59.9950000  0  9G 1G13G20G23G16G19G27G 3G 8
 -89724914.68449 -69898249.65945  20273072.1324   20273071.4094
 -63415230.93749 -49398010.11246  18809074.1944   18809071.2264
 -76471132.07846 -59572847.99842  22441109.7414   22441112.1204
 -88955232.24248 -69298345.47445  20081678.4294   20081674.6364
 -58453849.44146 -45531017.54642  22250690.3584   22250689.1084
  -7445092.16047  -5779298.35242  22527601.1484   22527599.5624
 -44943818.05149 -35004256.28945  20197573.4994   20197571.9684
 -22152799.90247 -17245970.55942  21570893.2574   21570892.9404
 -18916820.66847 -14723143.21342  21802782.8194   21802784.6124
 04  7 17  0 37 29.9950000  0  9G 1G13G20G23G16G19G27G 3G 8
 -89772884.55149 -69935628.82845  20263943.7494   20263943.1944
 -63547802.07048 -49501312.30046  18783846.7574   18783843.7534
 -76468465.44146 -59570770.30842  22441617.0384   22441619.7064
 -88998943.66448 -69332406.38645  20073360.3664   20073357.1514
 -58466217.49246 -45540655.08642  22248336.6714   22248335.7884
  -7631814.33647  -5924796.02142  22492068.5774   22492067.2414
 -45090389.77349 -35118468.00445  20169681.8194   20169680.4564
 -22293467.37547 -17355581.56342  21544124.7024   21544125.1794
 -19099442.21548 -14865445.59442  21768031.5234   21768032.7574
 04  7 17  0 37 59.9950000  0  9G 1G13G20G23G16G19G27G 3G 8
 -89820523.73049 -69972750.32345  20254878.2024   20254877.4684
 -63679988.65249 -49604314.83746  18758692.3744   18758689.8784
 -76465740.71946 -59568647.34342  22442136.6014   22442138.6164
 -89042306.95748 -69366196.02445  20065108.6404   20065104.9834
 -58478377.48446 -45550130.52342  22246022.6484   22246022.3554
  -7818405.82447  -6070191.92142  22456561.5544   22456560.3044
 -45236808.80949 -35232560.73545  20141819.2574   20141818.3234
 -22433652.86747 -17464816.96642  21517448.3904   21517448.5624
 -19281918.14548 -15007634.50343  21733307.5544   21733308.6364
 04  7 17  0 38 29.9950000  0  9G 1G13G20G23G16G19G27G 3G 8
 -89867830.62949 -70009612.90644  20245875.8584   20245875.8744
 -63811787.53549 -49707015.26847  18733611.9524   18733608.9174
 -76462958.74246 -59566479.78242  22442666.0544   22442668.6164
 -89085320.52048 -69399713.14545  20056923.6714   20056919.8004
 -58490330.05147 -45559444.32542  22243749.0544   22243747.0814
  -8004861.53147  -6215481.91942  22421079.9684   22421078.9134
 -45383073.65649 -35346533.33045  20113985.6634   20113984.6484
 -22573352.65247 -17573673.91442  21490864.3824   21490864.3904
 -19464246.34848 -15149708.28643  21698611.0854   21698612.6714
 04  7 17  0 38 59.9950000  0  9G 1G13G20G23G16G19G27G 3G 8
 -89914804.75048 -70046216.16344  20236937.5464   20236936.7734
 -63943195.85549 -49809411.35846  18708605.7414   18708603.1054
 -76460121.29746 -59564269.04342  22443205.8664   22443207.7694
 -89127984.12548 -69432957.57045  20048805.0774   20048801.2764
 -58502076.61746 -45568597.55642  22241513.4054   22241512.0034
  -8191177.69947  -6360663.23042  22385625.3194   22385623.7224
 -45529183.64849 -35460385.25045  20086182.2654   20086180.8394
 -22712563.82047 -17682150.12342  21464373.6324   21464373.4764
 -19646425.64548 -15291666.03943  21663943.8194   21663944.8864
 04  7 17  0 39 29.9940000  0  9G 1G13G20G23G16G19G27G 3G 8
 -89961445.40648 -70082559.60045  20228061.9474   20228061.6784
 -64074208.69949 -49911499.29146  18683674.6974   18683672.2294
 -76457232.03146 -59562017.90242  22443756.2364   22443758.0454
 -89170297.69948 -69465929.25145  20040753.1114   20040749.4944
 -58513620.27346 -45577592.66142  22239316.3304   22239315.4514
  -8377346.04747  -6505729.35342  22350198.5964   22350196.9004
 -45675134.97349 -35574113.54545  20058408.5964   20058407.2794
 -22851280.44147 -17790240.98842  21437976.5254   21437976.6544
 -19828451.04348 -15433503.87943  21629305.3774   21629306.3544
 04  7 17  0 39 59.9940000  0  9G 1G13G20G23G16G19G27G 3G 8
 -90007759.83248 -70118648.82544  20219248.7524   20219248.3114
 -64204837.15249 -50013287.69846  18658817.1974   18658814.1904
 -76454297.68046 -59559731.58442  22444314.8074   22444316.9514
 -89212268.38348 -69498633.73145  20032766.5184   20032762.4944
 -58524968.25846 -45586435.37542  22237157.1584   22237156.1234
  -8563379.66047  -6650690.49542  22314797.1504   22314796.1194
 -45820941.80149 -35687729.22045  20030662.5804   20030660.9754
 -22989514.00447 -17897955.42242  21411671.3154   21411672.2134
 -20010338.10247 -15575233.91043  21594693.4474   21594694.2014
 04  7 17  0 40 29.9940000  0  9G 1G13G20G23G16G19G27G 3G 8
 -90053743.49248 -70154480.29844  20210498.1194   20210497.7834
 -64335071.94149 -50114769.35646  18634034.3224   18634031.8184
 -76451317.53146 -59557409.62342  22444881.7214   22444884.4944
 -89253892.13348 -69531067.88945  20024845.5804   20024841.8034
 -58536119.52746 -45595124.74142  22235034.9554   22235034.2834
  -8749266.20347  -6795537.05342  22279423.6904   22279422.6394
 -45966596.40249 -35801226.30245  20002945.5334   20002943.9904
 -23127254.70347 -18005285.80042  21385460.4324   21385460.6354
 -20192077.93448 -15716849.21243  21560109.5964   21560110.5494
 04  7 17  0 40 59.9940000  0  9G 1G13G20G23G16G19G27G 3G 8
 -90099402.65249 -70190058.93344  20201809.5654   20201808.9634
 -64464917.69949 -50215947.87646  18609325.2834   18609322.6274
 -76448300.38746 -59555058.83342  22445456.3934   22445457.9164
 -89295175.58648 -69563236.87545  20016989.7604   20016985.7094
 -58547082.44546 -45603667.39842  22232949.3224   22232948.3184
  -8935008.66447  -6940271.35142  22244078.5104   22244077.3614
 -46112104.97749 -35914609.58546  19975255.7524   19975254.3304
 -23264506.73447 -18112235.38042  21359341.9084   21359341.5454
 -20373675.76248 -15858353.87243  21525552.6354   21525553.3894
 04  7 17  0 41 29.9940000  0  9G 1G13G20G23G16G19G27G 3G 8
 -90144731.95348 -70225380.52344  20193184.1504   20193183.3384
 -64594367.38749 -50316817.75446  18584692.1194   18584689.3544
 -76445243.67246 -59552677.19442  22446037.7294   22446039.9474
 -89336113.65648 -69595136.73545  20009199.3304   20009195.5724
 -58557854.29746 -45612061.25742  22230899.6904   22230898.1974
  -9120598.40247  -7084886.57742  22208761.4794   22208760.5294
 -46257462.16849 -36027874.90945  19947595.2364   19947594.0804
 -23401262.67247 -18218798.42242  21333318.3384   21333318.0104
 -20555126.58248 -15999743.97743  21491023.3224   21491024.0924
 04  7 17  0 41 59.9940000  0  9G 1G13G20G23G16G19G27G 3G 8
 -90189733.68049 -70260446.86644  20184620.3614   20184619.6664
 -64723421.21949 -50417379.18446  18560133.8854   18560131.2524
 -76442151.86346 -59550268.27342  22446626.6194   22446628.3264
 -89376708.76248 -69626769.35645  20001474.9634   20001470.8774
 -58568439.05945 -45620309.18842  22228884.1744   22228884.1234
  -9306034.23447  -7229381.93942  22173474.7294   22173472.9944
 -46402670.34449 -36141024.11446  19919962.9714   19919961.7874
 -23537522.10547 -18324974.61342  21307389.6434   21307388.8224
 -20736432.24648 -16141020.97443  21456521.8384   21456522.4674
 04  7 17  0 42 29.9940000  0  9G 1G13G20G23G16G19G27G 3G 8
 -90234407.73448 -70295257.88644  20176119.4244   20176118.7174
 -64852077.22749 -50517630.62546  18535651.6904   18535648.8424
 -76439027.06246 -59547833.51642  22447221.2834   22447224.0144
 -89416961.20748 -69658134.94945  19993814.8224   19993811.1504
 -58578838.86345 -45628413.01042  22226906.2364   22226906.1114
  -9491312.81247  -7373754.73542  22138216.2444   22138215.3814
 -46547729.31249 -36254057.05245  19892359.3304   19892358.0024
 -23673283.27047 -18430762.47443  21281554.5334   21281553.8464
 -20917592.00847 -16282184.31043  21422047.9404   21422049.0064
 04  7 17  0 42 59.9940000  0  9G 1G13G20G23G16G19G27G 3G 8
 -90278755.28948 -70329814.47644  20167680.3694   20167679.8774
 -64980334.77749 -50617571.57246  18511245.2834   18511242.2484
 -76435873.02746 -59545376.10942  22447822.1354   22447824.2214
 -89456872.25048 -69689234.52145  19986220.1504   19986216.1394
 -58589056.99245 -45636375.29342  22224961.3384   22224961.1154
  -9676431.86347  -7518003.27442  22102989.5024   22102988.3184
 -46692640.25449 -36366974.63745  19864783.5334   19864781.9084
 -23808545.43047 -18536161.52542  21255815.5184   21255814.4904
 -21098606.67248 -16423234.51643  21387602.1974   21387602.9824
 04  7 17  0 43 29.9940000  0  9G 1G13G20G23G16G19G27G 3G 8
 -90322776.55548 -70364116.81344  20159303.2294   20159302.8814
 -65108192.26249 -50717200.77746  18486914.5724   18486911.6824
 -76432692.41846 -59542897.94642  22448426.8934   22448429.6114
 -89496442.58648 -69720068.59945  19978689.9084   19978685.8384
 -58599096.11746 -45644198.08242  22223051.7524   22223050.7214
  -9861388.39147  -7662125.09042  22067793.4634   22067791.8694
 -46837403.52749 -36479777.16045  19837236.0414   19837234.7404
 -23943306.44947 -18641170.05842  21230170.9084   21230170.6974
 -21279476.10548 -16564171.59743  21353182.9084   21353184.3734
 04  7 17  0 43 59.9940000  0  9G 1G13G20G23G16G19G27G 3G 8
 -90366473.69548 -70398166.60044  20150988.1114   20150987.3974
 -65235650.21149 -50816518.67646  18462659.6504   18462657.0454
 -76429489.82446 -59540402.68142  22449036.4714   22449039.4794
 -89535674.59848 -69750639.06145  19971224.6274   19971220.6154
 -58608960.44946 -45651884.66941  22221174.3614   22221173.6154
 -10046181.30147  -7806119.48542  22032629.1274   22032627.1194
 -46982021.33249 -36592466.32045  19809716.1824   19809714.7794
 -24077566.02347 -18745787.89743  21204622.0804   21204621.7444
 -21460202.37548 -16704997.14043  21318792.7524   21318793.2254
 04  7 17  0 44 29.9940000  0  9G 1G13G20G23G16G19G27G 3G 8
 -90409842.35248 -70431960.40744  20142735.4004   20142735.0534
 -65362702.14549 -50915520.18246  18438482.7994   18438480.2404
 -76426263.11346 -59537888.54742  22449651.0494   22449653.5654
 -89574564.11348 -69780942.63545  19963824.2134   19963820.6114
 -58618647.63745 -45659433.25142  22219330.7914   22219331.3574
 -10230802.71147  -7949980.19442  21997495.6434   21997494.7014
 -47126489.03949 -36705038.53145  19782224.5964   19782223.6704
 -24211317.91848 -18850010.12243  21179169.7294   21179169.4754
 -21640780.31248 -16845707.07443  21284429.8224   21284429.9824
 04  7 17  0 44 59.9940000  0  9G 1G13G20G23G16G19G27G 3G 8
 -90452889.18048 -70465503.42844  20134544.0964   20134543.1974
 -65489352.83249 -51014209.03146  18414382.0724   18414378.9674
 -76423021.08646 -59535362.52142  22450267.3224   22450270.6974
 -89613118.02348 -69810984.68745  19956487.7684   19956483.9434
 -58628166.46146 -45666850.63442  22217520.2444   22217519.2994
 -10415255.97346  -8093709.89542  21962395.9244   21962394.2724
 -47270813.07449 -36817498.77946  19754761.1744   19754759.3854
 -24344566.77347 -18953840.37743  21153813.3774   21153813.1354
 -21821216.46948 -16986306.54843  21250093.2364   21250094.2754
 04  7 17  0 45 29.9940000  0  9G 1G13G20G23G16G19G27G 3G 8
 -90495615.94948 -70498797.07444  20126413.2524   20126412.3544
 -65615602.38749 -51112585.31546  18390357.8614   18390354.4514
 -76419768.07046 -59532827.92242  22450887.2684   22450889.4904
 -89651338.46148 -69840766.89144  19949214.5724   19949210.9474
 -58637520.93446 -45674139.91842  22215739.5494   22215738.6154
 -10599539.29346  -8237307.17142  21927328.0254   21927325.9864
 -47414995.62949 -36929848.77445  19727323.8384   19727322.5334
 -24477312.42248 -19057278.51843  21128552.8854   21128552.7644
 -22001512.19948 -17126796.58343  21215784.1044   21215784.9404
 04  7 17  0 45 59.9940000  0  9G 1G13G20G23G16G19G27G 3G 8
 -90538021.75848 -70531840.63844  20118343.9714   20118343.3694
 -65741448.07049 -51210646.89746  18366409.9554   18366407.3344
 -76416505.71547 -59530286.10042  22451508.3074   22451510.6234
 -89689224.74648 -69870288.70745  19942005.3544   19942001.1044
 -58646712.27746 -45681302.02242  22213991.0104   22213990.8614
 -10783648.46146  -8380768.73242  21892293.0884   21892291.3344
 -47559035.43749 -37042087.56546  19699914.0964   19699912.7214
 -24609551.96947 -19160322.26643  21103388.0724   21103388.4634
 -22181666.08648 -17267176.09843  21181502.3544   21181502.8304
 04  7 17  0 46 29.9930000  0  9G 1G13G20G23G16G19G27G 3G 8
 -90580102.07848 -70564630.55544  20110336.2084   20110335.4894
 -65866880.69549 -51308386.61646  18342541.1534   18342537.6464
 -76413233.14847 -59527736.23342  22452131.3724   22452133.6964
 -89726773.10548 -69899547.22944  19934860.1304   19934856.3644
 -58655739.26246 -45688336.10842  22212273.7084   22212271.9894
 -10967570.96946  -8524084.87142  21857293.5524   21857292.3374
 -47702924.74249 -37154209.06045  19672532.9034   19672531.1104
 -24741275.83648 -19262964.22643  21078322.5284   21078321.9584
 -22361668.61348 -17407437.67543  21147247.7164   21147248.7594
 04  7 17  0 46 59.9930000  0  9G 1G13G20G23G16G19G27G 3G 8
 -90621857.70348 -70597167.45144  20102390.3414   20102389.7674
 -65991904.68449 -51405807.91147  18318749.3964   18318746.8334
 -76409950.45747 -59525178.50042  22452755.9504   22452758.9394
 -89763983.69548 -69928542.54944  19927778.7554   19927774.7594
 -58664601.98846 -45695242.25542  22210587.1224   22210586.4234
 -11151313.51246  -8667260.77742  21822327.7944   21822326.5564
 -47846670.55549 -37266218.75945  19645178.9274   19645177.3964
 -24872488.53547 -19365207.84743  21053352.5994   21053353.4234
 -22541529.39548 -17547588.80143  21113021.6074   21113022.6464
 04  7 17  0 47 29.9930000  0  9G 1G13G20G23G16G19G27G 3G 8
 -90663288.07048 -70629450.91644  20094506.1614   20094506.0604
 -66116514.68049 -51502906.61046  18295037.2004   18295034.1964
 -76406660.85547 -59522615.36142  22453382.4354   22453385.3494
 -89800856.87148 -69957274.93444  19920762.5524   19920758.7354
 -58673303.19946 -45702022.46442  22208930.9424   22208931.0484
 -11334867.31646  -8810289.61942  21787398.8414   21787397.5484
 -47990269.19949 -37378113.76745  19617852.5834   19617851.3494
 -25003184.68047 -19467048.97743  21028482.3644   21028482.7784
 -22721242.48848 -17687624.84843  21078823.3644   21078824.4314
 04  7 17  0 47 59.9930000  0  9G 1G13G20G23G16G19G27G 3G 8
 -90704397.25448 -70661484.09644  20086683.5834   20086683.3684
 -66240713.33249 -51599684.79946  18271402.8724   18271399.7554
 -76403370.62947 -59520051.79142  22454008.2164   22454011.6384
 -89837396.72348 -69985747.58444  19913809.0914   19913805.2004
 -58681849.09846 -45708681.69842  22207305.0444   22207304.4424
 -11518233.05947  -8953171.89042  21752505.7474   21752504.4824
 -48133724.33249 -37489896.96546  19590554.2244   19590552.9584
 -25133366.20347 -19568489.10543  21003710.2164   21003709.7394
 -22900811.19548 -17827548.39543  21044653.5284   21044653.3414
 04  7 17  0 48 29.9930000  0  9G 1G13G20G23G16G19G27G 3G 8
 -90745180.92248 -70693263.64244  20078923.1694   20078922.5604
 -66364494.09049 -51696137.34046  18247848.3334   18247845.3644
 -76400077.39146 -59517485.90442  22454635.4194   22454638.7474
 -89873599.00448 -70013957.20344  19906920.0054   19906916.1924
 -58690237.26246 -45715218.02742  22205708.6384   22205708.4074
 -11701402.76647  -9095901.45243  21717649.8334   21717647.9894
 -48277031.46549 -37601564.82845  19563283.8024   19563282.1224
 -25263026.78947 -19669523.30943  20979035.8804   20979036.0604
 -23080231.04748 -17967355.94943  21010510.4114   21010510.6074
 04  7 17  0 48 59.9930000  0  9G 1G13G20G23G16G19G27G 3G 8
 -90785646.05148 -70724794.96144  20071222.7864   20071222.0954
 -66487862.36349 -51792268.45446  18224372.2394   18224368.9974
 -76396790.62546 -59514924.98042  22455260.9974   22455263.7824
 -89909471.37948 -70041909.75444  19900093.7944   19900089.9664
 -58698477.00846 -45721638.78942  22204141.2164   22204140.0604
 -11884380.29746  -9238481.20543  21682829.7394   21682828.7354
 -48420197.65649 -37713122.86245  19536039.8494   19536038.6774
 -25392171.52347 -19770155.53143  20954461.0364   20954460.6534
 -23259508.97748 -18107052.92843  20976394.6924   20976394.9584
 04  7 17  0 49 29.9930000  0  9G 1G13G20G23G16G19G27G 3G 8
 -90825791.34848 -70756077.07544  20063583.2324   20063583.2124
 -66610814.58649 -51888075.39147  18200975.0914   18200971.9854
 -76393511.28147 -59512369.81241  22455885.2784   22455887.6424
 -89945012.69548 -70069604.33944  19893330.6854   19893326.4824
 -58706568.46946 -45727943.91442  22202601.1614   22202600.6734
 -12067160.80147  -9380907.48843  21648048.7004   21648046.9464
 -48563221.16449 -37824569.71845  19508823.6224   19508822.4624
 -25520797.08247 -19870383.20843  20929984.5524   20929984.7554
 -23438642.63348 -18246637.44143  20942306.6694   20942307.1264
 04  7 17  0 49 59.9930000  0  9G 1G13G20G23G16G19G27G 3G 8
 -90865617.21148 -70787110.27044  20056004.6384   20056003.9934
 -66733349.24649 -51983556.94446  18177657.1464   18177654.2824
 -76390241.71946 -59509822.33442  22456507.2324   22456510.0954
 -89980223.45748 -70097041.35544  19886629.8644   19886626.3374
 -58714514.07446 -45734135.37542  22201088.6074   22201088.2634
 -12249741.03147  -9523177.69143  21613304.5604   21613302.6384
 -48706102.30549 -37935905.65445  19481634.1854   19481632.5754
 -25648901.74247 -19970204.97443  20905606.2784   20905606.9424
 -23617632.05948 -18386109.59443  20908245.7004   20908246.2714
 04  7 17  0 50 29.9930000  0  9G 1G13G20G23G16G19G27G 3G 8
 -90905122.67648 -70817893.81644  20048487.1074   20048486.6854
 -66855463.86349 -52078711.19347  18154419.9894   18154417.1424
 -76386983.40246 -59507283.55141  22457127.8414   22457131.5094
 -90015103.10548 -70124220.34644  19879992.8254   19879988.9664
 -58722315.12546 -45740214.21342  22199604.8644   22199604.1464
 -12432116.62946  -9665288.41943  21578598.3174   21578597.9464
 -48848839.85949 -38047129.68845  19454472.2324   19454470.4234
 -25776482.76247 -20069618.73043  20881328.2714   20881328.4114
 -23796476.12548 -18525468.50043  20874212.4664   20874213.6304
 04  7 17  0 50 59.9930000  0  9G 1G13G20G23G16G19G27G 3G 8
 -90944309.66448 -70848429.18544  20041030.1074   20041030.0834
 -66977158.16049 -52173537.92646  18131262.1464   18131259.1814
 -76383740.25446 -59504756.67241  22457745.0994   22457748.4154
 -90049653.79348 -70151143.01544  19873418.0994   19873413.9354
 -58729975.24646 -45746183.21042  22198148.0444   22198146.4854
 -12614286.01647  -9807238.51243  21543933.1534   21543931.7514
 -48991435.60549 -38158243.22846  19427336.9274   19427335.5014
 -25903540.02047 -20168624.34943  20857150.0054   20857150.8144
 -23975175.62548 -18664714.74343  20840207.0994   20840207.7944
 04  7 17  0 51 29.9930000  0  9G 1G13G20G23G16G19G27G 3G 8
 -90983176.03548 -70878714.72444  20033634.1144   20033633.7044
 -67098428.33649 -52268034.17146  18108185.2244   18108182.3254
 -76380512.27046 -59502241.58441  22458359.1854   22458362.1304
 -90083873.53548 -70177807.81245  19866906.7084   19866902.7864
 -58737494.09045 -45752042.20142  22196717.1384   22196716.4314
 -12796243.45747  -9949023.44043  21509307.8724   21509306.2944
 -49133887.00449 -38269244.29846  19400229.4194   19400228.1924
 -26030069.43047 -20267218.68343  20833072.7474   20833072.4624
 -24153728.53148 -18803846.78143  20806229.9894   20806230.4114
 04  7 17  0 51 59.9930000  0  9G 1G13G20G23G16G19G27G 3G 8
 -91021723.73848 -70908751.95044  20026298.9664   20026298.8064
 -67219274.40649 -52362199.93946  18085188.9504   18085185.9504
 -76377303.60246 -59499741.49742  22458970.2324   22458973.2354
 -90117764.68048 -70204216.54444  19860457.5524   19860453.0714
 -58744875.67245 -45757794.23042  22195312.4194   22195311.1854
 -12977987.30947 -10090641.91343  21474723.1774   21474721.3454
 -49276195.87949 -38380134.30545  19373149.1144   19373147.4784
 -26156070.84847 -20365401.59243  20809095.8724   20809095.2744
 -24332135.76648 -18942865.29843  20772280.3574   20772280.4034
 04  7 17  0 52 29.9930000  0  9G 1G13G20G23G16G19G27G 3G 8
 -91059959.54748 -70938546.15144  20019022.7864   20019022.9544
 -67339701.13749 -52456038.95147  18062272.6224   18062269.7824
 -76374123.05146 -59497263.34141  22459574.6304   22459578.8294
 -90151334.24648 -70230374.69944  19854069.2244   19854065.2324
 -58752128.63745 -45763446.10042  22193931.4974   22193931.2714
 -13159520.91447 -10232096.56343  21440178.6384   21440177.1384
 -49418368.79349 -38490918.37446  19346094.2864   19346092.5834
 -26281549.47347 -20463177.11143  20785217.7634   20785217.3844
 -24510403.52048 -19081775.16443  20738357.0674   20738356.8534
 04  7 17  0 52 59.9930000  0  9G 1G13G20G23G16G19G27G 3G 8
 -91097876.69548 -70968092.04644  20011807.5134   20011807.3644
 -67459700.00849 -52549544.56046  18039437.4354   18039434.4704
 -76370966.10245 -59494803.55941  22460176.2864   22460179.6574
 -90184575.73048 -70256277.22044  19847743.7944   19847739.8764
 -58759247.85946 -45768993.52242  22192577.8414   22192576.0644
 -13340834.24646 -10373379.55143  21405675.5994   21405674.1924
 -49560398.48849 -38601590.84446  19319067.1924   19319065.5524
 -26406496.62947 -20560538.52243  20761440.8024   20761441.2044
 -24688524.41447 -19220570.56243  20704461.1694   20704461.5134
 04  7 17  0 53 29.9930000  0  9G 1G13G20G23G16G19G27G 3G 8
 -91135476.11748 -70997390.35744  20004652.7944   20004652.6574
 -67579270.13349 -52642716.07947  18016684.2164   18016681.1304
 -76367835.69945 -59492364.54141  22460772.3334   22460775.6964
 -90217490.11348 -70281924.84244  19841480.5054   19841476.4424
 -58766236.61745 -45774439.50841  22191247.1694   22191246.9854
 -13521924.48447 -10514488.71343  21371214.5754   21371213.0644
 -49702285.88349 -38712152.43645  19292066.6224   19292065.0674
 -26530911.28547 -20657484.96843  20737765.7324   20737765.7434
 -24866499.11348 -19359252.05243  20670594.0214   20670594.0444
 04  7 17  0 53 59.9920000  0  9G 1G13G20G23G16G19G27G 3G 8
 -91172757.39548 -71026440.77244  19997558.5944   19997558.0664
 -67698406.41049 -52735549.54347  17994013.2194   17994010.5354
 -76364734.92644 -59489948.54441  22461361.5704   22461365.6174
 -90250077.65648 -70307317.80144  19835278.9924   19835275.2074
 -58773096.80146 -45779785.29742  22189942.5634   22189942.4224
 -13702782.92646 -10655417.27443  21336798.9614   21336797.0904
 -49844026.72349 -38822599.81846  19265094.3204   19265092.7504
 -26654787.92247 -20754012.20343  20714192.7274   20714192.4964
 -25044321.82848 -19497815.11643  20636755.5314   20636755.3484
 04  7 17  0 54 29.9920000  0  9G 1G13G20G23G16G19G27G 3G 8
 -91209723.15648 -71055245.32244  19990523.9224   19990523.2854
 -67817114.94549 -52828049.70346  17971423.5554   17971420.8794
 -76361665.57044 -59487557.03141  22461946.2504   22461949.9614
 -90282341.00048 -70332458.12944  19829139.5704   19829135.7424
 -58779831.11346 -45785032.87342  22188661.3524   22188660.4884
 -13883418.28147 -10796171.99742  21302424.9534   21302423.0864
 -49985630.23849 -38932940.20545  19238148.3134   19238146.5664
 -26778133.38348 -20850125.51943  20690721.0784   20690720.7344
 -25222003.75848 -19636268.46943  20602943.5944   20602943.5634
 04  7 17  0 54 59.9920000  0  9G 1G13G20G23G16G19G27G 3G 8
 -91246376.18448 -71083806.19844  19983549.4144   19983548.8134
 -67935394.00449 -52920215.19547  17948916.0004   17948913.0824
 -76358633.87544 -59485194.90441  22462523.3134   22462527.4144
 -90314283.28548 -70357348.27344  19823061.1254   19823057.1374
 -58786444.95746 -45790186.67542  22187402.3364   22187402.6684
 -14063824.99647 -10936748.55143  21268094.3994   21268092.7504
 -50127095.36349 -39043172.74546  19211228.1414   19211226.3324
 -26900945.74648 -20945823.44243  20667350.4384   20667349.9964
 -25399542.68747 -19774610.40443  20569158.9304   20569158.9774
 04  7 17  0 55 29.9920000  0  8G 1G13G23G16G19G27G 3G 8
 -91282716.36348 -71112123.28144  19976634.0864   19976633.8204
 -68053241.69949 -53012044.56646  17926490.2274   17926487.6454
 -90345904.77348 -70381988.45544  19817043.9304   19817040.0354
 -58792940.15246 -45795248.01142  22186166.2664   22186166.0864
 -14243999.22746 -11077143.96142  21233808.1954   21233805.8054
 -50268421.64849 -39153297.10446  19184334.6884   19184332.9774
 -27023223.23048 -21041104.57343  20644081.9844   20644081.0784
 -25576938.06648 -19912840.50543  20535401.7274   20535401.7034
 04  7 17  0 55 59.9920000  0  8G 1G13G23G16G19G27G 3G 8
 -91318738.55148 -71140192.57344  19969779.1804   19969778.8754
 -68170650.95349 -53103532.29247  17904148.0634   17904145.0394
 -90377200.42648 -70406374.75744  19811088.9064   19811084.9574
 -58799313.10547 -45800214.12642  22184954.0554   22184953.5824
 -14423932.13347 -11217351.32342  21199568.2814   21199566.5084
 -50409603.52749 -39263308.93946  19157468.2114   19157467.1134
 -27144958.66847 -21135963.32343  20620916.5474   20620915.7114
 -25754183.56248 -20050953.78143  20501673.1334   20501673.2974
 04  7 17  0 56 29.9920000  0  8G 1G13G23G16G19G27G 3G 8
 -91354434.33248 -71168007.54744  19962986.4064   19962986.3954
 -68287610.98449 -53194669.98347  17881891.0084   17881888.2774
 -90408161.79748 -70430500.56344  19805196.7744   19805193.2504
 -58805557.07847 -45805079.70742  22183766.1174   22183765.2424
 -14603611.77747 -11357361.32642  21165376.2344   21165374.0474
 -50550631.94949 -39373201.19046  19130631.7504   19130630.1024
 -27266141.85248 -21230391.76643  20597856.3444   20597855.3674
 -25931270.05948 -20188943.18243  20467974.3674   20467974.7074
 04  7 17  0 56 59.9920000  0  8G 1G13G23G16G19G27G 3G 8
 -91389802.36748 -71195567.12444  19956255.9694   19956255.8954
 -68404118.87549 -53285455.34646  17859720.5084   17859717.5514
 -90438787.97348 -70454365.18944  19799369.3914   19799365.3284
 -58811672.43046 -45809845.02442  22182601.8204   22182601.7934
 -14783033.38746 -11497170.26042  21131233.5864   21131231.0394
 -50691505.55949 -39482972.81546  19103824.1094   19103822.5434
 -27386769.46948 -21324387.28843  20574901.1024   20574901.1954
 -26108196.16447 -20326807.60143  20434306.9694   20434306.7464
 04  7 17  0 57 29.9920000  0  8G 1G13G23G16G19G27G 3G 8
 -91424847.57048 -71222875.14344  19949587.3134   19949587.5084
 -68520177.69149 -53375890.77846  17837635.1174   17837632.2744
 -90469084.42248 -70477972.87044  19793604.0634   19793600.4814
 -58817665.99247 -45814515.48142  22181461.6954   22181461.5744
 -14962198.23046 -11636779.13143  21097139.4064   21097137.1524
 -50832228.66849 -39592627.15746  19077045.6724   19077044.0704
 -27506844.84847 -21417952.50443  20552051.6414   20552050.9614
 -26284965.64548 -20464549.96643  20400668.5164   20400668.3134
 04  7 17  0 57 59.9920000  0  8G 1G13G23G16G19G27G 3G 8
 -91459568.80148 -71249930.72144  19942980.3524   19942979.7584
 -68635784.38749 -53465973.92546  17815635.6884   17815632.9774
 -90499050.31248 -70501322.97044  19787901.6644   19787897.9844
 -58823538.32846 -45819091.48241  22180344.4144   22180344.7074
 -15141101.54347 -11776184.22042  21063095.4614   21063092.7934
 -50972799.82449 -39702163.11346  19050295.4144   19050293.9694
 -27626364.94148 -21511085.02143  20529308.0084   20529307.2314
 -26461576.99248 -20602169.13743  20367060.1884   20367060.3564
 04  7 17  0 58 29.9920000  0  8G 1G13G23G16G19G27G 3G 8
 -91493970.45348 -71276737.26743  19936434.1564   19936433.5084
 -68750941.50049 -53555706.72346  17793722.3914   17793719.4184
 -90528689.88748 -70524418.81444  19782261.5704   19782257.7504
 -58829295.55546 -45823577.84842  22179249.0244   22179248.0984
 -15319744.21547 -11915386.21542  21029100.5474   21029098.2464
 -51113222.98049 -39811583.73446  19023574.0634   19023572.5594
 -27745332.39848 -21603786.92043  20506669.3594   20506668.4844
 -26638033.49248 -20739667.61643  20333481.4144   20333481.9224
 04  7 17  0 58 59.9920000  0  8G 1G13G23G16G19G27G 3G 8
 -91528059.30548 -71303300.09844  19929946.8994   19929947.1374
 -68865654.02749 -53645093.10846  17771893.4454   17771890.6524
 -90558010.42248 -70547266.04144  19776681.9384   19776678.2854
 -58834945.71946 -45827980.77042  22178174.2744   22178174.2194
 -15498129.36747 -12054387.52442  20995154.5164   20995152.6024
 -51253504.50449 -39920894.00545  18996879.2274   18996877.6844
 -27863752.48447 -21696062.30843  20484134.7974   20484133.4104
 -26814341.89848 -20877050.73343  20299930.9454   20299930.9694
 04  7 17  0 59 29.9920000  0  8G 1G13G23G16G19G27G 3G 8
 -91561834.71948 -71329618.67044  19923520.0394   19923519.9574
 -68979919.51649 -53734131.15646  17750149.1334   17750146.4884
 -90587011.60548 -70569864.44144  19771163.3914   19771159.6024
 -58840489.98446 -45832301.14941  22177119.0634   22177118.6134
 -15676252.74647 -12193184.87642  20961259.2814   20961256.4814
 -51393643.18049 -40030092.95446  18970211.6954   18970210.4264
 -27981622.77347 -21787909.27743  20461704.5164   20461703.7774
 -26990500.59048 -21014317.18243  20266409.1644   20266409.1994
 04  7 17  0 59 59.9920000  0  8G 1G13G23G16G19G27G 3G 8
 -91595296.52048 -71355692.87244  19917152.3674   19917152.1494
 -69093735.47749 -53822818.91747  17728490.7194   17728487.8674
 -90615693.18448 -70592213.77844  19765705.0704   19765701.6024
 -58845929.67246 -45836540.13741  22176083.9614   22176083.8364
 -15854110.41846 -12331775.17142  20927413.2504   20927411.3794
 -51533638.37949 -40139180.10746  18943571.3754   18943569.9614
 -28098940.97747 -21879326.03143  20439379.2424   20439378.5084
 -27166508.27748 -21151465.94143  20232915.8444   20232916.1994
 04  7 17  1  0 29.9920000  0  8G 1G13G23G16G19G27G 3G 8
 -91628444.69948 -71381522.69543  19910844.7344   19910844.5744
 -69207100.14149 -53911155.01746  17706918.1804   17706915.5434
 -90644055.54348 -70614314.40544  19760308.0704   19760304.5164
 -58851266.49646 -45840698.76841  22175068.6094   22175068.5864
 -16031698.68047 -12470155.53642  20893619.7194   20893617.5784
 -51673489.54749 -40248155.03146  18916958.8594   18916957.1414
 -28215705.43447 -21970311.31643  20417160.0244   20417159.1294
 -27342364.60248 -21288496.75043  20199451.0704   20199451.3594
 04  7 17  1  0 59.9910000  0  8G 1G13G23G16G19G27G 3G 8
 -91661283.91848 -71407111.77544  19904595.9014   19904595.5344
 -69320013.90649 -53999139.76447  17685431.5424   17685428.5584
 -90672103.96148 -70636170.37544  19754970.9174   19754967.4374
 -58856507.46146 -45844782.70942  22174071.9254   22174071.2574
 -16209013.70747 -12608322.99543  20859878.0344   20859875.7264
 -51813197.33249 -40357018.22746  18890373.2224   18890371.7374
 -28331916.52047 -22060865.40643  20395045.4564   20395045.2654
 -27518068.76648 -21425409.00843  20166016.3314   20166015.7844
 04  7 17  1  1 29.9910000  0  8G 1G13G23G16G19G27G 3G 8
 -91693813.25848 -71432459.38543  19898405.5504   19898405.2764
 -69432478.95349 -54086774.87947  17664030.0664   17664027.2924
 -90699837.20348 -70657780.75944  19749693.4874   19749689.6714
 -58861651.39545 -45848790.99841  22173092.4874   22173092.0734
 -16386060.69546 -12746281.59543  20826186.9174   20826184.4804
 -51952767.25049 -40465773.99746  18863814.1204   18863812.4874
 -28447577.21147 -22150990.61343  20373035.6834   20373035.3624
 -27693628.50847 -21562208.73043  20132608.2614   20132608.1514
 04  7 17  1  1 59.9910000  0  8G 1G13G23G16G19G27G 3G 8
 -91726029.13748 -71457562.74343  19892275.0344   19892275.1084
 -69544486.89149 -54174053.78946  17642715.5894   17642712.3354
 -90727252.06648 -70679143.06844  19744476.8234   19744473.1634
 -58866696.97756 -45852722.78852  22172131.9804   22172132.4834
 -16562827.44947 -12884021.86943  20792548.9724   20792547.3624
 -52092191.45349 -40574416.21846  18837282.5424   18837280.8274
 -28562679.37548 -22240680.59843  20351133.5114   20351132.2374
 -27869034.12548 -21698888.35243  20099229.6984   20099229.3314
 04  7 17  1  2 29.9910000  0  8G 1G13G23G16G19G27G 3G 8
 -91757940.28548 -71482428.66243  19886202.6594   19886202.7574
 -69656045.02749 -54260982.21747  17621486.7534   17621483.9954
 -90754357.64548 -70700264.36144  19739318.6914   19739315.1324
 -58871654.45746 -45856585.81141  22171188.7454   22171188.8434
 -16739319.01646 -13021547.66743  20758964.0114   20758961.6164
 -52231478.50849 -40682951.57446  18810777.1204   18810775.4174
 -28677230.07448 -22329940.87243  20329334.9254   20329333.8164
 -28044294.39847 -21835454.71343  20065878.3624   20065878.7224
 04  7 17  1  2 59.9910000  0  7G 1G13G23G19G27G 3G 8
 -91789542.40248 -71507053.74743  19880189.0194   19880189.4834
 -69767147.32449 -54347555.42647  17600344.5814   17600341.9874
 -90781149.84448 -70721141.48544  19734220.2694   19734216.6634
 -16915527.65647 -13158853.02243  20725432.4804   20725430.0544
 -52370623.36749 -40791376.12646  18784298.6364   18784297.1714
 -28791223.29747 -22418766.74043  20307641.9874   20307641.9764
 -28219404.32848 -21971903.92444  20032556.3164   20032556.0814
 04  7 17  1  3 29.9910000  0  7G 1G13G23G19G27G 3G 8
 -91820836.69548 -71531438.99843  19874233.6444   19874234.3194
 -69877792.73049 -54433772.63747  17579289.7764   17579286.5034
 -90807630.42648 -70741775.76444  19729181.3084   19729177.7924
 -17091450.87148 -13295935.95343  20691955.4334   20691952.7734
 -52509626.71949 -40899690.42646  18757847.0194   18757845.2804
 -28904658.75847 -22507158.03843  20286056.2764   20286056.2844
 -28394363.98448 -22108236.05644  19999262.3864   19999261.7264
 04  7 17  1  3 59.9910000  0  7G 1G13G23G19G27G 3G 8
 -91851811.34848 -71555575.18143  19868339.4414   19868339.6204
 -69987967.45748 -54519623.07846  17558324.3314   17558321.1834
 -90833787.46148 -70762157.93644  19724203.8164   19724200.2844
 -17267073.15648 -13432784.38943  20658535.4564   20658533.3394
 -52648475.96148 -41007884.62846  18731425.0114   18731423.2304
 -29017522.59047 -22595103.87643  20264579.2844   20264578.5034
 -28569160.39548 -22244440.96343  19965999.3704   19965999.3824
 04  7 17  1  4 29.9910000  0  7G 1G13G23G19G27G 3G 8
 -91882468.35248 -71579463.84343  19862506.0974   19862506.2304
 -70097671.97748 -54605107.12546  17537448.1364   17537445.1484
 -90859623.56648 -70782290.04944  19719287.3554   19719284.2534
 -17442392.82047 -13569397.04343  20625173.0194   20625171.0544
 -52787172.69549 -41115959.98846  18705032.0344   18705030.6324
 -29129815.61747 -22682604.90943  20243210.5264   20243209.9804
 -28743795.31648 -22380520.04143  19932767.8314   19932767.4174
 04  7 17  1  4 59.9910000  0  7G 1G13G23G19G27G 3G 8
 -91912807.04348 -71603104.45743  19856732.5584   19856732.6914
 -70206903.62549 -54690222.70247  17516662.0034   17516658.9254
 -90885137.91048 -70802171.42044  19714432.4484   19714428.7494
 -17617405.46147 -13705770.46043  20591869.2064   20591866.8514
 -52925715.69149 -41223915.56146  18678667.9724   18678666.3044
 -29241535.69948 -22769659.50143  20221950.8784   20221949.9214
 -28918267.34848 -22516472.18344  19899566.5344   19899566.1244
 04  7 17  1  5 29.9910000  0  7G 1G13G23G19G27G 3G 8
 -91942832.62948 -71626501.10543  19851019.2764   19851019.1554
 -70315665.50049 -54774972.21547  17495965.8864   17495962.1444
 -90910336.08248 -70821806.44644  19709637.4724   19709634.1514
 -17792112.49647 -13841905.71043  20558624.1594   20558621.7144
 -53064109.18749 -41331754.63146  18652332.5344   18652330.8194
 -29352686.25848 -22856270.35443  20200799.3554   20200798.8584
 -29092580.00448 -22652300.15544  19866396.3234   19866395.7924
 04  7 17  1  5 59.9910000  0  8G 1G13G28G23G19G27G 3G 8
 -91972548.44148 -71649656.36943  19845364.4414   19845364.7654
 -70423959.16449 -54859356.88946  17475357.8084   17475354.9134
   -325796.71156   -218820.20252  21948535.5894   21948540.9764
 -90935221.62548 -70841197.85744  19704901.7764   19704898.4724
 -17966513.71147 -13977802.68643  20525436.0814   20525433.7764
 -53202355.79749 -41439479.24446  18626025.3554   18626023.7144
 -29463269.07847 -22942438.77443  20179756.0894   20179755.6484
 -29266736.40248 -22788006.34444  19833254.8234   19833255.1554
 04  7 17  1  6 29.9910000  0  9G 1G13G28G23G10G19G27G 3G 8
 -92001974.16448 -71672585.59143  19839764.6444   19839764.6714
 -70531802.40649 -54943390.59047  17454835.7304   17454832.9374
   -536305.69146   -382852.73341  21908476.6914   21908482.5114
 -90959814.46148 -70860361.18744  19700221.6754   19700218.7964
   -285069.62957   -191482.77552  21849576.0974   21849576.4094
 -18140624.75447 -14113473.54743  20492304.0344   20492301.8704
 -53340474.71949 -41547104.36246  18599741.9874   18599740.6634
 -29573302.12147 -23028178.81443  20158817.9014   20158816.9604
 -29440755.25448 -22923605.38944  19800140.1284   19800139.5624
 04  7 17  1  6 59.9910000  0  9G 1G13G28G23G10G19G27G 3G 8
 -92031125.56648 -71695301.05043  19834217.8314   19834217.8704
 -70639209.23049 -55027084.22846  17434396.7454   17434394.3824
   -746714.19946   -546807.02341  21868437.5814   21868442.4874
 -90984130.50448 -70879308.84644  19695594.9334   19695591.5154
   -468879.17247   -334710.88042  21814597.4014   21814598.6634
 -18314458.03947 -14248927.99143  20459224.3314   20459221.9014
 -53478480.84449 -41654641.58346  18573480.5664   18573478.6754
 -29682799.74247 -23113501.63743  20137981.3314   20137980.2764
 -29614651.08248 -23059108.55144  19767049.2144   19767049.0234
 04  7 17  1  7 29.9910000  0  9G 1G13G28G23G10G19G27G 3G 8
 -92059998.45748 -71717799.49243  19828723.8944   19828723.7614
 -70746173.48448 -55110433.01047  17414042.2764   17414039.5934
   -957015.68446   -710677.90541  21828417.9874   21828422.3474
 -91008166.14148 -70898037.97744  19691020.7064   19691017.3164
   -652303.90246   -477639.27242  21779693.7224   21779693.1164
 -18488005.68747 -14384159.84543  20426199.1674   20426196.9444
 -53616369.50048 -41762087.27946  18547241.0034   18547239.3514
 -29791756.41447 -23198402.94943  20117247.2614   20117246.6634
 -29788419.08648 -23194512.12244  19733982.1754   19733981.6084
 04  7 17  1  7 59.9910000  0  9G 1G13G28G23G10G19G27G 3G 8
 -92088590.98848 -71740079.48243  19823282.8474   19823282.9834
 -70852691.44148 -55193434.02647  17393772.7924   17393769.8234
  -1167205.32846   -874461.62441  21788419.3164   21788424.1124
 -91031919.47748 -70916547.16344  19686501.0264   19686497.8124
   -835338.98846   -620263.99342  21744863.3474   21744864.2104
 -18661261.91847 -14519164.60943  20393229.7454   20393227.5234
 -53754137.98448 -41869439.33246  18521024.5504   18521022.9604
 -29900168.55947 -23282879.94643  20096616.9174   20096616.5234
 -29962056.80948 -23329814.17544  19700940.1124   19700939.3664
 04  7 17  1  8 29.9900000  0  9G 1G13G28G23G10G19G27G 3G 8
 -92116896.06248 -71762135.48243  19817896.3894   19817896.3224
 -70958751.75848 -55276078.43946  17373590.2324   17373587.3384
  -1377267.46547  -1038145.91541  21748446.0294   21748450.5654
 -91055383.80548 -70934831.14944  19682035.9514   19682032.2754
  -1017969.05547   -762573.12842  21710109.3424   21710110.0844
 -18834211.04347 -14653930.08343  20360318.0844   20360316.1974
 -53891774.77049 -41976688.76846  18494833.0294   18494831.7834
 -30008025.19946 -23366924.08143  20076092.6154   20076091.9714
 -30135551.41848 -23465004.74044  19667925.2644   19667924.6584
 04  7 17  1  8 59.9900000  0  9G 1G13G28G23G10G19G27G 3G 8
 -92144910.58248 -71783965.06643  19812565.6784   19812565.5064
 -71064354.33649 -55358366.16946  17353494.5844   17353491.7054
  -1587208.65246  -1201735.97541  21708495.1934   21708499.4474
 -91078556.06648 -70952887.53744  19677626.2724   19677623.3154
  -1200198.08247   -904569.73742  21675432.2254   21675432.8544
 -19006855.96147 -14788458.51643  20327464.5844   20327462.8694
 -54029283.37949 -42083838.32146  18468666.1784   18468664.2754
 -30115326.65647 -23450535.64243  20055673.7724   20055673.5374
 -30308908.08248 -23600087.79444  19634936.1934   19634935.9124
 04  7 17  1  9 29.9900000  0  9G 1G13G28G23G10G19G27G 3G 8
 -92172633.59048 -71805567.49743  19807290.1004   19807290.3654
 -71169493.86348 -55440293.08446  17333487.3424   17333484.4404
  -1797019.19946  -1365224.26241  21668568.8424   21668573.2794
 -91101435.55948 -70970715.80144  19673272.5924   19673269.4864
  -1382016.74647  -1046246.59642  21640833.7254   21640833.8654
 -19179187.32847 -14922742.61643  20294671.6234   20294669.1114
 -54166658.36748 -42190883.75546  18442524.4284   18442522.7524
 -30222068.17646 -23533710.82543  20035361.3734   20035360.5924
 -30482120.29748 -23735058.28844  19601974.6934   19601974.5684
 04  7 17  1  9 59.9900000  0  9G 1G13G28G23G10G19G27G 3G 8
 -92200066.60248 -71826943.94243  19802069.9124   19802069.8694
 -71274170.00449 -55521858.92446  17313568.2794   17313565.0494
  -2006698.13746  -1528609.95642  21628667.4824   21628672.4324
 -91124024.22348 -70988317.43944  19668974.4434   19668971.0294
  -1563423.60947  -1187602.58142  21606312.9434   21606313.3734
 -19351202.87147 -15056780.64543  20261937.9594   20261935.7724
 -54303900.33649 -42297825.54046  18416408.1154   18416406.5684
 -30328249.66847 -23616449.68543  20015155.8264   20015155.2014
 -30655188.98848 -23869916.94744  19569041.3974   19569040.6274
 04  7 17  1 10 29.9900000  0  9G 1G13G28G23G10G19G27G 3G 8
 -92227211.72348 -71848096.07243  19796904.1624   19796904.0224
 -71378382.99249 -55603063.87147  17293736.9284   17293734.0964
  -2216244.71146  -1691892.56341  21588792.3264   21588796.4004
 -91146324.11348 -71005694.08043  19664731.0144   19664727.7874
  -1744417.30947  -1328636.60042  21571870.6004   21571871.8304
 -19522900.75846 -15190571.14943  20229264.8504   20229262.4984
 -54441010.62149 -42404664.71446  18390317.1934   18390315.2404
 -30433871.66446 -23698752.54743  19995056.6624   19995056.5184
 -30828114.91047 -24004664.35744  19536134.1544   19536133.7564
 04  7 17  1 10 59.9900000  0  9G 1G13G28G23G10G19G27G 3G 8
 -92254065.20348 -71869020.96843  19791794.4904   19791794.5804
 -71482127.35549 -55683903.64047  17273995.3504   17273992.0224
  -2425652.72746  -1855067.19441  21548942.7014   21548946.9204
 -91168332.15248 -71022843.28144  19660542.7404   19660539.7174
  -1924991.07847  -1469343.40842  21537509.3114   21537509.5654
 -19694273.73847 -15324108.46643  20196653.9124   20196651.7954
 -54577984.84849 -42511397.86646  18364251.3654   18364250.2254
 -30538929.19947 -23780615.54043  19975065.1154   19975064.6394
 -31000893.50448 -24139296.97744  19503255.7094   19503255.2324
 04  7 17  1 11 29.9900000  0  9G 1G13G28G23G10G19G27G 3G 8
 -92280627.26248 -71889718.76943  19786739.7324   19786739.7364
 -71585401.20349 -55764376.78247  17254342.7724   17254339.9364
  -2634919.68446  -2018131.89141  21509120.7324   21509124.2874
 -91190048.55548 -71039765.24144  19656410.3974   19656407.5574
  -2105141.89547  -1609720.66042  21503227.7644   21503227.3934
 -19865318.17246 -15457389.76643  20164104.6544   20164103.0024
 -54714822.18049 -42618024.34546  18338212.2724   18338210.6354
 -30643421.09446 -23862037.82943  19955181.2874   19955180.6434
 -31173523.75047 -24273813.99644  19470405.3424   19470404.9124
 04  7 17  1 11 59.9900000  0  9G 1G13G28G23G10G19G27G 3G 8
 -92306897.73848 -71910189.36043  19781740.6074   19781741.2254
 -71688202.69149 -55844481.84846  17234780.5374   17234777.5964
  -2844042.82446  -2181084.60541  21469325.7324   21469329.2014
 -91211473.28148 -71056459.91844  19652333.4434   19652330.2404
  -2284866.52047  -1749765.81941  21469027.1784   21469026.8504
 -20036030.21147 -15590412.08443  20131619.5064   20131617.1234
 -54851521.73849 -42724543.46946  18312199.2724   18312197.5184
 -30747345.58246 -23943017.95643  19935404.4284   19935403.8424
 -31346004.82448 -24408214.79144  19437582.6314   19437582.4474
 04  7 17  1 12 29.9900000  0  9G 1G13G28G23G10G19G27G 3G 8
 -92332877.64548 -71930433.53143  19776796.7954   19776797.1274
 -71790531.04349 -55924218.25147  17215307.7014   17215304.8264
  -3053020.56646  -2343923.92041  21429557.4514   21429561.3774
 -91232607.48448 -71072928.22444  19648311.9904   19648308.4474
  -2464162.82447  -1889477.19941  21434908.2094   21434907.9404
 -20206407.01247 -15723173.15143  20099197.9434   20099195.4714
 -54988083.56249 -42830955.27646  18286212.1394   18286210.7644
 -30850702.30148 -24023555.67143  19915736.8424   19915735.9404
 -31518336.25448 -24542498.96544  19404789.3184   19404788.8934
 04  7 17  1 12 59.9900000  0  9G 1G13G28G23G10G19G27G 3G 8
 -92358569.41448 -71950453.19743  19771907.9204   19771908.6274
 -71892386.93049 -56003586.48547  17195925.4044   17195922.0614
  -3261852.73846  -2506649.90041  21389818.6004   21389821.6624
 -91253454.07848 -71089172.40843  19644345.3184   19644341.5294
  -2643030.05947  -2028854.25442  21400871.2014   21400871.0224
 -20376447.33647 -15855672.03543  20066840.1934   20066837.9514
 -55124509.18449 -42937260.94346  18260251.2644   18260250.0024
 -30953492.44946 -24103651.92243  19896176.3894   19896176.1194
 -31690519.62148 -24676667.76744  19372023.8974   19372023.3734
 04  7 17  1 13 29.9900000  0  9G 1G13G28G23G10G19G27G 3G 8
 -92383977.05548 -71970251.47343  19767073.1314   19767074.0064
 -71993772.33249 -56082588.10946  17176632.4594   17176629.1394
  -3470540.86745  -2669263.65941  21350105.8114   21350109.8114
 -91274017.28948 -71105195.76443  19640432.1704   19640428.5684
  -2821469.10247  -2167897.66042  21366915.0374   21366914.9084
 -20546151.62547 -15987909.09643  20034545.8264   20034544.2604
 -55260801.75849 -43043462.94446  18234315.9674   18234314.2524
 -31055718.86746 -24183308.91043  19876723.4594   19876722.7134
 -31862558.59448 -24810724.07844  19339285.4284   19339285.1744
 04  7 17  1 13 59.9900000  0  9G 1G13G28G23G10G19G27G 3G 8
 -92409096.49248 -71989825.16443  19762293.4594   19762293.5104
 -72094681.40649 -56161218.57546  17157429.7564   17157426.9324
  -3679078.09046  -2831759.76541  21310422.1394   21310425.7914
 -91294293.08648 -71120995.17144  19636574.0534   19636570.3894
  -2999472.95347  -2306601.93841  21333041.5614   21333041.4714
 -20715511.98847 -16119878.14843  20002318.3184   20002316.0884
 -55396956.40649 -43149557.46446  18208406.5294   18208404.7294
 -31157375.73848 -24262522.09043  19857378.9044   19857378.3894
 -32034447.46948 -24944663.39844  19306576.8114   19306575.9634
 04  7 17  1 14 29.9900000  0  9G 1G13G28G23G10G19G27G 3G 8
 -92433930.60248 -72009176.51943  19757567.7254   19757567.9164
 -72195115.19949 -56239478.68647  17138318.0224   17138315.3694
  -3887464.38346  -2994138.36842  21270767.1624   21270770.9324
 -91314284.79748 -71136573.23343  19632769.5294   19632766.9754
  -3177041.29347  -2444966.85442  21299251.2644   21299251.4084
 -20884527.64547 -16251578.60943  19970154.9204   19970153.1544
 -55532975.10549 -43255546.04346  18182522.5454   18182521.4284
 -31258465.04348 -24341292.99243  19838142.2644   19838142.1474
 -32206188.04348 -25078487.18244  19273894.9284   19273894.8894
 04  7 17  1 14 59.9900000  0  9G 1G13G28G23G10G19G27G 3G 8
 -92458478.44948 -72028304.83243  19752896.4904   19752897.3934
 -72295070.90249 -56317366.25846  17119297.2094   17119294.1824
  -4095696.57046  -3156396.76941  21231141.7014   21231145.1904
 -91333991.61348 -71151929.29143  19629019.7954   19629016.3344
  -3354169.82847  -2582989.09042  21265545.3894   21265544.6474
 -21053193.60247 -16383006.56543  19938059.3184   19938057.0924
 -55668855.77349 -43361427.08246  18156665.5294   18156663.8114
 -31358984.32848 -24419619.72743  19819013.9434   19819013.1504
 -32377778.43748 -25212193.95044  19241242.9674   19241242.5494
 04  7 17  1 15 29.9890000  0  9G 1G13G28G23G10G19G27G 3G 8
 -92482741.63748 -72047211.32543  19748279.4394   19748280.0244
 -72394545.89149 -56394879.26146  17100367.7354   17100364.6854
  -4303767.08646  -3318529.29642  21191546.9074   21191550.4744
 -91353415.69148 -71167065.03843  19625323.3764   19625320.1424
  -3530852.02347  -2720663.43742  21231923.4624   21231923.2394
 -21221503.18747 -16514156.84643  19906031.2434   19906028.7164
 -55804595.26249 -43467198.09546  18130835.3604   18130833.7904
 -31458931.14848 -24497500.39242  19799994.8534   19799994.3724
 -32549214.07048 -25345780.10144  19208619.0714   19208618.8644
 04  7 17  1 15 59.9890000  0  9G 1G13G28G23G10G19G27G 3G 8
 -92506724.09048 -72065899.05943  19743715.4394   19743716.4424
 -72493547.38749 -56472023.30246  17081528.4154   17081525.6224
  -4511689.48046  -3480546.45842  21151980.3144   21151984.2944
 -91372560.65248 -71181983.28743  19621680.4154   19621677.3644
  -3707098.87947  -2857998.62542  21198385.2204   21198384.7824
 -21389466.09047 -16645036.98843  19874068.9934   19874066.4974
 -55940203.98449 -43572867.20546  18105030.1104   18105027.8494
 -31558313.52048 -24574941.24443  19781083.0714   19781082.6924
 -32720508.06648 -25479255.89644  19176023.4394   19176022.9234
 04  7 17  1 16 29.9890000  0  9G 1G13G28G23G10G19G27G 3G 8
 -92530421.52348 -72084364.68143  19739205.9154   19739207.0834
 -72592066.52749 -56548791.46646  17062780.9074   17062778.3964
  -4719450.78546  -3642438.06042  21112444.4314   21112448.1574
 -91391422.37548 -71196680.83143  19618091.2984   19618088.1814
  -3882897.86747  -2994984.80742  21164931.5714   21164931.2824
 -21557069.54347 -16775637.00943  19842175.1034   19842172.6494
 -56075673.15249 -43678427.57946  18079250.7284   18079248.6384
 -31657123.29348 -24651935.90543  19762279.8454   19762279.2284
 -32891649.84048 -25612613.08844  19143455.6964   19143455.7434
 04  7 17  1 16 59.9890000  0  9G 1G13G28G23G10G19G27G 3G 8
 -92553840.59048 -72102613.42743  19734749.4234   19734750.4314
 -72690108.31249 -56625187.68047  17044123.9854   17044121.2784
  -4927055.00446  -3804207.30442  21072938.2514   21072942.0094
 -91410007.98848 -71211163.22343  19614554.6964   19614551.4354
  -4058252.51647  -3131624.82442  21131562.0714   21131563.1814
 -21724316.33647 -16905959.14143  19810348.7284   19810346.7634
 -56211008.18449 -43783883.42746  18053497.4934   18053495.4544
 -31755365.96548 -24728488.66843  19743585.0324   19743584.1424
 -33062644.98048 -25745856.01044  19110917.2594   19110916.5214
 04  7 17  1 17 29.9890000  0  9G 1G13G28G23G10G19G27G 3G 8
 -92576982.25847 -72120645.99743  19730346.2434   19730347.1774
 -72787671.75049 -56701211.14946  17025558.6494   17025555.5284
  -5134499.95747  -3965852.42642  21033462.6344   21033466.0244
 -91428318.75848 -71225431.45143  19611070.1344   19611067.1034
  -4233160.48047  -3267916.67742  21098278.8534   21098279.0244
 -21891203.63348 -17036001.15443  19778591.8064   19778588.5714
 -56346208.97349 -43889234.67446  18027769.4314   18027767.7824
 -31853041.03948 -24804599.16043  19724998.4624   19724998.0674
 -33233493.12148 -25878984.38544  19078405.4704   19078405.2594
 04  7 17  1 17 59.9890000  0  9G 1G13G28G23G10G19G27G 3G 8
 -92599844.35548 -72138460.75043  19725995.7904   19725996.6144
 -72884752.98849 -56776858.87746  17007084.2124   17007081.6814
  -5341781.29347  -4127370.04842  20994018.3764   20994021.5674
 -91446352.40648 -71239483.73243  19607638.6184   19607635.5444
  -4407616.62547  -3403856.47442  21065081.6034   21065080.9894
 -22057725.53548 -17165758.42543  19746903.1654   19746900.5604
 -56481272.46949 -43994478.93146  18002067.8214   18002066.2124
 -31950145.33248 -24880264.86143  19706519.8534   19706518.8574
 -33404191.16448 -26011995.79844  19045922.8994   19045922.3884
 04  7 17  1 18 29.9890000  0  9G 1G13G28G23G10G19G27G 3G 8
 -92622424.14847 -72156055.49443  19721699.1104   19721699.9784
 -72981347.38749 -56852127.25446  16988703.4704   16988700.5674
  -5548893.23846  -4288755.72842  20954605.7984   20954608.8684
 -91464106.60548 -71253318.29443  19604259.5564   19604257.1494
  -4581614.93747  -3539439.61442  21031970.2594   21031970.0134
 -22223875.43448 -17295225.82443  19715285.7044   19715283.4854
 -56616194.77349 -44099613.18346  17976393.0014   17976391.4664
 -32046674.80148 -24955482.66743  19688150.2674   19688150.0484
 -33574735.45348 -26144887.39944  19013468.9704   19013468.7204
 04  7 17  1 18 59.9890000  0  9G 1G13G28G23G10G19G27G 3G 8
 -92644727.05547 -72173434.49843  19717455.3294   19717456.2594
 -73077458.89549 -56927019.35646  16970413.9154   16970410.8294
  -5755838.84046  -4450011.74042  20915225.0244   20915228.1104
 -91481587.05947 -71266939.54043  19600934.0564   19600930.7324
  -4755158.03147  -3674667.93742  20998945.7284   20998946.2084
 -22389655.28147 -17424404.88743  19683738.9464   19683736.5954
 -56750980.28149 -44204640.82646  17950743.8764   17950742.4314
 -32142633.66448 -25030255.84743  19669890.4074   19669890.0794
 -33745130.02048 -26277662.36144  18981044.2594   18981043.6384
 04  7 17  1 19 29.9890000  0  9G 1G13G28G23G10G19G27G 3G 8
 -92666755.57447 -72190599.70343  19713263.7284   19713264.4034
 -73173088.15249 -57001535.68746  16952215.9394   16952213.0444
  -5962617.95347  -4611138.05742  20875876.0174   20875878.9074
 -91498796.56648 -71280349.65343  19597659.1034   19597656.0054
  -4928245.11746  -3809540.88341  20966008.5014   20966008.3924
 -22555063.69547 -17553294.50043  19652262.9154   19652259.7594
 -56885630.55949 -44309563.10246  17925121.0244   17925119.0214
 -32238023.32848 -25104585.47643  19651738.7124   19651737.6774
 -33915376.07848 -26410321.57044  18948647.1494   18948646.6654
 04  7 17  1 19 59.9890000  0  9G 1G13G28G23G10G19G27G 3G 8
 -92688505.08647 -72207547.50743  19709124.3924   19709125.5714
 -73268228.58249 -57075671.11446  16934111.4464   16934108.6344
  -6169222.95347  -4772128.71542  20836560.4154   20836563.8144
 -91515730.44148 -71293544.99543  19594436.5014   19594433.3764
  -5100868.51246  -3944052.67641  20933159.8144   20933159.1814
 -22720092.33247 -17681888.19943  19620858.9934   19620856.3454
 -57020139.75049 -44414375.43646  17899524.7514   17899523.0954
 -32332837.93048 -25178467.02043  19633695.8214   19633695.1144
 -34085467.94148 -26542860.63944  18916280.0714   18916279.4894
 04  7 17  1 20 29.9890000  0  9G 1G13G28G23G10G19G27G 3G 8
 -92709983.99647 -72224284.41643  19705037.2514   19705038.4154
 -73362886.66449 -57149430.67746  16916098.9154   16916095.7324
  -6375659.45347  -4932988.05442  20797276.9314   20797279.5564
 -91532397.35248 -71306532.32243  19591265.4854   19591262.5994
  -5273033.52046  -4078207.23241  20900397.2904   20900396.1424
 -22884745.91048 -17810189.64043  19589526.4464   19589523.7004
 -57154514.97349 -44519083.39846  17873953.8144   17873952.2474
 -32427084.73848 -25251906.13043  19615761.5954   19615760.7554
 -34255412.54748 -26675284.96444  18883940.5484   18883940.0484
 04  7 17  1 20 59.9890000  0  9G 1G13G28G23G10G19G27G 3G 8
 -92731187.97347 -72240807.12543  19701002.7124   19701003.6774
 -73457056.63749 -57222809.89447  16898179.1344   16898175.9544
  -6581920.53147  -5093710.71742  20758027.0484   20758029.2674
 -91548793.18448 -71319308.39243  19588144.9154   19588142.2944
  -5444732.73046  -4211998.84541  20867723.8374   20867722.6144
 -23049016.27748 -17938192.47944  19558266.4854   19558263.6224
 -57288751.07849 -44623682.95446  17848409.5794   17848407.6104
 -32520758.42248 -25324898.66743  19597935.8064   19597934.9544
 -34425205.05948 -26807590.76644  18851630.2594   18851629.4744
 04  7 17  1 21 29.9890000  0  9G 1G13G28G23G10G19G27G 3G 8
 -92752119.74247 -72257117.74043  19697019.2044   19697020.2124
 -73550739.32449 -57295809.41546  16880351.6034   16880348.6924
  -6788006.18747  -5254296.72442  20718809.9704   20718811.7044
 -91564920.87948 -71331875.54243  19585076.2354   19585073.7354
  -5615965.68046  -4345427.02741  20835138.9934   20835138.2474
 -23212902.39547 -18065895.89744  19527080.0714   19527077.0524
 -57422849.35249 -44728175.09346  17822891.6344   17822889.8804
 -32613860.58648 -25397445.82143  19580219.2204   19580218.5174
 -34594846.43448 -26939778.81044  18819348.1184   18819347.7824
 04  7 17  1 21 59.9890000  0  9G 1G13G28G23G10G19G27G 3G 8
 -92772778.59847 -72273215.65843  19693087.9784   19693089.2904
 -73643932.28549 -57368427.33747  16862617.8764   16862614.7634
  -6993912.86347  -5414743.17642  20679626.8454   20679629.1614
 -91580780.07847 -71344233.47343  19582058.4394   19582055.5244
  -5786728.50446  -4478488.94541  20802643.9784   20802643.0954
 -23376399.88348 -18193296.50443  19495966.9704   19495964.6384
 -57556808.03149 -44832558.47446  17797400.1104   17797398.5094
 -32706389.25048 -25469546.15243  19562611.9394   19562611.1034
 -34764335.05948 -27071847.82644  18787095.3684   18787094.9274
 04  7 17  1 22 29.9890000  0  9G 1G13G28G23G10G19G27G 3G 8
 -92793164.98047 -72289101.24243  19689209.1104   19689209.7744
 -73736634.40248 -57440662.77546  16844976.9234   16844974.2164
  -7199638.44147  -5575048.56542  20640478.1654   20640480.4934
 -91596371.31247 -71356382.61543  19579091.5174   19579089.0094
  -5957018.89147  -4611182.75342  20770239.0014   20770238.1814
 -23539505.48448 -18320391.72444  19464929.5794   19464926.8604
 -57690626.48049 -44936832.58746  17771935.2984   17771933.6654
 -32798343.96146 -25541199.20543  19545113.8214   19545112.4274
 -34933669.89148 -27203797.00144  18754872.2354   18754871.8574
 04  7 17  1 22 59.9880000  0  9G 1G13G28G23G10G19G27G 3G 8
 -92813283.53947 -72304778.17742  19685379.9884   19685381.4734
 -73828846.11349 -57512516.08546  16827429.6684   16827426.8174
  -7405178.74647  -5735209.58842  20601365.2074   20601367.1764
 -91611699.67647 -71368326.90343  19576174.2704   19576171.8674
  -6126833.07847  -4743505.50642  20737924.5904   20737924.9534
 -23702215.26648 -18447178.52443  19433966.5204   19433964.2584
 -57824304.17249 -45040997.01946  17746497.4344   17746495.6764
 -32889725.88747 -25612405.93143  19527724.1924   19527723.0984
 -35102849.32048 -27335625.07144  18722678.5744   18722677.9574
 04  7 17  1 23 29.9880000  0  9G 1G13G28G23G10G19G27G 3G 8
 -92833136.35247 -72320248.03842  19681602.4654   19681603.6374
 -73920572.42649 -57583991.16246  16809974.8244   16809971.9384
  -7610545.36347  -5895235.23642  20562284.4964   20562287.3364
 -91626767.00447 -71380067.83343  19573307.7544   19573304.9924
  -6296180.23047  -4875464.30542  20705698.7544   20705699.4454
 -23864537.15647 -18573663.08443  19403077.7234   19403074.8404
 -57957849.72749 -45145058.48646  17721084.2234   17721082.5634
 -32980540.85948 -25683170.88943  19510442.8874   19510442.3324
 -35271884.20348 -27467340.52544  18690512.0744   18690511.9144
 04  7 17  1 23 59.9880000  0  9G 1G13G28G23G10G19G27G 3G 8
 -92852719.48847 -72335507.72842  19677875.9184   19677877.4814
 -74011805.21949 -57655081.67946  16792613.6924   16792610.9454
  -7815725.30547  -6055115.50442  20523240.7074   20523242.7774
 -91641569.82847 -71391602.62843  19570491.0044   19570488.3594
  -6465048.28147  -5007049.74742  20673564.5124   20673564.7194
 -24026458.69948 -18699835.66643  19372264.6604   19372262.6724
 -58091253.94549 -45249009.82246  17695698.5204   17695696.6094
 -33070781.52047 -25753488.33943  19493270.5204   19493269.2894
 -35440764.12548 -27598935.22444  18658375.4734   18658374.6884
 04  7 17  1 24 29.9880000  0  9G 1G13G28G23G10G19G27G 3G 8
 -92872028.28547 -72350553.69242  19674202.0434   19674203.2384
 -74102538.43448 -57725782.90446  16775348.2234   16775345.1804
  -8020711.47347  -6214844.71642  20484232.8874   20484234.8244
 -91656103.51247 -71402927.68543  19567725.1134   19567722.8594
  -6633429.75847  -5138256.10042  20641522.2314   20641523.3094
 -24187971.56648 -18825689.79944  19341529.8094   19341527.3174
 -58224511.17649 -45352846.61346  17670340.5204   17670338.4264
 -33160442.18047 -25823353.80843  19476208.6214   19476208.1764
 -35609483.51648 -27730404.83044  18626268.5824   18626268.5984
 04  7 17  1 24 59.9880000  0  9G 1G13G28G23G10G19G27G 3G 8
 -92891075.55547 -72365395.81042  19670577.4574   19670578.7314
 -74192783.03149 -57796103.39246  16758174.6134   16758172.0514
  -8225513.59846  -6374430.48742  20445259.1214   20445261.7464
 -91670381.29347 -71414053.34443  19565008.4884   19565006.1064
  -6801334.05147  -5269090.60042  20609571.6604   20609572.0784
 -24349084.68747 -18951232.43443  19310871.5594   19310869.2344
 -58357632.89849 -45456577.82746  17645008.3174   17645006.4734
 -33249534.46148 -25892776.39543  19459254.7624   19459254.9844
 -35778053.76248 -27861758.20844  18594190.7234   18594190.4814
 04  7 17  1 25 29.9880000  0  9G 1G13G28G23G10G19G27G 3G 8
 -92909857.76247 -72380031.44042  19667002.9654   19667004.5044
 -74282533.66048 -57866038.98646  16741095.9884   16741092.9384
  -8430125.62947  -6533868.20042  20406323.1844   20406324.7774
 -91684399.67647 -71424976.88443  19562340.6684   19562338.5244
  -6968754.73446  -5399548.21842  20577712.5354   20577712.6064
 -24509790.86748 -19076458.00843  19280290.2154   19280287.3054
 -58490614.15249 -45560199.60146  17619703.0434   17619701.0864
 -33338054.12147 -25961752.76643  19442410.2854   19442409.5274
 -35946470.28948 -27992991.82444  18562142.7074   18562142.2744
 04  7 17  1 25 59.9880000  0  9G 1G13G28G23G10G19G27G 3G 8
 -92928376.89547 -72394462.06442  19663479.4574   19663480.2424
 -74371790.70349 -57935589.94447  16724110.8714   16724108.2314
  -8634546.75447  -6693157.16342  20367422.8874   20367424.6334
 -91698160.69147 -71435699.85843  19559722.1924   19559719.7464
  -7135690.80947  -5529628.28742  20545945.2854   20545946.0244
 -24670088.22748 -19201364.97744  19249786.3484   19249783.8754
 -58623455.72349 -45663712.50746  17594423.9264   17594422.1564
 -33426001.95748 -26030283.59943  19425674.4344   19425673.6644
 -36114732.99248 -28124105.56844  18530123.1454   18530122.5394
 04  7 17  1 26 29.9880000  0  9G 1G13G28G23G10G19G27G 3G 8
 -92946634.80947 -72408689.16342  19660005.1294   19660006.1494
 -74460554.19149 -58004756.32347  16707219.8244   16707217.0164
  -8838776.05547  -6852296.61842  20328558.8874   20328560.8874
 -91711666.68747 -71446224.16343  19557151.8564   19557149.9304
  -7302141.02747  -5659329.70842  20514270.8484   20514271.5864
 -24829975.27748 -19325952.25244  19219360.9494   19219358.2974
 -58756158.27049 -45767117.10746  17569171.3874   17569169.3524
 -33513378.94947 -26098369.60043  19409046.7544   19409047.0514
 -36282842.93748 -28255100.27044  18498132.9184   18498132.2544
 04  7 17  1 26 59.9880000  0  9G 1G13G28G23G10G19G27G 3G 8
 -92964629.18047 -72422710.89842  19656581.5744   19656582.6414
 -74548820.35549 -58073535.18646  16690423.2384   16690420.6374
  -9042808.58647  -7011282.76942  20289732.7074   20289734.8244
 -91724915.53547 -71456548.06643  19554631.3174   19554628.5004
  -7468100.24247  -5788648.55142  20482689.2384   20482690.0204
 -24989445.93448 -19450215.06244  19189014.7314   19189011.5554
 -58888718.15249 -45870410.52946  17543946.0204   17543943.8914
 -33600181.94147 -26166008.35343  19392529.4494   19392528.4104
 -36450796.80148 -28385973.36144  18466172.1214   18466171.4264
 04  7 17  1 27 29.9880000  0  9G 1G13G28G23G10G19G27G 3G 8
 -92982364.71147 -72436530.92642  19653206.5824   19653207.5124
 -74636592.28149 -58141928.91746  16673720.7854   16673718.3914
  -9246645.96947  -7170116.89542  20250943.3244   20250945.6414
 -91737912.06647 -71466675.37043  19552158.2704   19552155.9064
  -7633570.07046  -5917586.02142  20451201.8244   20451202.5244
 -25148501.05148 -19574154.07644  19158747.4574   19158744.8674
 -59021138.52349 -45973595.24446  17518747.6064   17518745.5244
 -33686414.61747 -26233202.69043  19376119.5514   19376118.7934
 -36618597.44548 -28516727.04944  18434240.4574   18434239.8794
 04  7 17  1 27 59.9880000  0  9G 1G13G28G23G10G19G27G 3G 8
 -92999838.32047 -72450146.87042  19649881.6374   19649882.6294
 -74723864.95349 -58209933.63047  16657113.6064   16657110.6134
  -9450282.48046  -7328794.44542  20212192.3324   20212194.5674
 -91750653.17647 -71476603.64443  19549733.9964   19549731.3874
  -7798544.23446  -6046137.29142  20419808.1764   20419808.7774
 -25307133.83648 -19697763.99544  19128560.6684   19128558.0164
 -59153414.94549 -46076667.78846  17493575.9024   17493574.1494
 -33772072.97347 -26299949.51443  19359819.2314   19359819.0824
 -36786240.16048 -28647357.70244  18402339.1844   18402339.0674
 04  7 17  1 28 29.9880000  0  9G 1G13G28G23G10G19G27G 3G 8
 -93017051.29347 -72463559.71642  19646605.8174   19646607.4104
 -74810637.96949 -58277548.99246  16640601.1454   16640598.4144
  -9653716.54347  -7487314.30942  20173480.0824   20173482.2464
 -91763140.30947 -71486333.99443  19547357.1764   19547355.3324
  -7963021.09446  -6174301.07042  20388509.2854   20388510.2774
 -25465341.81248 -19821042.90744  19098455.0674   19098451.9654
 -59285547.46949 -46179628.19646  17468432.1764   17468430.0674
 -33857157.24248 -26366248.97643  19343627.9654   19343627.8874
 -36953725.41448 -28777865.65444  18370468.2854   18370467.2504
 04  7 17  1 28 59.9880000  0  9G 1G13G28G23G10G19G27G 3G 8
 -93034008.78147 -72476773.47342  19643379.3484   19643380.0594
 -74896914.81249 -58344777.72746  16624182.8634   16624180.5164
  -9856950.58247  -7645678.29042  20134806.0744   20134808.2814
 -91775378.88747 -71495870.66743  19545028.7384   19545026.1644
  -8127002.81247  -6302078.99242  20357304.7934   20357305.0554
 -25623126.29348 -19943991.81244  19068429.3634   19068426.8364
 -59417539.78549 -46282479.36146  17443314.7934   17443312.8364
 -33941671.84848 -26432104.57043  19327545.6064   19327545.6214
 -37121056.49249 -28908253.46445  18338625.9884   18338624.9454
 04  7 17  1 29 29.9880000  0  9G 1G13G28G23G10G19G27G 3G 8
 -93050708.87947 -72489786.69543  19640201.4184   19640202.5554
 -74982692.50449 -58411617.51546  16607860.3794   16607857.5664
 -10059980.12547  -7803882.96042  20096170.8174   20096172.6454
 -91787367.26247 -71505212.37543  19542747.3564   19542745.2234
  -8290484.25046  -6429467.15642  20326195.2464   20326196.0864
 -25780482.05548 -20066606.67044  19038485.6684   19038482.5004
 -59549388.64849 -46385218.74646  17418224.8094   17418222.5554
 -34025614.01647 -26497514.10343  19311572.0354   19311571.8834
 -37288230.30948 -29038518.73045  18306813.8094   18306812.9774
 04  7 17  1 29 59.9870000  0  9G 1G13G28G23G10G19G27G 3G 8
 -93067158.11747 -72502604.44742  19637071.4294   19637072.5264
 -75067972.98849 -58478069.87146  16591632.0304   16591629.3044
 -10262802.75047  -7961926.36342  20057574.7104   20057576.5424
 -91799112.37147 -71514364.57843  19540512.6164   19540509.9254
  -8453464.19546  -6556464.48242  20295181.2344   20295181.3944
 -25937406.99648 -20188885.80244  19008624.0154   19008620.8624
 -59681095.35549 -46487847.35146  17393161.6634   17393159.8624
 -34108987.30148 -26562480.34643  19295706.8984   19295706.3784
 -37455246.83648 -29168661.43944  18275031.6164   18275031.1554
 04  7 17  1 30 29.9870000  0  9G 1G13G28G23G10G19G27G 3G 8
 -93083352.57447 -72515223.62742  19633990.0384   19633991.3354
 -75152755.49249 -58544134.19046  16575498.7024   16575495.9054
 -10465423.82846  -8119812.73242  20019016.3514   20019018.5234
 -91810609.96147 -71523323.84843  19538324.5384   19538322.3744
  -8615945.91047  -6683073.64042  20264262.7264   20264262.0694
 -26093903.05948 -20310830.75144  18978843.3354   18978840.4094
 -59812662.15249 -46590366.94046  17368125.7884   17368123.6634
 -34191791.26247 -26627002.95643  19279950.1634   19279949.7764
 -37622111.19948 -29298685.57744  18243278.4134   18243277.6364
 04  7 17  1 30 59.9870000  0  9G 1G13G28G23G10G19G27G 3G 8
 -93099293.52047 -72527645.29343  19630956.6634   19630957.4294
 -75237037.46149 -58609808.47146  16559460.3044   16559457.4524
 -10667835.66847  -8277536.05642  19980499.8124   19980501.3434
 -91821861.77046 -71532091.62143  19536184.0304   19536181.8314
  -8777922.47747  -6809289.15442  20233438.8514   20233438.9174
 -26249963.07048 -20432435.93344  18949146.1164   18949142.8354
 -59944085.06249 -46692774.40846  17343116.3354   17343114.6094
 -34274024.28547 -26691080.68743  19264301.5934   19264301.2734
 -37788817.95749 -29428586.88944  18211554.8354   18211554.3004
 04  7 17  1 31 29.9870000  0  9G 1G13G28G23G10G19G27G 3G 8
 -93114980.30147 -72539868.91742  19627971.1244   19627972.5664
 -75320816.47349 -58675090.83947  16543517.3514   16543514.7224
 -10870034.96947  -8435093.78842  19942021.4524   19942023.9254
 -91832867.19147 -71540667.42743  19534089.7104   19534087.1914
  -8939390.34847  -6935108.31742  20202712.9374   20202712.1514
 -26405582.67648 -20553697.92644  18919532.9994   18919530.2654
 -60075361.98849 -46795068.10146  17318135.3044   17318133.6124
 -34355684.59447 -26754712.14843  19248761.9214   19248762.3044
 -37955364.75048 -29558363.56744  18179862.4374   18179861.4954
 04  7 17  1 31 59.9870000  0  9G 1G13G28G23G10G19G27G 3G 8
 -93130419.27347 -72551899.40042  19625033.3194   19625035.2374
 -75404097.11349 -58739984.87546  16527669.5304   16527667.2804
 -11072025.07047  -8592488.51842  19903584.3514   19903585.6054
 -91843632.82047 -71549056.36243  19532041.1714   19532038.7414
  -9100352.93046  -7060533.74042  20172082.2574   20172082.7144
 -26560764.50848 -20674618.80244  18890002.6404   18889999.4874
 -60206497.69149 -46897251.76546  17293180.8664   17293179.2734
 -34436777.55947 -26817901.55543  19233329.6014   19233330.5234
 -38121756.78148 -29688019.65344  18148198.5384   18148197.7534
 04  7 17  1 32 29.9870000  0  9G 1G13G28G23G10G19G27G 3G 8
 -93145609.15647 -72563735.81542  19622143.5774   19622144.5774
 -75486876.70749 -58804488.48447  16511917.2654   16511914.8394
 -11273802.16847  -8749717.30142  19865187.0544   19865188.2024
 -91854157.62947 -71557257.65243  19530038.0624   19530035.9134
  -9260806.24246  -7185562.27942  20141549.9844   20141549.2414
 -26715503.61748 -20795194.68744  18860556.2494   18860553.7964
 -60337489.41449 -46999323.23046  17268254.0234   17268252.3394
 -34517301.46147 -26880647.53943  19218007.6484   19218006.7534
 -38287990.77748 -29817552.59145  18116565.5774   18116564.7614
 04  7 17  1 32 59.9870000  0  9G 1G13G28G23G10G19G27G 3G 8
 -93160550.60946 -72575378.66042  19619300.4914   19619301.4604
 -75569154.41449 -58868601.00647  16496260.1244   16496258.1404
 -11475364.21147  -8906778.46742  19826831.2494   19826832.5034
 -91864442.23447 -71565271.75143  19528081.4294   19528079.4724
  -9420747.89146  -7310192.18842  20111113.3274   20111113.9254
 -26869797.07848 -20915423.32044  18831195.7884   18831192.8784
 -60468336.51249 -47101281.99846  17243354.9684   17243352.7764
 -34597256.59447 -26942950.29143  19202792.6094   19202792.4524
 -38454066.16849 -29946961.92445  18084962.4524   18084961.5344
 04  7 17  1 33 29.9870000  0  9G 1G13G28G23G10G19G27G 3G 8
 -93175245.67247 -72586829.49642  19616504.2104   19616505.5624
 -75650930.93749 -58932322.99047  16480698.8984   16480696.3164
 -11676710.66047  -9063671.65842  19788515.8274   19788517.5974
 -91874489.12946 -71573100.62743  19526169.5384   19526167.3624
  -9580176.82046  -7434422.52042  20080775.4524   20080775.6244
 -27023643.44148 -21035303.56144  18801919.2734   18801916.8864
 -60599039.58249 -47203128.54146  17218482.9214   17218480.9564
 -34676643.98847 -27004810.67742  19187685.2344   19187685.9954
 -38619983.61349 -30076248.19745  18053389.4134   18053388.5584
 04  7 17  1 33 59.9870000  0  9G 1G13G28G23G10G19G27G 3G 8
 -93189692.13347 -72598086.65442  19613754.9214   19613756.2224
 -75732202.27749 -58995651.33747  16465233.5624   16465230.9444
 -11877836.16447  -9220392.68442  19750242.5384   19750244.1674
 -91884296.31647 -71580742.71743  19524303.7414   19524301.6444
  -9739088.12146  -7558249.51542  20050535.0464   20050535.8514
 -27177036.79748 -21154830.83744  18772729.4374   18772726.8594
 -60729594.80149 -47304859.87546  17193638.8354   17193636.9804
 -34755460.76247 -27066226.40642  19172686.8434   19172687.6124
 -38785739.82049 -30205408.82844  18021846.8664   18021846.1364
 04  7 17  1 34 29.9870000  0  9G 1G13G28G23G10G19G27G 3G 8
 -93203894.68446 -72609153.72742  19611052.8514   19611053.7964
 -75812971.67249 -59058588.54446  16449863.7494   16449860.6914
 -12078742.72747  -9376943.13542  19712011.4444   19712013.0624
 -91893868.46147 -71588201.66143  19522482.3984   19522479.9644
  -9897483.64546  -7681674.63742  20020393.2104   20020394.4764
 -27329978.43048 -21274006.09844  18743625.7264   18743623.4134
 -60860005.11749 -47406478.29146  17168822.7654   17168820.3984
 -34833710.76247 -27127200.49842  19157796.4604   19157796.9444
 -38951337.53149 -30334445.95445  17990334.3904   17990333.8434
 04  7 17  1 34 59.9870000  0  9G 1G13G28G23G10G19G27G 3G 8
 -93217851.97747 -72620029.70842  19608396.4524   19608398.1634
 -75893236.27049 -59121132.41746  16434589.4914   16434587.0344
 -12279426.20747  -9533319.77242  19673822.8514   19673823.8664
 -91903204.43746 -71595476.62043  19520705.4994   19520703.5624
 -10055359.04347  -7804694.44442  19990351.0154   19990351.3434
 -27482463.21148 -21392825.38344  18714609.0154   18714606.3394
 -60990267.71549 -47507981.61046  17144034.7414   17144032.7414
 -34911391.97347 -27187731.37643  19143014.5234   19143015.1514
 -39116773.90249 -30463357.35745  17958852.9294   17958852.4094
 04  7 17  1 35 29.9870000  0  9G 1G13G28G23G10G19G27G 3G 8
 -93231565.91447 -72630716.04042  19605786.5934   19605788.4914
 -75972996.16049 -59183283.00646  16419411.7654   16419409.5234
 -12479885.67646  -9689521.80742  19635676.8354   19635678.1444
 -91912306.44147 -71602569.23243  19518973.9214   19518971.8474
 -10212713.47347  -7927308.35442  19960407.8044   19960408.0034
 -27634489.26648 -21511287.22944  18685679.3744   18685676.7064
 -61120383.19149 -47609370.29646  17119274.4214   17119272.2574
 -34988505.69946 -27247820.08943  19128339.9844   19128339.9724
 -39282049.16448 -30592143.22945  17927402.4994   17927401.5854
 04  7 17  1 35 59.9870000  0  9G 1G13G28G23G10G19G27G 3G 8
 -93245037.71547 -72641213.69942  19603223.3274   19603225.1634
 -76052251.16449 -59245040.18247  16404330.3354   16404327.8234
 -12680119.48447  -9845548.01342  19597573.8274   19597574.7964
 -91921175.62547 -71609480.46142  19517285.9444   19517284.3744
 -10369545.07447  -8049514.83642  19930563.6794   19930563.9564
 -27786054.03948 -21629389.63344  18656837.6794   18656834.7734
 -61250350.81649 -47710643.75646  17094542.1164   17094540.5544
 -35065052.18047 -27307466.80742  19113773.8274   19113773.9564
 -39447162.96948 -30720803.27444  17895982.9054   17895981.0814
 04  7 17  1 36 29.9870000  0  9G 1G13G28G23G10G19G27G 3G 8
 -93258266.75847 -72651522.17742  19600706.3664   19600708.0934
 -76130999.38349 -59306402.46746  16389345.1714   16389342.2104
 -12880124.37547 -10001395.87042  19559513.4994   19559514.5464
 -91929811.68746 -71616209.97043  19515643.2104   19515641.0624
 -10525850.57047  -8171311.35342  19900819.7654   19900819.8394
 -27937153.80148 -21747129.66144  18628083.9844   18628081.4294
 -61380168.37549 -47811800.29346  17069838.9914   17069837.5694
 -35141030.69547 -27366670.89243  19099315.7414   19099316.3554
 -39612113.45748 -30849336.07844  17864593.0694   17864592.3124
 04  7 17  1 36 59.9870000  0  9G 1G13G28G23G10G19G27G 3G 8
 -93271256.76646 -72661644.43242  19598234.4844   19598236.2144
 -76209242.42249 -59367371.09646  16374455.8664   16374453.1404
 -13079901.09846 -10157065.90542  19521496.9294   19521498.2734
 -91938218.23847 -71622760.68543  19514043.5304   19514041.3044
 -10681630.68747  -8292698.50642  19871175.5234   19871175.9374
 -28087788.31648 -21864507.18744  18599419.4054   18599416.4914
 -61509838.04749 -47912841.60646  17045163.8354   17045161.6164
 -35216443.81647 -27425434.40842  19084964.6714   19084965.8164
 -39776902.19548 -30977742.84545  17833235.1324   17833234.0894
 04  7 17  1 37 29.9860000  0  9G 1G13G28G23G10G19G27G 3G 8
 -93284003.77046 -72671577.34242  19595808.6744   19595810.9364
 -76286973.00849 -59427940.41246  16359664.1904   16359661.8074
 -13279436.53547 -10312547.93842  19483526.9474   19483527.5884
 -91946391.53147 -71629129.61443  19512487.8154   19512486.4084
 -10836873.82047  -8413667.21742  19841633.9944   19841634.7484
 -28237945.59048 -21981512.82444  18570845.3544   18570842.5684
 -61639350.28549 -48013760.23346  17020518.1824   17020516.4674
 -35291285.23047 -27483752.45543  19070724.3614   19070723.7994
 -39941519.09049 -31106015.70045  17801908.9554   17801908.2914
 04  7 17  1 37 59.9860000  0  9G 1G13G28G23G10G19G27G 3G 8
 -93296514.88346 -72681326.41642  19593428.1114   19593430.0844
 -76364201.26649 -59488118.31246  16344968.2214   16344965.6154
 -13478747.73447 -10467855.28142  19445598.7214   19445599.8544
 -91954338.96947 -71635322.59543  19510975.4944   19510973.8384
 -10991593.98047  -8534228.41042  19812191.0024   19812191.9594
 -28387638.33648 -22098156.49244  18542359.8074   18542356.7134
 -61768718.49649 -48114566.65046  16995900.1664   16995898.1864
 -35365565.23447 -27541633.03542  19056588.9944   19056588.7364
 -40105979.35548 -31234166.51444  17770613.3464   17770612.2684
 04  7 17  1 38 29.9860000  0  9G 1G13G28G23G10G19G27G 3G 8
 -93308796.36346 -72690896.56742  19591090.7764   19591093.0764
 -76440929.19149 -59547906.32647  16330367.3384   16330364.7134
 -13677831.72347 -10622985.51642  19407714.4634   19407715.9044
 -91962067.08647 -71641344.65043  19509505.5804   19509503.4434
 -11145789.73847  -8654380.92142  19782848.6434   19782849.3114
 -28536864.65648 -22214436.69944  18513963.2054   18513960.0494
 -61897943.23849 -48215261.27046  16971309.5104   16971307.9324
 -35439287.48047 -27599078.99142  19042559.6824   19042559.6704
 -40270282.66848 -31362195.02245  17739347.7054   17739346.7134
 04  7 17  1 38 59.9860000  0  9G 1G13G28G23G10G19G27G 3G 8
 -93320846.04346 -72700286.08042  19588798.2054   19588800.0184
 -76517153.87149 -59607302.20546  16315862.3384   16315859.9244
 -13876683.69948 -10777934.96842  19369874.3304   19369874.9984
 -91969573.69947 -71647194.11943  19508077.1664   19508075.1544
 -11299456.10246  -8774120.93742  19753607.2834   19753608.1474
 -28685618.84848 -22330349.00944  18485656.1044   18485653.1434
 -62027020.78149 -48315841.21346  16946746.9794   16946745.2294
 -35512449.44547 -27656088.37142  19028636.9324   19028637.0024
 -40434425.61348 -31490098.58645  17708111.9084   17708111.4864
 04  7 17  1 39 29.9860000  0  9G 1G13G28G23G10G19G27G 3G 8
 -93332663.45746 -72709494.66842  19586549.2994   19586551.7254
 -76592873.02349 -59666304.15446  16301453.2834   16301451.0184
 -14075300.50048 -10932701.21142  19332079.0654   19332079.1114
 -91976858.43747 -71652870.68643  19506690.6044   19506689.1394
 -11452589.79747  -8893445.92642  19724467.2684   19724466.9204
 -28833896.92248 -22445890.34344  18457439.4634   18457436.7134
 -62155948.96549 -48416304.76846  16922212.6974   16922211.0654
 -35585050.07047 -27712660.34843  19014822.4794   19014821.8894
 -40598405.76248 -31617875.29145  17676907.3304   17676906.8974
 04  7 17  1 39 59.9860000  0  9G 1G13G28G23G10G19G27G 3G 8
 -93344250.28546 -72718523.55942  19584344.4474   19584346.7014
 -76668086.72349 -59724912.26846  16287141.0574   16287138.3814
 -14273680.53948 -11087282.92542  19294328.0104   19294328.4084
 -91983923.18447 -71658375.86843  19505346.1904   19505345.1234
 -11605189.92646  -9012355.04842  19695428.0574   19695428.8774
 -28981696.96548 -22561059.17344  18429314.0024   18429311.1234
 -62284727.45349 -48516651.67746  16897706.8224   16897705.2404
 -35657090.22747 -27768795.59443  19001113.2914   19001113.9904
 -40762223.01248 -31745525.08445  17645734.3934   17645733.3264
 04  7 17  1 40 29.9860000  0  9G 1G13G28G23G10G19G27G 3G 8
 -93355610.16847 -72727375.62142  19582183.1664   19582185.4794
 -76742797.41849 -59783128.40746  16272923.5494   16272921.0534
 -14471825.10248 -11241681.16842  19256621.9324   19256622.7764
 -91990771.81247 -71663712.60143  19504043.3224   19504041.4084
 -11757257.41447  -9130849.16642  19666490.8384   19666491.4084
 -29129018.99248 -22675855.53544  18401279.3224   18401276.9044
 -62413358.52049 -48616883.71146  16873229.4714   16873227.7444
 -35728573.44948 -27824496.84743  18987510.9944   18987510.2644
 -40925879.41048 -31873049.53744  17614591.1744   17614590.4244
 04  7 17  1 40 59.9860000  0  9G 1G13G28G23G10G19G27G 3G 8
 -93366745.18047 -72736052.37942  19580065.5654   19580066.4864
 -76817005.77749 -59840953.12546  16258802.3774   16258800.1864
 -14669733.26648 -11395895.20942  19218961.3224   19218962.1704
 -91997406.31247 -71668882.50343  19502781.0964   19502779.8584
 -11908791.25847  -9248927.49342  19637654.2294   19637655.6434
 -29275861.56648 -22790278.30144  18373336.0104   18373333.0264
 -62541842.27749 -48717000.96946  16848779.8154   16848777.8344
 -35799500.97747 -27879765.12043  18974014.2134   18974013.8854
 -41089375.51648 -32000449.09644  17583479.5804   17583478.0684
 04  7 17  1 41 29.9860000  0  9G 1G13G28G23G10G19G27G 3G 8
 -93377656.48046 -72744554.92442  19577987.9794   19577991.0574
 -76890711.55149 -59898386.22346  16244777.1664   16244774.3774
 -14867403.60247 -11549923.90342  19181345.7364   19181346.6474
 -92003828.21547 -71673886.74242  19501559.2364   19501557.6194
 -12059790.08647  -9366588.89442  19608920.9164   19608920.9434
 -29422222.45748 -22904325.73444  18345484.9634   18345481.9554
 -62670178.30149 -48817003.11046  16824358.6354   16824356.6744
 -35869873.68448 -27934601.05743  18960622.3774   18960621.8934
 -41252710.73848 -32127723.31145  17552397.5184   17552396.3034
 04  7 17  1 41 59.9860000  0  9G 1G13G28G23G10G19G27G 3G 8
 -93388339.29746 -72752879.38442  19575955.4084   19575957.6394
 -76963908.61749 -59955422.93046  16230848.0494   16230845.3814
 -15064828.27748 -11703761.17742  19143777.3934   19143777.8814
 -92010032.61747 -71678721.48743  19500378.5804   19500377.1624
 -12210246.41047  -9483827.58542  19580289.7684   19580290.4404
 -29568093.40248 -23017991.40044  18317726.4474   18317723.7644
 -62798359.96949 -48916884.95446  16799966.4944   16799964.2724
 -35939686.18747 -27989000.43842  18947336.7444   18947337.4124
 -41415878.46948 -32254867.00445  17521347.7604   17521346.5614
 04  7 17  1 42 29.9860000  0  9G 1G13G28G23G10G19G27G 3G 8
 -93398797.47746 -72761028.80442  19573965.3464   19573967.4554
 -77036599.23449 -60012064.99646  16217015.3224   16217012.8154
 -15262008.35548 -11857407.87342  19106254.8074   19106255.8814
 -92016023.54347 -71683389.91342  19499239.1274   19499237.1354
 -12360161.37147  -9600644.44442  19551761.9324   19551762.5374
 -29713474.58648 -23131275.43844  18290061.1194   18290057.7834
 -62926389.19549 -49016648.01846  16775603.2214   16775601.2134
 -36008941.84847 -28042965.91742  18934158.7134   18934158.7444
 -41578881.03948 -32381882.00945  17490329.4554   17490328.4474
 04  7 17  1 42 59.9860000  0  9G 1G13G28G23G10G19G27G 3G 8
 -93409033.82046 -72769005.37542  19572018.2054   19572020.0844
 -77108784.84849 -60068313.55947  16203278.8154   16203276.6784
 -15458944.08648 -12010864.14842  19068778.9164   19068780.2764
 -92021804.34447 -71687894.57842  19498138.8694   19498137.4084
 -12509535.12147  -9717039.55042  19523336.9244   19523337.4474
 -29858365.68048 -23244177.56244  18262489.3464   18262486.5724
 -63054267.25049 -49116293.26646  16751268.8614   16751266.8734
 -36077642.95747 -28096499.30142  18921085.2364   18921084.7364
 -41741719.30548 -32508768.97645  17459342.0804   17459341.2764
 04  7 17  1 43 29.9860000  0  9G 1G13G28G23G10G19G27G 3G 8
 -93419049.12546 -72776809.73142  19570112.4474   19570114.7484
 -77180464.52349 -60124167.88946  16189638.5884   16189636.0064
 -15655633.26648 -12164128.30343  19031350.4164   19031350.8854
 -92027375.89847 -71692236.22342  19497078.5104   19497076.9554
 -12658365.66447  -9833011.39342  19495015.3694   19495015.7404
 -30002763.87948 -23356695.62444  18235011.5024   18235008.3584
 -63181993.10249 -49215819.92546  16726963.4634   16726961.5184
 -36145789.88746 -28149600.82042  18908117.4794   18908116.4014
 -41904392.57848 -32635527.38045  17428386.8224   17428385.8264
 04  7 17  1 43 59.9860000  0  9G 1G13G28G23G10G19G27G 3G 8
 -93428840.14846 -72784439.29942  19568249.7834   19568251.5144
 -77251634.26249 -60179624.86546  16176095.8074   16176093.1084
 -15852070.12948 -12317195.86542  18993969.9084   18993970.2604
 -92032734.87547 -71696412.25342  19496058.5414   19496057.6314
 -12806647.20747  -9948555.46942  19466797.7364   19466798.9044
 -30146662.55948 -23468824.45144  18207628.5804   18207625.4474
 -63309561.66449 -49315224.01446  16702688.0264   16702686.0804
 -36213379.23847 -28202267.91542  18895255.6904   18895255.5374
 -42066895.78148 -32762153.24645  17397463.3154   17397462.4084
 04  7 17  1 44 29.9860000  0  9G 1G13G28G23G10G19G27G 3G 8
 -93438409.87546 -72791896.40442  19566428.5804   19566430.5224
 -77322295.42649 -60234685.56247  16162649.1744   16162646.7994
 -16048254.46148 -12470066.61643  18956637.0804   18956637.7404
 -92037884.14547 -71700424.80142  19495078.9794   19495077.4864
 -12954379.86747 -10063671.84242  19438685.5024   19438686.0294
 -30290060.79348 -23580563.30144  18180340.4634   18180337.7794
 -63436973.93049 -49414506.33046  16678441.9084   16678440.2914
 -36280413.23847 -28254502.23642  18882499.9164   18882499.4594
 -42229229.94548 -32888647.37245  17366572.3464   17366571.0724
 04  7 17  1 44 59.9850000  0  9G 1G13G28G23G10G19G27G 3G 8
 -93447760.14145 -72799182.54342  19564648.4744   19564651.2554
 -77392446.13749 -60289348.49346  16149299.8174   16149297.3104
 -16244179.07048 -12622735.01443  18919353.8724   18919354.0954
 -92042826.18447 -71704275.92942  19494138.5524   19494137.5834
 -13101558.51647 -10178356.51142  19410677.6384   19410679.3214
 -30432953.00048 -23691907.85644  18153148.8494   18153146.2084
 -63564226.07449 -49513663.86646  16654226.8964   16654225.0484
 -36346891.48047 -28306303.50342  18869848.0834   18869848.3574
 -42391390.26648 -33015006.05145  17335714.1304   17335713.3024
 04  7 17  1 45 29.9850000  0  9G 1G13G28G23G10G19G27G 3G 8
 -93456896.73046 -72806302.17542  19562911.5284   19562913.5364
 -77462095.22749 -60343620.54146  16136046.4824   16136043.6504
 -16439859.55148 -12775213.16943  18882116.8964   18882117.0644
 -92047566.34047 -71707969.69342  19493237.4974   19493235.5914
 -13248195.37546 -10292618.96742  19382773.6464   19382775.0684
 -30575350.13748 -23802866.63544  18126051.7784   18126048.7944
 -63691329.75449 -49612705.72246  16630039.7004   16630038.1534
 -36412823.03547 -28357678.81343  18857302.4974   18857302.6534
 -42553390.67249 -33141240.11445  17304886.2634   17304885.3844
 04  7 17  1 45 59.9850000  0  9G 1G13G28G23G10G19G27G 3G 8
 -93465822.96546 -72813257.89642  19561212.0364   19561214.1224
 -77531243.10949 -60397502.04746  16122887.7784   16122885.3924
 -16635290.28148 -12927496.72443  18844927.4504   18844927.3334
 -92052108.59047 -71711509.30142  19492372.8414   19492371.3024
 -13394286.59447 -10406456.25542  19354973.5604   19354975.0054
 -30717247.86348 -23913436.25444  18099049.3574   18099046.6224
 -63818282.59049 -49711630.02746  16605881.5994   16605879.4784
 -36478209.19547 -28408629.10442  18844860.2244   18844860.0914
 -42715227.62948 -33267346.79144  17274089.9114   17274088.4504
 04  7 17  1 46 29.9850000  0  9G 1G13G28G23G10G19G27G 3G 8
 -93474537.69945 -72820048.83542  19559554.1304   19559556.5134
 -77599886.68449 -60450990.59046  16109825.6924   16109822.9154
 -16830467.35248 -13079582.60743  18807786.5994   18807786.3724
 -92056451.91447 -71714893.91542  19491546.2474   19491545.2984
 -13539828.32847 -10519865.38242  19327278.1774   19327279.3294
 -30858641.91448 -24023613.42744  18072143.1144   18072140.0134
 -63945081.66049 -49810434.52346  16581752.6224   16581750.5564
 -36543048.52048 -28459153.29242  18832522.2474   18832521.7824
 -42876898.64849 -33393324.18045  17243325.1224   17243323.6694
 04  7 17  1 46 59.9850000  0  9G 1G13G28G23G10G19G27G 3G 8
 -93483042.31645 -72826676.05142  19557935.2554   19557937.9744
 -77668026.25048 -60504086.39346  16096859.0524   16096856.4894
 -17025389.19948 -13231469.63343  18770694.0834   18770693.6694
 -92060597.43447 -71718124.37742  19490757.8884   19490756.2164
 -13684819.65647 -10632845.56142  19299687.3104   19299688.1344
 -30999530.01648 -24133396.34244  18045333.2394   18045329.8724
 -64071726.39848 -49909118.74946  16557652.7084   16557650.7164
 -36607341.96147 -28509252.16142  18820287.3494   18820287.4394
 -43038402.77349 -33519171.51845  17212591.4584   17212590.6224
 04  7 17  1 47 29.9850000  0  9G 1G13G28G23G10G19G27G 3G 8
 -93491340.27345 -72833142.23542  19556356.6304   19556359.4194
 -77735664.18048 -60556791.30746  16083987.9974   16083985.3964
 -17220056.78548 -13383158.53743  18733649.7864   18733650.4114
 -92064549.13347 -71721203.80342  19490006.0604   19490004.3254
 -13829261.52747 -10745397.60642  19272201.3184   19272201.5874
 -31139912.41448 -24242785.21344  18018619.0134   18018616.1104
 -64198218.31648 -50007683.88746  16533581.9974   16533580.5174
 -36671092.84447 -28558928.22442  18808155.1614   18808155.2004
 -43199741.98048 -33644890.32745  17181889.5604   17181888.4154
 04  7 17  1 47 59.9850000  0  9G 1G13G28G23G10G19G27G 3G 8
 -93499427.91045 -72839444.48242  19554818.0444   19554820.4074
 -77802795.25049 -60609101.26347  16071213.4504   16071210.9584
 -17414463.34048 -13534644.03643  18696655.7164   18696655.3764
 -92068303.14147 -71724129.19842  19489291.5604   19489290.6934
 -13973147.51247 -10857516.49842  19244820.6854   19244821.5444
 -31279781.71948 -24351774.28044  17992002.5994   17992000.0324
 -64324551.72748 -50106125.50246  16509541.7164   16509540.0874
 -36734296.96547 -28608178.27442  18796128.2784   18796128.6074
 -43360910.88349 -33770476.45345  17151220.3574   17151219.0874
 04  7 17  1 48 29.9850000  0  9G 1G13G28G23G10G19G27G 3G 8
 -93507310.69945 -72845587.18342  19553318.7244   19553320.7204
 -77869423.49249 -60661019.40046  16058534.3804   16058532.0404
 -17608611.57448 -13685928.22643  18659710.1074   18659710.9034
 -92071865.01247 -71726904.83342  19488614.2244   19488612.8804
 -14116480.30947 -10969204.29842  19217544.8104   19217545.7124
 -31419140.14148 -24460365.26544  17965484.3414   17965481.0484
 -64450730.17649 -50204446.38246  16485530.8024   16485529.1344
 -36796959.40647 -28657006.22042  18784204.8964   18784204.0484
 -43521912.60249 -33895932.28945  17120582.6464   17120581.7044
 04  7 17  1 48 59.9850000  0  9G 1G13G28G23G10G19G27G 3G 8
 -93514992.00045 -72851572.87542  19551856.9744   19551859.3684
 -77935551.12149 -60712547.44746  16045950.7084   16045948.0914
 -17802502.14147 -13837011.65042  18622813.8804   18622813.9824
 -92075238.39847 -71729533.65042  19487972.3104   19487971.0134
 -14259260.90647 -11080461.81442  19190374.4894   19190375.5524
 -31557987.86348 -24568558.27144  17939062.1694   17939058.7324
 -64576755.07049 -50302647.58346  16461549.2004   16461547.2674
 -36859083.25847 -28705414.52342  18772382.4194   18772383.1304
 -43682748.42649 -34021258.83445  17089976.2004   17089975.3104
 04  7 17  1 49 29.9850000  0  9G 1G13G28G23G10G19G27G 3G 8
 -93522468.64545 -72857399.05142  19550433.7714   19550436.6894
 -78001173.84449 -60763682.06846  16033463.3574   16033460.7434
 -17996129.00848 -13987889.58543  18585967.8024   18585968.1734
 -92078420.08247 -71732013.08642  19487367.1614   19487365.8184
 -14401483.62147 -11191284.63042  19163310.1534   19163311.4004
 -31696318.28148 -24676348.20744  17912738.5444   17912735.6304
 -64702621.39149 -50400725.23846  16437597.4894   16437595.5644
 -36920664.95347 -28753400.37142  18760664.3804   18760664.4934
 -43843413.67249 -34146452.47645  17059403.0754   17059401.8104
 04  7 17  1 49 59.9850000  0  9G 1G13G28G23G10G19G27G 3G 8
 -93529745.09446 -72863069.22742  19549049.4974   19549052.3804
 -78066295.14549 -60814425.96246  16021071.1854   16021068.9704
 -18189494.07448 -14138563.54343  18549171.5134   18549171.6464
 -92081414.95747 -71734346.96342  19486797.3494   19486796.1814
 -14543150.83247 -11301674.57342  19136351.8574   19136352.8254
 -31834132.68448 -24783736.03444  17886513.3104   17886510.6144
 -64828331.46948 -50498681.09946  16413675.5134   16413673.8064
 -36981709.09047 -28800967.29042  18749047.9194   18749048.7594
 -44003911.37549 -34271515.57745  17028861.2324   17028859.9004
 04  7 17  1 50 29.9850000  0  9G 1G13G28G23G10G19G27G 3G 8
 -93536816.37546 -72868579.50342  19547704.5284   19547706.5564
 -78130908.68748 -60864774.22546  16008775.5604   16008772.9464
 -18382589.37548 -14289027.28343  18512426.4194   18512426.6504
 -92084217.93047 -71736531.31042  19486263.7244   19486263.1534
 -14684254.83247 -11411625.67842  19109500.6854   19109501.1264
 -31971422.79748 -24890715.32844  17860387.4114   17860384.5714
 -64953878.51648 -50596509.94946  16389784.4744   16389782.5794
 -37042210.03547 -28848110.99842  18737534.8884   18737535.7674
 -44164234.21949 -34396442.39145  16998352.8334   16998351.8174
 04  7 17  1 50 59.9850000  0  9G 1G13G28G23G10G19G27G 3G 8
 -93543692.19946 -72873937.46742  19546395.0684   19546398.6264
 -78195022.45349 -60914733.02946  15996574.9744   15996572.8844
 -18575421.86348 -14439286.21843  18475731.3414   18475731.8574
 -92086838.85247 -71738573.77542  19485765.0364   19485764.4854
 -14824802.60947 -11521143.37742  19082754.7004   19082756.0284
 -32108195.02048 -24997291.07344  17834360.9584   17834357.8024
 -65079269.98848 -50694217.57246  16365923.4114   16365921.7284
 -37102177.60247 -28894839.03743  18726124.3644   18726124.0324
 -44324390.13349 -34521239.14145  16967876.2784   16967874.8174
 04  7 17  1 51 29.9850000  0  9G 1G13G28G23G10G19G27G 3G 8
 -93550371.08246 -72879142.03642  19545124.7474   19545127.4504
 -78258633.89149 -60964300.43246  15984470.3174   15984468.2084
 -18767987.30948 -14589337.08443  18439087.8334   18439087.4354
 -92089276.37546 -71740473.37342  19485301.6854   19485300.9934
 -14964790.50847 -11630224.78242  19056116.0684   19056117.0754
 -32244444.40248 -25103459.39144  17808433.3644   17808430.2244
 -65204502.40649 -50791801.25346  16342092.5604   16342090.5604
 -37161609.64847 -28941149.80742  18714813.6934   18714814.6184
 -44484375.53549 -34645903.02345  16937431.7004   16937430.2324
 04  7 17  1 51 59.9850000  0  9G 1G13G28G23G10G19G27G 3G 8
 -93556852.10246 -72884192.37942  19543892.3574   19543894.8414
 -78321741.16449 -61013474.96846  15972461.6924   15972459.1264
 -18960281.96948 -14739176.95943  18402494.5834   18402494.9434
 -92091529.69946 -71742229.41042  19484873.1614   19484872.3104
 -15104215.29347 -11738867.42242  19029585.2714   19029585.1654
 -32380167.07448 -25209217.30144  17782605.9354   17782603.2594
 -65329573.02749 -50889258.87746  16318292.3964   16318290.6534
 -37220505.59047 -28987042.86142  18703606.3024   18703606.2754
 -44644187.65249 -34770431.88745  16907020.6074   16907019.4314
 04  7 17  1 52 29.9840000  0  9G 1G13G28G23G10G19G27G 3G 8
 -93563137.29347 -72889090.12042  19542696.5864   19542699.0314
 -78384343.66449 -61062256.16746  15960548.8364   15960546.2664
 -19152298.93448 -14888800.42643  18365955.4064   18365955.4614
 -92093601.21146 -71743843.81642  19484479.3674   19484478.3444
 -15243072.11747 -11847067.49742  19003160.6564   19003161.8754
 -32515357.28948 -25314560.29944  17756880.4304   17756877.6254
 -65454477.91449 -50986587.37446  16294523.8444   16294522.1094
 -37278865.21947 -29032517.97742  18692501.4384   18692500.9654
 -44803821.26649 -34894821.64745  16876643.1724   16876642.0594
 04  7 17  1 52 59.9840000  0  9G 1G13G28G23G10G19G27G 3G 8
 -93569227.61347 -72893836.01842  19541537.0944   19541540.1764
 -78446444.55949 -61110646.51146  15948731.0704   15948728.7314
 -19344048.77048 -15038215.75543  18329466.1954   18329466.4694
 -92095491.43446 -71745316.92942  19484118.9144   19484117.9734
 -15381368.34047 -11954830.76442  18976843.5634   18976844.9964
 -32650021.60248 -25419493.50044  17731254.6094   17731251.2894
 -65579223.62149 -51083791.79646  16270785.4144   16270783.6174
 -37336692.70347 -29077578.41543  18681496.9774   18681497.3204
 -44963285.67249 -35019079.56845  16846298.0084   16846296.7854
 04  7 17  1 53 29.9840000  0  9G 1G13G28G23G10G19G27G 3G 8
 -93575128.50847 -72898434.27842  19540414.0554   19540417.8324
 -78508045.78549 -61158647.49546  15937009.1724   15937006.5984
 -19535528.14148 -15187420.32743  18293029.3994   18293029.1884
 -92097206.28146 -71746653.36042  19483793.6334   19483793.1094
 -15519102.69947 -12062156.18742  18950634.8134   18950634.6174
 -32784157.87548 -25524015.26544  17705729.5864   17705726.6294
 -65703809.67249 -51180871.81746  16247077.3994   16247075.8404
 -37393991.87548 -29122227.20343  18670593.1094   18670594.4264
 -45122579.37149 -35143204.48845  16815985.1644   16815984.2154
 04  7 17  1 53 59.9840000  0  9G 1G13G28G23G10G19G27G 3G 8
 -93580838.62946 -72902883.93042  19539328.4384   19539331.2774
 -78569145.18449 -61206257.43646  15925382.1724   15925379.6294
 -19726732.76248 -15336410.83343  18256643.7424   18256644.0594
 -92098744.52046 -71747852.22542  19483500.1724   19483500.3524
 -15656271.29347 -12169040.77542  18924531.0784   18924533.0394
 -32917761.58248 -25628122.03944  17680305.2034   17680302.5704
 -65828232.61349 -51277824.71846  16223400.4694   16223398.6174
 -37450761.13747 -29166463.05743  18659790.2504   18659791.6254
 -45281699.06649 -35267193.81346  16785705.6254   16785704.5554
 04  7 17  1 54 29.9840000  0 10G 1G13G28G23G10G19G27G 3G 8G31
 -93586364.59846 -72907190.06542  19538276.7974   19538279.7464
 -78629748.41849 -61253480.77246  15913849.7274   15913847.2194
 -19917666.48448 -15485190.22843  18220310.4844   18220310.5944
 -92100112.64846 -71748918.50042  19483240.6494   19483240.2274
 -15792878.60247 -12275487.97942  18898536.6334   18898536.7624
 -33050836.10548 -25731816.46044  17654981.8444   17654978.9224
 -65952496.77049 -51374653.88346  16199753.8204   16199752.2544
 -37507006.85548 -29210290.92943  18649087.3834   18649087.5864
 -45440649.25849 -35391051.06445  16755458.7194   16755457.5704
   -339694.34055   -228340.90152  19861850.1334   19861854.9964
 04  7 17  1 54 59.9840000  0 10G 1G13G28G23G10G19G27G 3G 8G31
 -93591713.54346 -72911358.26642  19537258.5004   19537262.0944
 -78689861.40249 -61300322.09146  15902410.5784   15902408.1764
 -20108333.85248 -15633762.07043  18184027.4534   18184027.4964
 -92101318.10546 -71749858.00742  19483011.5634   19483010.9844
 -15928929.44147 -12381501.64842  18872646.8834   18872647.5274
 -33183385.41448 -25835101.62744  17629758.7894   17629755.4924
 -66076607.66849 -51471363.62846  16176136.4774   16176134.9494
 -37562736.03548 -29253716.30643  18638482.9144   18638482.3634
 -45599435.60949 -35514780.65345  16725242.4224   16725241.3284
   -559296.69945   -399459.47441  19820061.5944   19820065.6804
 04  7 17  1 55 29.9840000  0 10G 1G13G28G23G10G19G27G 3G 8G31
 -93596890.64546 -72915392.48742  19536274.0784   19536276.7584
 -78749487.96149 -61346784.37146  15891064.1644   15891061.8444
 -20298737.09047 -15782128.11843  18147794.5244   18147794.7154
 -92102366.07846 -71750674.81942  19482812.1334   19482811.7624
 -16064426.48047 -12487083.69042  18846862.0784   18846863.3714
 -33315411.64548 -25937979.21644  17604635.2344   17604631.7384
 -66200567.98449 -51567956.04546  16152547.4534   16152545.7464
 -37617953.75048 -29296743.15043  18627974.5704   18627976.1494
 -45758060.98449 -35638384.79745  16695057.0634   16695055.5864
   -778965.78145   -570630.06942  19778260.0554   19778264.3594
 04  7 17  1 55 59.9840000  0 10G 1G13G28G23G10G19G27G 3G 8G31
 -93601897.78146 -72919294.36442  19535321.2344   19535324.4184
 -78808629.26249 -61392868.52346  15879809.7584   15879807.5044
 -20488875.32847 -15930287.65143  18111612.6724   18111612.0084
 -92103258.45347 -71751370.41942  19482643.0864   19482641.9264
 -16199369.57047 -12592234.16742  18821183.0084   18821184.1844
 -33446913.43448 -26040448.12144  17579611.2974   17579608.0594
 -66324377.48449 -51664430.95046  16128987.3674   16128985.1844
 -37672661.66047 -29339372.75642  18617564.2194   18617565.6294
 -45916524.55949 -35761862.89445  16664902.4924   16664901.3794
   -998699.04746   -741850.62842  19736445.7114   19736449.9104
 04  7 17  1 56 29.9840000  0 10G 1G13G28G23G10G19G27G 3G 8G31
 -93606731.25846 -72923060.85842  19534401.8524   19534405.0434
 -78867280.27049 -61438570.62246  15868649.0634   15868646.6884
 -20678742.18748 -16078235.73943  18075481.7194   18075481.5784
 -92103991.71947 -71751942.00142  19482503.3754   19482502.8174
 -16333752.51647 -12696948.16942  18795610.9064   18795611.8174
 -33577884.02048 -26142503.10644  17554688.3674   17554685.0394
 -66448030.48849 -51760783.90146  16105456.9384   16105454.9614
 -37726856.27748 -29381602.34842  18607251.8914   18607251.8634
 -46074821.48849 -35885211.12145  16634779.6564   16634778.4384
  -1218488.62546   -913115.13942  19694621.7034   19694625.9774
 04  7 17  1 56 59.9840000  0 10G 1G13G28G23G10G19G27G 3G 8G31
 -93611392.33646 -72926693.03542  19533514.7114   19533518.1024
 -78925441.21149 -61483890.85646  15857581.5164   15857578.8174
 -20868336.19547 -16225971.19943  18039403.3994   18039403.0944
 -92104567.22347 -71752390.63442  19482393.9304   19482393.6094
 -16467574.23447 -12801224.84942  18770145.8054   18770146.6064
 -33708321.57048 -26244142.74744  17529866.7344   17529863.7424
 -66571526.06649 -51857014.20046  16081956.5474   16081954.7744
 -37780538.68448 -29423432.82643  18597037.1094   18597036.6804
 -46232950.94949 -36008428.83545  16604688.4844   16604687.3674
  -1438331.37546  -1084420.97042  19652786.6954   19652790.1174
 04  7 17  1 57 29.9840000  0 10G 1G13G28G23G10G19G27G 3G 8G31
 -93615875.10545 -72930186.30042  19532662.0394   19532665.1454
 -78983105.33649 -61528823.96446  15846608.2974   15846605.7584
 -21057648.67647 -16373487.29443  18003378.5164   18003377.7704
 -92104979.25847 -71752711.86042  19482315.5944   19482315.4104
 -16600826.84447 -12905058.06942  18744788.8524   18744789.3324
 -33838217.06248 -26345360.01344  17505148.4534   17505145.0514
 -66694856.11349 -51953115.52146  16058487.3204   16058485.6174
 -37833702.91847 -29464859.50742  18586919.2194   18586920.6254
 -46390904.75048 -36131509.68545  16574631.0004   16574629.7814
  -1658217.33246  -1255760.57342  19610943.5944   19610947.4024
 04  7 17  1 57 59.9840000  0 10G 1G13G28G23G10G19G27G 3G 8G31
 -93620179.84845 -72933540.78442  19531841.7894   19531846.3204
 -79040271.80149 -61573369.29346  15835729.9144   15835727.4694
 -21246677.12548 -16520782.08143  17967407.5004   17967407.2194
 -92105228.08647 -71752905.96242  19482268.1884   19482267.9884
 -16733508.40247 -13008446.33842  18719540.1174   18719541.1494
 -33967567.76648 -26446152.77244  17480533.8834   17480530.5944
 -66818018.63349 -52049086.30946  16035050.5704   16035048.6924
 -37886349.14547 -29505882.56842  18576901.4534   18576901.1214
 -46548680.95348 -36254452.17345  16544607.2114   16544605.8484
  -1878142.31646  -1427130.58642  19569093.7034   19569097.2934
 04  7 17  1 58 29.9840000  0 10G 1G13G28G23G10G19G27G 3G 8G31
 -93624316.44945 -72936764.34542  19531055.5394   19531059.7584
 -79096949.43049 -61617533.69646  15824944.6564   15824942.0164
 -21435428.90248 -16667861.28343  17931488.8674   17931488.9694
 -92105323.70347 -71752980.62142  19482249.8524   19482249.9454
 -16865626.38347 -13111395.41542  18694399.4144   18694399.8874
 -34096380.49648 -26546526.30544  17456021.6334   17456018.5554
 -66941021.41049 -52144932.62446  16011643.9064   16011642.0474
 -37938487.14847 -29546509.62142  18566980.3054   18566979.6954
 -46706287.19548 -36377262.21246  16514615.4774   16514614.3834
  -2098111.78146  -1598535.15441  19527234.0634   19527238.2814
 04  7 17  1 58 59.9840000  0 10G 1G13G28G23G10G19G27G 3G 8G31
 -93628283.40644 -72939855.66941  19530300.6174   19530305.2974
 -79153135.44149 -61661315.04346  15814252.8364   15814250.2894
 -21623899.53948 -16814721.39143  17895624.4224   17895623.6994
 -92105264.70347 -71752934.83542  19482261.4384   19482261.4844
 -16997177.21547 -13213902.60442  18669365.6724   18669366.3634
 -34224650.57048 -26646477.02744  17431612.5394   17431609.4654
 -67063860.79349 -52240651.62846  15988268.0704   15988266.2624
 -37990115.46948 -29586739.52542  18557155.1804   18557155.5274
 -46863720.02049 -36499937.13945  16484656.8914   16484655.5704
  -2318120.00846  -1769970.02842  19485367.9614   19485371.9534
 04  7 17  1 59 29.9830000  0 10G 1G13G28G23G10G19G27G 3G 8G31
 -93632079.87145 -72942814.19542  19529578.5344   19529582.2494
 -79208826.44949 -61704710.66846  15803654.9724   15803652.7104
 -21812079.18448 -16961354.76644  17859814.9014   17859814.6364
 -92105050.37147 -71752767.98742  19482301.9954   19482302.2064
 -17128153.64547 -13315962.20642  18644442.4484   18644442.6404
 -34352370.23048 -26745998.84744  17407308.4874   17407305.1364
 -67186529.64849 -52336237.77846  15964925.4724   15964923.4764
 -38041231.67248 -29626570.41342  18547429.0344   18547428.6834
 -47020971.48849 -36622470.76245  16454732.8944   16454732.1634
  -2538154.39146  -1941425.29942  19443496.6124   19443500.2534
 04  7 17  1 59 59.9830000  0 10G 1G13G28G23G10G19G27G 3G 8G31
 -93635709.44145 -72945642.60542  19528887.4414   19528891.4874
 -79264028.61749 -61747725.38446  15793150.5194   15793148.4684
 -21999981.32047 -17107771.89543  17824058.0034   17824057.7494
 -92104684.22747 -71752482.87242  19482371.7304   19482372.3314
 -17258565.52747 -13417581.86142  18619625.5034   18619625.6634
 -34479548.22748 -26845098.58844  17383107.2304   17383104.2764
 -67309037.18749 -52431698.21446  15941612.7064   15941610.7964
 -38091842.52348 -29666007.51342  18537797.0344   18537797.5344
 -47178053.45349 -36744872.30645  16424841.3164   16424840.1164
  -2758228.58646  -2112911.46941  19401617.7224   19401620.7144
 04  7 17  2  0 29.9830000  0  9G13G28G23G10G19G27G 3G 8G31
 -79318738.19949 -61790356.26546  15782739.5584   15782737.4804
 -22187596.23447 -17253965.22943  17788355.8554   17788355.5384
 -92104165.59847 -71752078.90742  19482471.1984   19482471.5424
 -17388405.75047 -13518756.07542  18594917.6594   18594918.4724
 -34606176.68748 -26943770.10744  17359010.7224   17359007.6754
 -67431376.56649 -52527027.62246  15918332.6054   15918330.6914
 -38141945.75447 -29705049.06642  18528262.8944   18528263.0544
 -47334957.82449 -36867135.45845  16394983.5114   16394982.5234
  -2978330.21146  -2284419.19542  19359734.0504   19359737.2304
 04  7 17  2  0 59.9830000  0  9G13G28G23G10G19G27G 3G 8G31
 -79372955.06249 -61832603.22046  15772422.5114   15772420.2064
 -22374922.22347 -17399933.42743  17752708.8004   17752708.8164
 -92103495.69947 -71751557.07442  19482598.5424   19482598.8164
 -17517673.22346 -13619483.95042  18570319.4804   18570319.5734
 -34732253.50047 -27042011.80444  17335018.9724   17335016.1514
 -67553546.36749 -52622224.85846  15895084.4334   15895082.2454
 -38191542.30147 -29743695.81142  18518824.7924   18518826.0464
 -47491683.13748 -36989259.08545  16365159.5974   16365158.4094
  -3198455.98046  -2455945.56341  19317844.8864   19317848.5194
 04  7 17  2  1 29.9830000  0  9G13G28G23G10G19G27G 3G 8G31
 -79426674.25449 -61874462.36746  15762200.4414   15762197.8664
 -22561951.82448 -17545670.64243  17717118.1754   17717117.6284
 -92102669.83647 -71750913.66542  19482755.1754   19482756.3474
 -17646361.44547 -13719760.49242  18545830.3704   18545831.1324
 -34857771.26248 -27139817.85644  17311133.5344   17311130.6094
 -67675539.92249 -52717284.78146  15871869.7534   15871867.6944
 -38240627.47347 -29781944.09942  18509484.3784   18509485.7104
 -47648223.08648 -37111238.28045  16335371.2144   16335370.1484
  -3418596.91846  -2627483.81242  19275952.9414   19275956.2694
 04  7 17  2  1 59.9830000  0  9G13G28G23G10G19G27G 3G 8G31
 -79479893.03149 -61915931.58946  15752072.8474   15752070.7064
 -22748681.08248 -17691173.87143  17681584.3704   17681584.5814
 -92101686.88347 -71750147.92442  19482942.9174   19482943.0974
 -17774466.90647 -13819582.89442  18521452.2064   18521453.2414
 -34982725.60947 -27237184.85944  17287355.5894   17287352.5194
 -67797353.59849 -52812204.56046  15848689.3944   15848687.8394
 -38289199.77347 -29819792.77342  18500242.3864   18500242.1984
 -47804574.28948 -37233070.41945  16305618.6054   16305617.6594
  -3638747.20746  -2799029.34841  19234060.1754   19234063.5934
 04  7 17  2  2 29.9830000  0  9G13G28G23G10G19G27G 3G 8G31
 -79532609.48449 -61957009.38246  15742041.3394   15742039.2534
 -22935106.31248 -17836440.17143  17646108.6914   17646108.7694
 -92100545.71947 -71749258.91442  19483160.7064   19483160.8784
 -17901986.30146 -13918948.65442  18497186.9414   18497187.1404
 -35107112.80147 -27334109.92444  17263685.6914   17263682.6284
 -67918983.86349 -52906981.41546  15825543.6444   15825541.7734
 -38337258.52047 -29857241.28042  18491096.0194   18491097.4804
 -47960733.03549 -37354752.57545  16275902.5424   16275900.9334
  -3858901.17646  -2970577.71042  19192166.5974   19192169.8864
 04  7 17  2  2 59.9830000  0  9G13G28G23G10G19G27G 3G 8G31
 -79584833.78549 -61997703.68246  15732103.5194   15732101.3824
 -23121235.77348 -17981476.01243  17610689.4484   17610689.3124
 -92099257.74647 -71748255.48342  19483405.9094   19483406.2064
 -18028928.69947 -14017864.75842  18473029.7224   18473030.8084
 -35230940.83248 -27430599.29444  17240122.0734   17240118.7964
 -68040439.68049 -53001622.33446  15802431.3554   15802429.6754
 -38384814.80547 -29894298.22942  18482047.3164   18482047.1794
 -48116708.25849 -37476291.71546  16246221.5344   16246220.3784
  -4079065.63346  -3142134.23042  19150270.4484   19150273.0624
 04  7 17  2  3 29.9830000  0  9G13G28G23G10G19G27G 3G 8G31
 -79636564.54749 -62038013.42246  15722259.1674   15722257.3354
 -23307066.08648 -18126278.74443  17575327.1754   17575327.3744
 -92097822.59447 -71747137.39742  19483679.1914   19483679.5234
 -18155291.89546 -14116329.56842  18448983.5894   18448984.5304
 -35354206.18447 -27526650.18844  17216665.5194   17216662.6984
 -68161718.29349 -53096125.16246  15779353.0504   15779351.1204
 -38431868.23447 -29930963.37642  18473092.7064   18473094.0624
 -48272497.74649 -37597686.11646  16216575.5734   16216574.6324
  -4299235.69946  -3313695.15742  19108373.7764   19108376.2844
 04  7 17  2  3 59.9830000  0  9G13G28G23G10G19G27G 3G 8G31
 -79687805.78949 -62077941.69446  15712508.5194   15712506.6874
 -23492599.68048 -18270850.24943  17540021.1914   17540020.9724
 -92096244.88746 -71745908.24142  19483978.7764   19483979.9954
 -18281078.47747 -14214345.03342  18425047.4174   18425048.2414
 -35476910.94947 -27622264.28544  17193315.3004   17193312.4094
 -68282821.98048 -53190491.68846  15756307.7534   15756306.0304
 -38478423.88347 -29967240.61442  18464233.7224   18464234.5774
 -48428103.89549 -37718937.66045  16186964.7454   16186963.7764
  -4519411.46146  -3485260.43541  19066474.9014   19066478.1094
 04  7 17  2  4 29.9830000  0  9G13G28G23G10G19G27G 3G 8G31
 -79738562.86349 -62117492.69546  15702849.8944   15702847.4914
 -23677840.02348 -18415193.24943  17504771.2304   17504770.5894
 -92094530.97346 -71744572.89242  19484305.5034   19484306.1014
 -18406292.95747 -14311914.72242  18401219.6514   18401220.4294
 -35599058.65248 -27717444.29644  17170071.4804   17170068.3164
 -68403754.75049 -53284725.03346  15733295.0424   15733293.2374
 -38524487.96147 -30003134.87742  18455468.7764   18455469.1634
 -48583530.90249 -37840049.61345  16157388.0974   16157386.6364
  -4739594.80146  -3656831.72942  19024576.1204   19024578.7024
 04  7 17  2  4 59.9830000  0  9G13G28G23G10G19G27G 3G 8G31
 -79788832.57049 -62156663.93146  15693283.8944   15693281.8314
 -23862782.16848 -18559303.92944  17469578.1754   17469577.6914
 -92092678.57446 -71743129.59842  19484657.8314   19484658.5894
 -18530930.73846 -14409035.00542  18377501.5114   18377502.7224
 -35720644.09847 -27812186.18844  17146934.5974   17146931.3944
 -68524511.91049 -53378821.49646  15710315.7454   15710313.6404
 -38570058.31647 -30038644.38442  18446796.3944   18446797.5074
 -48738774.28949 -37961018.49845  16127846.2534   16127844.6944
  -4959778.72346  -3828403.42842  18982675.8864   18982678.5974
 04  7 17  2  5 29.9830000  0  9G13G28G23G10G19G27G 3G 8G31
 -79838614.17649 -62195454.82546  15683810.9014   15683808.5584
 -24047423.62148 -18703180.26543  17434441.8784   17434441.1094
 -92090688.12145 -71741578.81442  19485037.1124   19485037.9054
 -18654990.12146 -14505704.64742  18353894.3554   18353895.2534
 -35841664.87547 -27906488.08144  17123904.5584   17123901.8744
 -68645091.35548 -53472779.50146  15687370.0584   15687368.3744
 -38615135.08247 -30073769.29742  18438218.9094   18438219.7024
 -48893831.67249 -38081842.40945  16098339.9254   16098338.5694
  -5179959.19546  -3999972.42342  18940776.4414   18940779.7964
 04  7 17  2  5 59.9830000  0  9G13G28G23G10G19G27G 3G 8G31
 -79887912.66849 -62233869.27846  15674429.4414   15674427.6914
 -24231767.69548 -18846824.87344  17399362.4414   17399361.9804
 -92088565.60945 -71739925.17842  19485441.7614   19485441.7844
 -18778475.29347 -14601926.79642  18330396.4014   18330396.3164
 -35962124.05147 -28000352.37144  17100982.4334   17100979.2304
 -68765496.90649 -53566601.99846  15664457.7224   15664455.7184
 -38659724.33247 -30108514.29242  18429734.3864   18429734.7654
 -49048706.88749 -38202524.37045  16068868.1834   16068866.7374
  -5400137.55146  -4171539.75642  18898877.3394   18898880.8984
 04  7 17  2  6 29.9830000  0  9G13G28G23G10G19G27G 3G 8G31
 -79936730.53949 -62271909.21546  15665140.1054   15665137.8704
 -24415814.95748 -18990238.21544  17364339.0424   17364338.5734
 -92086314.21945 -71738171.05942  19485869.3394   19485870.3004
 -18901387.51646 -14697702.49342  18307006.7144   18307006.9564
 -36082021.91047 -28093779.27144  17078166.3474   17078163.3554
 -68885729.09848 -53660289.40046  15641578.4414   15641576.9214
 -38703829.50447 -30142882.08342  18421341.6834   18421341.8044
 -49203400.58649 -38323064.88545  16039430.5344   16039429.6984
  -5620312.36347  -4343104.31042  18856979.6594   18856983.1404
 04  7 17  2  6 59.9820000  0  9G13G28G23G10G19G27G 3G 8G31
 -79985062.60249 -62309570.61546  15655942.6864   15655940.4244
 -24599553.67648 -19133411.12744  17329374.6394   17329374.2134
 -92083931.26245 -71736314.37042  19486322.9674   19486324.2334
 -19023718.14847 -14793025.03142  18283727.7254   18283728.6974
 -36201348.93748 -28186761.36044  17055459.8034   17055456.6114
 -69005778.75849 -53753834.57146  15618733.4284   15618731.8504
 -38747446.46147 -30176869.48042  18413041.1624   18413042.2294
 -49357902.80949 -38443456.18745  16010029.9124   16010028.7684
  -5840469.20346  -4514654.87642  18815084.6084   18815088.1664
 04  7 17  2  7 29.9820000  0  8G13G28G10G19G27G 3G 8G31
 -80032918.59849 -62346861.04046  15646835.8184   15646834.2364
 -24783000.84047 -19276356.84044  17294466.2724   17294465.2604
 -19145480.78147 -14887904.97342  18260556.7954   18260557.8854
 -36320117.85948 -28279308.56244  17032858.5064   17032855.2404
 -69125658.97749 -53847247.69946  15595921.2874   15595919.1624
 -38790585.55547 -30210484.50342  18404832.5924   18404833.7214
 -49512228.84848 -38563710.18946  15980662.2954   15980661.2684
  -6060625.15647  -4686204.76142  18773191.1704   18773194.0414
 04  7 17  2  7 59.9820000  0  8G13G28G10G19G27G 3G 8G31
 -80080294.66049 -62383777.50346  15637820.7334   15637818.7254
 -24966146.35248 -19419067.52344  17259613.7094   17259613.4984
 -19266668.23047 -14982336.69642  18237495.9044   18237496.8304
 -36438320.47748 -28371414.48544  17010365.2564   17010361.8814
 -69245361.91448 -53940522.70446  15573142.3654   15573140.7994
 -38833244.50047 -30243725.36342  18396714.0924   18396715.9124
 -49666370.49649 -38683820.51245  15951330.4754   15951329.0724
  -6280767.18446  -4857743.79042  18731298.6004   18731302.1044
 04  7 17  2  8 29.9820000  0  8G13G28G10G19G27G 3G 8G31
 -80127182.80949 -62420313.77346  15628898.0534   15628896.0024
 -25148980.39548 -19561535.49644  17224822.1004   17224821.6084
 -19387271.57446 -15076313.25942  18214545.4124   18214546.6824
 -36555946.96948 -28463071.46444  16987982.0144   16987978.1544
 -69364877.83248 -54033651.99346  15550399.5064   15550397.3814
 -38875415.84847 -30276586.28742  18388689.9984   18388691.8344
 -49820318.00849 -38803779.57345  15922035.1154   15922033.9714
  -6500883.44146  -5029262.63442  18689411.6314   18689414.4864
 04  7 17  2  8 59.9820000  0  8G13G28G10G19G27G 3G 8G31
 -80173582.74249 -62456469.60946  15620068.2874   15620066.7564
 -25331500.60248 -19703758.92944  17190089.7564   17190088.8504
 -19507289.29746 -15169833.53342  18191707.1234   18191708.1784
 -36672995.03148 -28554277.72944  16965707.9364   16965704.4554
 -69484204.89849 -54126634.12346  15527692.0144   15527690.4754
 -38917100.44147 -30309067.92042  18380757.5144   18380758.8974
 -49974069.33649 -38923585.74046  15892777.0224   15892775.5654
  -6720969.57446  -5200758.12342  18647530.8184   18647533.8894
 04  7 17  2  9 29.9820000  0  8G13G28G10G19G27G 3G 8G31
 -80219498.05949 -62492247.82246  15611331.1934   15611329.0264
 -25513708.75448 -19845739.19944  17155416.3034   17155415.9084
 -19626723.86746 -15262899.40242  18168979.0684   18168979.3974
 -36789466.32848 -28645034.56944  16943544.4514   16943541.2404
 -69603344.80149 -54219470.41746  15505020.4984   15505018.7054
 -38958302.69947 -30341173.69542  18372917.5684   18372918.3894
 -50127626.37549 -39043240.53445  15863556.2794   15863554.7404
  -6941025.53546  -5372230.10042  18605654.7484   18605658.0764
 04  7 17  2  9 59.9820000  0  8G13G28G10G19G27G 3G 8G31
 -80264936.73449 -62527654.61946  15602684.9754   15602682.4244
 -25695610.92248 -19987481.05144  17120801.7954   17120800.6824
 -19745582.17646 -15355516.26642  18146361.3974   18146361.9904
 -36905367.09048 -28735346.84444  16921489.3894   16921486.1004
 -69722303.99249 -54312165.89746  15482383.2644   15482381.6704
 -38999031.37547 -30372910.44142  18365166.5064   18365168.5104
 -50280995.96549 -39162749.25045  15834370.8424   15834369.6904
  -7161055.40247  -5543681.72542  18563784.6544   18563787.7524
 04  7 17  2 10 29.9820000  0  8G13G28G10G19G27G 3G 8G31
 -80309898.66449 -62562689.93746  15594128.7094   15594126.7254
 -25877205.21148 -20128983.00144  17086245.0534   17086244.4364
 -19863863.40245 -15447683.39542  18123853.2334   18123853.5884
 -37020695.43048 -28825213.08444  16899542.8424   16899539.8654
 -69841080.60949 -54404719.10146  15459780.9434   15459778.9284
 -39039287.61347 -30404279.03542  18357505.7014   18357507.5334
 -50434176.04749 -39282110.32546  15805221.6314   15805220.3424
  -7381055.18747  -5715109.89342  18521919.9984   18521922.8854
 04  7 17  2 10 59.9820000  0  8G13G28G10G19G27G 3G 8G31
 -80354386.62149 -62597355.91145  15585662.7564   15585660.7994
 -26058492.72748 -20270245.91444  17051747.0224   17051746.7214
 -19981569.41846 -15539402.37242  18101454.6234   18101454.9124
 -37135452.10248 -28914633.85044  16877705.6784   16877702.3854
 -69959675.98448 -54497131.07946  15437212.9754   15437211.2524
 -39079075.30147 -30435282.53042  18349935.5534   18349936.4554
 -50587168.17249 -39401324.92946  15776108.5224   15776106.8224
  -7601023.82847  -5886513.79142  18480061.3344   18480063.9714
 04  7 17  2 11 29.9820000  0  8G13G28G10G19G27G 3G 8G31
 -80398402.06649 -62631653.70946  15577287.1084   15577285.3504
 -26239472.64148 -20411269.12944  17017307.7794   17017307.3464
 -20098700.38347 -15630673.22642  18079165.4124   18079165.5144
 -37249636.64548 -29003608.82444  16855976.9284   16855973.9244
 -70078089.40649 -54589401.26246  15414679.6934   15414677.6904
 -39118396.82447 -30465922.74642  18342452.5454   18342453.6904
 -50739972.00849 -39520392.79446  15747030.4364   15747029.0614
  -7820958.70347  -6057891.37042  18438208.9364   18438211.1584
 04  7 17  2 11 59.9820000  0  8G13G28G10G19G27G 3G 8G31
 -80441942.99249 -62665581.75446  15569001.3504   15568999.4944
 -26420141.23448 -20552049.75644  16982927.3974   16982927.0024
 -20215253.58247 -15721493.91642  18056986.1084   18056986.4554
 -37363245.34848 -29092135.08044  16834357.9124   16834354.8584
 -70196317.45349 -54681527.02746  15392181.6314   15392179.9674
 -39157251.08246 -30496198.88442  18335058.5764   18335060.2914
 -50892583.46149 -39639310.74246  15717989.5924   15717988.0534
  -8040853.99247  -6229238.10442  18396364.4514   18396366.4164
 04  7 17  2 12 29.9820000  0  8G13G28G10G19G27G 3G 8G31
 -80485016.12149 -62699145.27346  15560805.1934   15560802.7994
 -26600503.18048 -20692591.46944  16948605.9904   16948605.4434
 -20331234.72347 -15811868.81642  18034915.9204   18034915.5414
 -37476283.10249 -29180216.46944  16812847.3184   16812844.2294
 -70314364.75449 -54773511.94846  15369718.0614   15369716.1354
 -39195645.50846 -30526116.79742  18327752.2334   18327754.1004
 -51045008.09849 -39758083.15346  15688983.9364   15688982.3034
  -8260712.34447  -6400556.11542  18354526.5764   18354528.5224
 04  7 17  2 12 59.9820000  0  8G13G28G10G19G27G 3G 8G31
 -80527620.49249 -62732343.52545  15552697.6544   15552695.6474
 -26780555.53148 -20832891.92344  16914343.6544   16914342.3224
 -20446641.61747 -15901796.24642  18012954.1314   18012954.4404
 -37588747.11748 -29267850.76344  16791446.2954   16791443.1704
 -70432228.32049 -54865353.70546  15347289.3584   15347287.1934
 -39233579.93046 -30555676.23442  18320533.4904   18320535.4794
 -51197243.12949 -39876707.81946  15660014.4044   15660013.0454
  -8480528.67247  -6571841.33842  18312696.6394   18312698.8074
 04  7 17  2 13 29.9820000  0  8G13G28G10G19G27G 3G 8G31
 -80569758.35249 -62765178.26346  15544679.1784   15544677.0454
 -26960298.80148 -20972951.55244  16880138.9204   16880138.2014
 -20561475.81247 -15991277.44142  17991102.1004   17991102.5264
 -37700637.60248 -29355038.15344  16770154.1864   16770150.8654
 -70549908.77049 -54957052.75846  15324895.3424   15324893.7334
 -39271057.80146 -30584879.87242  18313402.4204   18313403.0614
 -51349289.11349 -39995185.16445  15631081.2484   15631079.7874
  -8700301.27047  -6743092.50542  18270875.0064   18270877.0724
 04  7 17  2 13 59.9820000  0  8G13G28G10G19G27G 3G 8G31
 -80611432.32049 -62797651.52345  15536748.7954   15536746.8734
 -27139733.82048 -21112770.96744  16845993.7954   16845992.7174
 -20675739.11347 -16080313.80642  17969358.1004   17969358.7564
 -37811955.63348 -29441779.48844  16748970.9904   16748968.1864
 -70667407.08649 -55048609.91046  15302536.3344   15302534.3654
 -39308082.95746 -30613730.81742  18306356.3424   18306359.0844
 -51501146.94149 -40113515.92246  15602183.8114   15602182.0064
  -8920028.90646  -6914308.63142  18229061.9754   18229063.4514
 04  7 17  2 14 29.9810000  0  8G13G28G10G19G27G 3G 8G31
 -80652638.61749 -62829760.38845  15528907.5324   15528905.5834
 -27318850.17248 -21252342.10044  16811908.1654   16811907.5684
 -20789424.30147 -16168899.64742  17947725.2044   17947725.5174
 -37922693.20748 -29528068.52644  16727898.3604   16727895.4194
 -70784714.94949 -55140018.67546  15280213.1264   15280211.6614
 -39344652.57846 -30642226.75742  18299396.9464   18299399.8534
 -51652807.12549 -40231692.68346  15573323.5324   15573322.3454
  -9139697.70746  -7085478.85542  18187259.3924   18187261.8724
 04  7 17  2 14 59.9810000  0  8G13G28G10G19G27G 3G 8G31
 -80693382.66049 -62861509.04545  15521154.2984   15521152.2864
 -27497660.34048 -21391674.63644  16777882.0404   16777881.3144
 -20902540.39147 -16257042.12442  17926199.6654   17926200.1034
 -38032858.55148 -29613911.66844  16706934.6894   16706931.2784
 -70901840.67649 -55231285.47746  15257925.0794   15257923.5874
 -39380772.41846 -30670372.17642  18292523.5794   18292525.7004
 -51804280.79749 -40349724.09646  15544499.2674   15544497.6694
  -9359320.60546  -7256613.39942  18145466.6424   18145469.2864
 04  7 17  2 15 29.9810000  0  8G13G28G10G19G27G 3G 8G31
 -80733666.81249 -62892899.33846  15513488.9234   15513486.5134
 -27676160.39848 -21530765.52544  16743914.7044   16743913.8924
 -21015087.12947 -16344740.93442  17904783.0094   17904782.8844
 -38142450.13348 -29699307.74244  16686079.9234   16686077.3804
 -71018782.50849 -55322409.00246  15235672.2124   15235670.0794
 -39416446.56647 -30698170.37242  18285736.6034   18285736.5604
 -51955565.00849 -40467607.93646  15515710.5254   15515709.4434
  -9578890.37946  -7427706.53242  18103684.3374   18103686.0054
 04  7 17  2 15 59.9810000  0  8G13G28G10G19G27G 3G 8G31
 -80773490.55549 -62923930.87646  15505910.6104   15505908.3644
 -27854347.49648 -21669612.54744  16710006.9784   16710006.2394
 -21127062.52347 -16431994.53042  17883474.5484   17883475.5254
 -38251465.19148 -29784254.56544  16665335.4314   16665332.2354
 -71135537.65649 -55413387.06946  15213454.2674   15213452.3964
 -39451674.52747 -30725620.87842  18279032.9314   18279034.7004
 -52106657.37949 -40585342.26846  15486958.8064   15486957.4704
  -9798401.91846  -7598754.25742  18061912.8144   18061914.7204
 04  7 17  2 16 29.9810000  0  8G13G28G10G19G27G 3G 8G31
 -80812859.30149 -62954607.88445  15498418.8064   15498416.8414
 -28032225.15648 -21808218.44744  16676158.1964   16676156.9504
 -21238471.05547 -16518806.42642  17862274.4934   17862274.6734
 -38359907.52748 -29868755.13844  16644699.5014   16644696.6074
 -71252109.54349 -55504222.34546  15191271.0714   15191269.3374
 -39486462.82046 -30752728.67142  18272412.5954   18272414.5284
 -52257560.81249 -40702929.34246  15458242.5644   15458241.6614
 -10017856.52046  -7769757.68042  18020151.5484   18020152.8534
 04  7 17  2 16 59.9810000  0  8G13G28G10G19G27G 3G 8G31
 -80851772.18449 -62984929.66545  15491013.9784   15491011.9784
 -28209790.85548 -21946581.26544  16642368.6034   16642367.2754
 -21349311.28947 -16605175.50542  17841182.2754   17841182.9464
 -38467774.62948 -29952807.46344  16624173.0324   16624170.1734
 -71368495.50049 -55594912.73946  15169123.7284   15169122.0604
 -39520812.04346 -30779494.51042  18265876.1424   18265878.5214
 -52408273.71549 -40820367.95246  15429563.0794   15429562.0254
 -10237249.34046  -7940712.84642  17978402.8144   17978404.2754
 04  7 17  2 17 29.9810000  0  8G13G28G10G19G27G 3G 8G31
 -80890229.32049 -63014896.32745  15483695.9234   15483693.7674
 -28387042.35248 -22084699.24144  16608638.8604   16608637.3494
 -21459582.16047 -16691100.88842  17820198.5564   17820198.5444
 -38575064.73449 -30036410.19044  16603756.6344   16603753.5324
 -71484693.41849 -55685456.60146  15147011.9784   15147010.0794
 -39554722.83646 -30805918.67442  18259422.0954   18259425.5564
 -52558793.45349 -40937656.05146  15400920.1504   15400918.8144
 -10456576.06246  -8111616.55042  17936665.1264   17936667.4974
 04  7 17  2 17 59.9810000  0  8G13G28G10G19G27G 3G 8G31
 -80928233.60249 -63044510.11045  15476463.8144   15476461.8214
 -28563980.65248 -22222573.16844  16574967.6894   16574967.1854
 -21569285.69147 -16776584.18942  17799322.5954   17799322.5794
 -38681779.00849 -30119564.22544  16583449.2984   16583446.3844
 -71600704.32849 -55775854.75246  15124935.9464   15124934.2554
 -39588199.41046 -30832004.60842  18253052.9934   18253055.3024
 -52709121.62549 -41054794.87746  15372313.8534   15372312.4744
 -10675835.46147  -8282467.85242  17894941.9394   17894944.0214
 04  7 17  2 18 29.9810000  0  8G13G28G10G19G27G 3G 8G31
 -80965782.10949 -63073768.74345  15469318.7434   15469316.7674
 -28740601.30948 -22360199.57744  16541358.1654   16541357.1534
 -21678418.43747 -16861622.76742  17778555.3454   17778555.3684
 -38787913.07849 -30202266.15045  16563252.6734   16563249.8414
 -71716523.26649 -55866103.27946  15102896.1424   15102894.5914
 -39621239.54346 -30857750.43942  18246766.6504   18246767.5644
 -52859253.04349 -41171780.40346  15343744.6184   15343743.2394
 -10895020.59446  -8453261.22742  17853232.4544   17853234.4824
 04  7 17  2 18 59.9810000  0  8G13G28G10G19G27G 3G 8G31
 -81002883.21949 -63102678.76645  15462259.1264   15462256.6734
 -28916910.43048 -22497583.23044  16507807.4854   16507806.5604
 -21786987.84047 -16946222.35842  17757895.2904   17757895.7124
 -38893473.45748 -30284521.05344  16543165.4074   16543162.9314
 -71832156.51249 -55956207.13546  15080891.8924   15080890.6694
 -39653851.99246 -30883162.82142  18240560.6894   18240563.1734
 -53009194.24649 -41288617.70746  15315211.9154   15315210.1384
 -11114135.46547  -8623999.88342  17811536.0254   17811537.6894
 04  7 17  2 19 29.9810000  0  8G13G28G10G19G27G 3G 8G31
 -81039534.14149 -63131237.99045  15455284.4394   15455282.3374
 -29092902.78548 -22634720.06344  16474317.2514   16474316.0404
 -21894989.96147 -17030379.91042  17737342.9464   17737343.7164
 -38998455.32448 -30366325.14845  16523188.1184   16523184.8334
 -71947598.87949 -56046162.23746  15058924.1574   15058922.4274
 -39686034.98047 -30908240.56642  18234436.6264   18234437.8644
 -53158940.41049 -41405303.04546  15286716.3764   15286714.3374
 -11333172.67647  -8794677.97842  17769854.6814   17769856.0834
 04  7 17  2 19 59.9810000  0  8G13G28G10G19G27G 3G 8G31
 -81075738.34449 -63159449.11945  15448394.9394   15448392.9354
 -29268580.33248 -22771611.57844  16440886.3534   16440885.6304
 -22002427.97747 -17114097.89042  17716898.5014   17716898.3144
 -39102860.56248 -30447679.94244  16503320.1504   16503317.2824
 -72062852.00449 -56135969.89346  15036992.1964   15036990.5954
 -39717793.10247 -30932987.18342  18228393.2514   18228394.3534
 -53308492.96549 -41521837.52646  15258257.2354   15258255.9704
 -11552131.69947  -8965295.20942  17728188.0094   17728189.5094
 04  7 17  2 20 29.9810000  0  8G13G28G10G19G27G 3G 8G31
 -81111491.88749 -63187309.09145  15441591.3764   15441590.0284
 -29443937.03948 -22908253.08944  16407517.0714   16407516.2354
 -22109296.82447 -17197372.35642  17696561.5324   17696562.3414
 -39206683.73048 -30528581.16744  16483563.5254   16483560.6814
 -72177909.78549 -56225625.33246  15015097.7044   15015096.0914
 -39749123.27346 -30957400.42342  18222431.0874   18222433.0404
 -53457846.10949 -41638216.61146  15229836.3604   15229834.9894
 -11771004.27347  -9135845.05142  17686536.8454   17686538.9974
 04  7 17  2 20 59.9810000  0  8G13G28G10G19G27G 3G 8G31
 -81146800.57849 -63214822.41945  15434872.0794   15434870.3644
 -29618976.52348 -23044647.41544  16374209.0954   16374207.3964
 -22215601.22347 -17280206.99042  17676333.2434   17676333.6574
 -39309928.86348 -30609031.97444  16463916.7204   16463914.0644
 -72292775.77049 -56315131.31646  14993239.2514   14993237.7124
 -39780032.02747 -30981485.15842  18216549.5954   18216551.5684
 -53607003.22349 -41754442.96946  15201452.4004   15201451.2354
 -11989791.63747  -9306328.48542  17644903.4154   17644904.8414
 04  7 17  2 21 29.9810000  0  8G13G28G10G19G27G 3G 8G31
 -81181667.56649 -63241991.56845  15428237.4074   15428235.6144
 -29793700.26248 -23180795.69644  16340959.6574   16340958.5714
 -22321343.73447 -17362603.80342  17656210.4784   17656211.1224
 -39412597.19148 -30689033.31444  16444379.2824   16444376.9114
 -72407450.85949 -56404488.57046  14971417.3684   14971415.7474
 -39810523.68746 -31005244.92842  18210746.8684   18210748.9114
 -53755965.75049 -41870517.69946  15173105.9074   15173104.5714
 -12208492.74248  -9476744.73242  17603285.8454   17603287.3104
 04  7 17  2 21 59.9800000  0  8G13G28G10G19G27G 3G 8G31
 -81216093.04349 -63268816.67545  15421686.2384   15421684.9144
 -29968101.28948 -23316692.51744  16307772.1064   16307771.5244
 -22426521.29747 -17444560.36742  17636196.8874   17636196.7194
 -39514685.10248 -30768582.39344  16424952.4424   16424950.1884
 -72521930.48849 -56493693.51946  14949632.5824   14949630.8634
 -39840599.28546 -31028680.45442  18205024.1454   18205026.5204
 -53904727.62149 -41986436.06646  15144797.4734   15144796.1104
 -12427097.03547  -9647085.55942  17561686.6294   17561688.4694
 04  7 17  2 22 29.9800000  0  8G13G28G10G19G27G 3G 8G31
 -81250083.64149 -63295302.91045  15415218.1924   15415216.6524
 -30142193.95748 -23452349.07544  16274643.7314   16274641.9734
 -22531144.77747 -17526085.20742  17616287.8014   17616287.6764
 -39616202.24248 -30847686.69644  16405634.8794   16405631.8794
 -72636224.30149 -56582753.66846  14927883.1604   14927881.7314
 -39870266.19946 -31051797.50242  18199378.7934   18199380.4144
 -54053301.30949 -42102207.78746  15116525.0204   15116523.1764
 -12645619.30147  -9817362.44642  17520103.2314   17520104.6454
 04  7 17  2 22 59.9800000  0  8G13G28G10G19G27G 3G 8G31
 -81283634.14149 -63321446.21945  15408833.9574   15408832.5004
 -30315966.18748 -23587755.91744  16241575.7624   16241574.5514
 -22635205.66447 -17607171.62542  17596484.1134   17596485.4884
 -39717139.24248 -30926338.95944  16386427.2704   16386424.3244
 -72750322.25849 -56671661.20446  14906171.1214   14906169.3204
 -39899519.91046 -31074592.45042  18193811.0824   18193813.5674
 -54201675.51249 -42217824.06746  15088290.2234   15088288.7074
 -12864043.63747  -9987563.04542  17478537.7774   17478539.5044
 04  7 17  2 23 29.9800000  0  8G13G28G10G19G27G 3G 8G31
 -81316746.69549 -63347248.27545  15402532.9184   15402531.3054
 -30489418.25848 -23722913.30244  16208568.5594   16208567.8054
 -22738705.46147 -17687820.89342  17576790.0674   17576790.2314
 -39817496.82448 -31004539.72044  16367329.6454   16367327.0314
 -72864224.30549 -56760416.09946  14884496.5274   14884494.8794
 -39928363.27045 -31097067.56742  18188321.9104   18188324.1024
 -54349850.15649 -42333284.84546  15060093.9734   15060092.3994
 -13082367.75847 -10157685.50942  17436992.5204   17436993.8324
 04  7 17  2 23 59.9800000  0  8G13G28G10G19G27G 3G 8G31
 -81349423.70349 -63372710.95545  15396314.3794   15396312.9064
 -30662550.35248 -23857821.35444  16175622.7314   16175621.5864
 -22841645.71147 -17768034.06842  17557201.3014   17557201.1454
 -39917275.74248 -31082289.55844  16348342.7624   16348339.6564
 -72977930.37949 -56849018.26546  14862858.8714   14862857.1214
 -39956800.31645 -31119226.13842  18182910.4654   18182913.3204
 -54497825.93749 -42448590.68146  15031934.7074   15031933.6454
 -13300589.54347 -10327728.30642  17395466.2314   17395467.2384
 04  7 17  2 24 29.9800000  0  8G13G28G10G19G27G 3G 8G31
 -81381665.32449 -63397834.34445  15390179.1604   15390177.6524
 -30835360.56649 -23992478.57944  16142737.9494   16142736.8094
 -22944025.66447 -17847810.66242  17537717.8174   17537719.1684
 -40016474.51248 -31159587.35544  16329465.8954   16329462.9144
 -73091438.56249 -56937466.21646  14841258.8634   14841257.2194
 -39984832.36746 -31141069.52942  18177576.9574   18177579.8284
 -54645600.37549 -42563739.59646  15003814.2774   15003812.9064
 -13518704.74247 -10497688.03342  17353959.8014   17353961.1884
 04  7 17  2 24 59.9800000  0  8G13G28G10G19G27G 3G 8G31
 -81413477.02049 -63422622.74045  15384125.9424   15384124.1924
 -31007852.49648 -24126887.82344  16109914.0674   16109912.6994
 -23045850.09047 -17927154.40742  17518341.7704   17518342.6104
 -40115096.90648 -31236436.00044  16310698.4964   16310695.7774
 -73204751.81649 -57025762.27146  14819696.1844   14819694.3014
 -40012464.73045 -31162601.29342  18172319.0124   18172321.0744
 -54793177.06649 -42678734.44846  14975731.1064   14975729.9384
 -13736714.28147 -10667565.42442  17312473.6374   17312475.0274
 04  7 17  2 25 29.9800000  0  8G13G28G10G19G27G 3G 8G31
 -81444860.22349 -63447077.25345  15378154.0904   15378152.1524
 -31180025.37548 -24261048.42844  16077150.4344   16077148.8954
 -23147119.80147 -18006065.84942  17499071.4494   17499071.3714
 -40213142.81648 -31312835.44945  16292040.8564   16292038.3054
 -73317869.31649 -57113905.79646  14798170.4424   14798168.8484
 -40039699.74645 -31183823.37042  18167136.0744   18167137.9924
 -54940555.22749 -42793574.59246  14947686.2074   14947684.9924
 -13954615.11347 -10837358.08042  17271008.3484   17271009.7624
 04  7 17  2 25 59.9800000  0  8G13G28G10G19G27G 3G 8G31
 -81475818.52349 -63471200.66845  15372262.6604   15372261.5204
 -31351880.54748 -24394961.47544  16044447.4344   16044446.3174
 -23247837.68747 -18084547.32742  17479904.9734   17479905.5864
 -40310614.16048 -31388787.16144  16273492.8874   16273490.3714
 -73430792.15248 -57201897.64746  14776682.3484   14776681.0164
 -40066541.36345 -31204738.67842  18162029.0744   18162030.9104
 -55087735.60549 -42908260.63246  14919678.8324   14919677.3674
 -14172406.11347 -11007065.18842  17229563.8324   17229565.3134
 04  7 17  2 26 29.9800000  0  8G13G28G10G19G27G 3G 8G31
 -81506348.42249 -63494990.27145  15366453.0904   15366451.6524
 -31523412.58648 -24528622.73844  16011805.8174   16011804.2814
 -23347999.28547 -18162595.32642  17460845.0044   17460845.3364
 -40407505.77048 -31464287.14644  16255054.7544   16255052.5044
 -73543514.43749 -57289733.23346  14755231.7234   14755230.2504
 -40092987.95745 -31225346.40842  18156996.3714   18156997.1924
 -55234712.86349 -43022788.34046  14891709.8244   14891708.6564
 -14390079.24247 -11176680.47842  17188142.3714   17188143.2354
 04  7 17  2 26 59.9800000  0  8G13G28G10G19G27G 3G 8G31
 -81536451.66049 -63518447.41145  15360724.8634   15360723.5514
 -31694621.35248 -24662032.09444  15979226.0124   15979224.4184
 -23447605.90247 -18240210.82542  17441890.5434   17441891.3444
 -40503817.89548 -31539335.56844  16236727.6524   16236724.6924
 -73656035.66449 -57377412.13546  14733819.7704   14733818.3174
 -40119042.41845 -31245648.88542  18152037.1134   18152039.3994
 -55381486.46949 -43137157.32246  14863779.8014   14863778.4384
 -14607631.76647 -11346201.78442  17146743.3564   17146744.2114
 04  7 17  2 27 29.9800000  0  8G13G28G10G19G27G 3G 8G31
 -81566133.52049 -63541576.19945  15355076.4884   15355075.2894
 -31865509.87548 -24795191.91444  15946707.3404   15946705.4884
 -23546662.12147 -18317397.50642  17423040.7854   17423041.1564
 -40599554.32048 -31613935.39844  16218509.7464   16218506.6494
 -73768358.45349 -57464936.39846  14712445.5594   14712443.8364
 -40144710.41045 -31265650.31742  18147153.8094   18147155.4224
 -55528059.30549 -43251369.91046  14835887.6374   14835886.4104
 -14825064.32847 -11515629.63242  17105366.8404   17105368.1884
 04  7 17  2 27 59.9800000  0  8G13G28G10G19G27G 3G 8G31
 -81595392.30549 -63564375.31445  15349508.9344   15349507.0984
 -32036074.71148 -24928099.49444  15914249.5204   15914247.6844
 -23645165.70747 -18394153.54142  17404296.0904   17404296.7194
 -40694711.91048 -31688084.16844  16200401.6214   16200398.6644
 -73880479.23849 -57552303.25646  14691109.3324   14691107.9224
 -40169991.16845 -31285350.20642  18142342.5744   18142345.1414
 -55674427.78149 -43365423.26946  14808034.8404   14808033.4694
 -15042370.85547 -11684959.25942  17064014.6214   17064015.7074
 04  7 17  2 28 29.9800000  0  8G13G28G10G19G27G 3G 8G31
 -81624229.85249 -63586846.21245  15344021.1524   15344019.7854
 -32206315.12548 -25060754.31244  15881853.4964   15881852.1924
 -23743117.51247 -18470479.62742  17385656.4104   17385656.9614
 -40789290.60248 -31761781.85244  16182404.1134   16182401.1334
 -73992396.93749 -57639511.87046  14669812.2544   14669810.7034
 -40194886.05945 -31304748.94442  18137605.4024   18137607.9064
 -55820590.80949 -43479316.52346  14780220.9654   14780219.4454
 -15259548.14847 -11854188.21642  17022687.3174   17022688.7814
 04  7 17  2 28 59.9800000  0  8G13G28G10G19G27G 3G 8G31
 -81652650.00449 -63608991.82645  15338613.1604   15338611.9574
 -32376233.40648 -25193158.08444  15849519.1924   15849517.6174
 -23840521.27747 -18546378.70042  17367121.2464   17367121.7934
 -40883293.28148 -31835030.70244  16164516.0594   16164512.7854
 -74104112.99249 -57726563.35646  14648553.4734   14648551.6254
 -40219400.35244 -31323851.03842  18132939.9104   18132943.7774
 -55966550.18449 -43593051.07446  14752445.8794   14752444.2744
 -15476595.71548 -12023316.03142  16981384.8404   16981385.4534
 04  7 17  2 29 29.9790000  0  8G13G28G10G19G27G 3G 8G31
 -81680652.96549 -63630812.38645  15333284.6324   15333282.9564
 -32545822.89148 -25325305.66044  15817247.0384   15817245.8004
 -23937373.81247 -18621848.24942  17348691.1634   17348691.5304
 -40976716.05148 -31907827.66344  16146738.0384   16146735.0074
 -74215622.55149 -57813453.96546  14627333.7804   14627332.2344
 -40243534.99646 -31342657.13842  18128348.2964   18128350.7414
 -56112299.44549 -43706621.90646  14724710.6014   14724709.0234
 -15693502.73848 -12192334.36442  16940108.2574   16940109.2104
 04  7 17  2 29 59.9790000  0  8G13G28G10G19G27G 3G 8G31
 -81708243.77348 -63652311.78645  15328034.1164   15328032.7694
 -32715095.55949 -25457206.37544  15785035.3904   15785033.9524
 -24033683.94947 -18696895.12542  17330363.7654   17330364.6794
 -41069566.66448 -31980178.79145  16129069.0304   16129066.1364
 -74326933.20349 -57900189.54846  14606152.3904   14606150.4444
 -40267295.73846 -31361171.89842  18123826.4294   18123828.5974
 -56257849.53149 -43820037.52546  14697013.5304   14697012.2734
 -15910281.78548 -12361253.01142  16898856.6634   16898857.7734
 04  7 17  2 30 29.9790000  0  8G13G28G10G19G27G 3G 8G31
 -81735418.87548 -63673487.25345  15322862.9994   15322861.4684
 -32884041.12948 -25588852.21544  15752886.2804   15752884.9294
 -24129445.36347 -18771514.44742  17312140.8124   17312141.3664
 -41161837.92648 -32052078.48845  16111510.3514   16111507.4604
 -74438036.37149 -57986763.45546  14585010.1014   14585008.5814
 -40290680.03145 -31379393.21742  18119376.1404   18119379.0304
 -56403190.50449 -43933290.19746  14669355.9444   14669354.2654
 -16126918.58248 -12530060.77943  16857632.2104   16857633.1594
 04  7 17  2 30 59.9790000  0  8G13G28G10G19G27G 3G 8G31
 -81762179.93748 -63694340.10345  15317770.4444   15317769.0274
 -33052659.16049 -25720242.79745  15720799.0624   15720798.0274
 -24224658.85547 -18845706.82442  17294022.8514   17294022.8084
 -41253530.14848 -32123526.96944  16094062.3124   16094059.4764
 -74548931.07449 -58073174.85746  14563907.5074   14563905.7694
 -40313689.93746 -31397322.75342  18114997.9054   18115000.0194
 -56548321.25849 -44046379.05646  14641738.5154   14641736.8234
 -16343409.98048 -12698755.27543  16816435.1164   16816436.0934
 04  7 17  2 31 29.9790000  0  8G13G28G10G19G27G 3G 8G31
 -81788530.75449 -63714873.26345  15312756.4294   15312755.0814
 -33220951.61348 -25851379.71544  15688774.1794   15688772.9524
 -24319328.21947 -18919475.22542  17276007.7024   17276007.7104
 -41344645.90248 -32194526.26244  16076723.6244   16076720.7694
 -74659618.73849 -58159424.89346  14542844.1244   14542842.8124
 -40336330.80546 -31414964.68342  18110689.9524   18110691.3514
 -56693243.46949 -44159305.42246  14614160.3904   14614158.9644
 -16559755.24248 -12867335.89443  16775265.6014   16775266.7964
 04  7 17  2 31 59.9790000  0  8G13G28G10G19G27G 3G 8G31
 -81814473.85948 -63735088.73945  15307819.4684   15307818.2024
 -33388918.76249 -25982263.13644  15656811.3194   15656809.6984
 -24413455.18047 -18992820.91542  17258095.8354   17258096.0624
 -41435185.84448 -32265076.88445  16059494.0304   16059491.7844
 -74770099.22749 -58245513.57646  14521820.6484   14521819.1484
 -40358605.82846 -31432321.60942  18106450.3044   18106451.7654
 -56837956.83249 -44272069.05446  14586622.3904   14586621.1484
 -16775951.91048 -13035800.71543  16734125.0234   16734125.6794
 04  7 17  2 32 29.9790000  0  8G13G28G10G19G27G 3G 8G31
 -81840010.42648 -63754987.42545  15302960.1404   15302958.5234
 -33556559.50049 -26112892.21144  15624910.1944   15624908.4294
 -24507040.14147 -19065744.31742  17240287.2104   17240287.5274
 -41525149.85548 -32335178.71844  16042375.2414   16042372.0154
 -74880371.10549 -58331439.72146  14500836.5934   14500835.0194
 -40380516.49246 -31449394.63642  18102280.3124   18102283.0154
 -56982460.34449 -44384669.14746  14559124.3824   14559123.1554
 -16991996.39848 -13204146.96143  16693012.9764   16693013.6944
 04  7 17  2 32 59.9790000  0  8G13G28G10G19G27G 3G 8G31
 -81865140.94148 -63774569.72445  15298177.8664   15298176.2654
 -33723872.48449 -26243265.90244  15593071.4764   15593069.4214
 -24600083.09847 -19138245.39542  17222582.2344   17222582.8354
 -41614537.13748 -32404831.16644  16025365.0304   16025362.1404
 -74990432.48449 -58417201.87946  14479892.4134   14479890.9914
 -40402064.06646 -31466184.67842  18098180.1014   18098181.9054
 -57126751.79349 -44497104.01546  14531666.6484   14531665.2414
 -17207884.58248 -13372371.40943  16651930.4294   16651931.8124
 04  7 17  2 33 29.9790000  0  8G13G28G10G19G27G 3G 8G31
 -81889868.46949 -63793837.99545  15293472.4684   15293471.0694
 -33890858.88349 -26373385.10745  15561294.9374   15561293.4444
 -24692586.74247 -19210326.20342  17204978.7884   17204979.2694
 -41703349.25448 -32474035.39245  16008464.3594   16008461.7654
 -75100283.74249 -58502800.26746  14458988.2654   14458986.7844
 -40423252.49647 -31482694.72142  18094148.3044   18094149.2654
 -57270832.04349 -44609374.30346  14504249.2494   14504247.8044
 -17423614.80948 -13540472.77243  16610878.0854   16610878.8434
 04  7 17  2 33 59.9790000  0  8G13G28G10G19G27G 3G 8G31
 -81914193.81649 -63812792.87645  15288843.8274   15288842.3084
 -34057517.18049 -26503248.63745  15529580.9444   15529579.2574
 -24784551.25847 -19281986.91542  17187478.8594   17187479.4564
 -41791585.86348 -32542791.22945  15991673.6714   15991670.8514
 -75209923.03549 -58588233.49846  14438124.4214   14438123.1794
 -40444083.57046 -31498926.34542  18090183.1014   18090185.4334
 -57414699.01649 -44721478.43546  14476871.9214   14476870.5274
 -17639182.96148 -13708447.83343  16569857.3904   16569858.0424
 04  7 17  2 34 29.9790000  0  8G13G28G10G19G27G 3G 8G31
 -81938119.30149 -63831436.19045  15284290.5234   15284289.3594
 -34223847.21549 -26632856.40545  15497928.9994   15497927.4644
 -24875978.04347 -19353228.60142  17170080.7964   17170081.3904
 -41879246.97348 -32611098.56845  15974991.8514   15974989.5384
 -75319349.57049 -58673500.93146  14417301.2104   14417299.7614
 -40464559.67246 -31514881.34842  18086286.5304   18086287.8594
 -57558352.62149 -44833416.31146  14449535.5304   14449534.1714
 -17854586.12948 -13876294.35543  16528866.9914   16528868.0504
 04  7 17  2 34 59.9790000  0  8G13G28G10G19G27G 3G 8G31
 -81961649.74249 -63849771.68345  15279812.8274   15279811.7534
 -34389852.06249 -26762210.75945  15466339.4684   15466338.0584
 -24966871.77747 -19424054.93442  17152784.8124   17152785.1124
 -41966336.80548 -32678960.81344  15958419.7344   15958417.2374
 -75428565.93049 -58758604.59646  14396518.3354   14396516.9024
 -40484686.84446 -31530564.52242  18082456.4684   18082458.3084
 -57701795.17249 -44945189.70446  14422239.8664   14422237.9994
 -18069824.74648 -14044012.62942  16487908.0464   16487909.2774
 04  7 17  2 35 29.9790000  0  8G13G28G10G19G27G 3G 8G31
 -81984781.32449 -63867796.36545  15275411.2184   15275410.3784
 -34555525.64849 -26891306.98845  15434812.7104   15434811.5034
 -25057227.82847 -19494462.28842  17135590.1794   17135590.7844
 -42052849.85548 -32746373.59044  15941956.6094   15941954.2964
 -75537565.47349 -58843539.31946  14375776.4684   14375774.8084
 -40504462.14545 -31545973.58341  18078692.6244   18078693.6634
 -57845019.71149 -45056793.22746  14394984.4914   14394982.8194
 -18284889.88748 -14211595.71843  16446982.4684   16446983.3944
 04  7 17  2 35 59.9790000  0  8G13G28G10G19G27G 3G 8G31
 -82007517.17249 -63885512.66745  15271085.1094   15271084.0424
 -34720869.20749 -27020146.06444  15403349.0384   15403347.5074
 -25147049.29347 -19564453.08642  17118497.5544   17118498.3124
 -42138788.24648 -32813338.58945  15925603.4294   15925600.7184
 -75646348.86749 -58928305.61046  14355075.4294   14355074.2024
 -40523890.10946 -31561112.38442  18074996.0074   18074997.4874
 -57988027.39549 -45168227.75246  14367771.0624   14367769.3394
 -18499780.28548 -14379042.66943  16406090.0234   16406091.2374
 04  7 17  2 36 29.9790000  0  8G13G28G10G19G27G 3G 8G31
 -82029862.04748 -63902924.32145  15266832.8744   15266831.6444
 -34885885.18048 -27148729.87344  15371947.3594   15371945.7614
 -25236339.71947 -19634030.10242  17101506.8194   17101507.2804
 -42224154.92648 -32879858.10245  15909358.7804   15909356.3704
 -75754917.85249 -59012904.79646  14334415.7884   14334414.2924
 -40542975.13346 -31575983.94742  18071364.7964   18071365.9844
 -58130820.08249 -45279494.71446  14340598.5464   14340596.9724
 -18714495.26648 -14546352.89843  16365231.2734   16365232.3594
 04  7 17  2 36 59.9780000  0  8G13G28G10G19G27G 3G 8G31
 -82051818.34048 -63920033.19245  15262655.0184   15262653.6474
 -35050569.12949 -27277054.96045  15340608.9164   15340607.5654
 -25325099.34047 -19703193.49942  17084616.3384   17084617.0454
 -42308949.09048 -32945931.47745  15893222.5724   15893220.4754
 -75863269.44149 -59097334.60346  14313797.0964   14313795.6394
 -40561720.20746 -31590590.66642  18067797.8854   18067798.6744
 -58273393.35549 -45390590.69446  14313467.9794   14313466.0724
 -18929026.19948 -14713519.73843  16324407.4714   16324408.5264
 04  7 17  2 37 29.9780000  0  8G13G28G10G19G27G 3G 8G31
 -82073385.52748 -63936838.86145  15258551.0024   15258549.5804
 -35214927.96549 -27405126.72945  15309332.6824   15309331.0064
 -25413331.28947 -19771945.71042  17067825.7684   17067826.7874
 -42393172.91848 -33011560.46244  15877195.4474   15877192.8894
 -75971405.80549 -59181596.69246  14293219.6824   14293217.8934
 -40580125.34445 -31604932.26042  18064295.1274   18064296.7444
 -58415752.54349 -45501519.88846  14286377.8544   14286376.1194
 -19143380.21148 -14880548.71643  16283617.1194   16283617.9014
 04  7 17  2 37 59.9780000  0  8G13G28G10G19G27G 3G 8G31
 -82094565.60548 -63953342.87545  15254520.4404   15254519.1274
 -35378956.79349 -27532941.33845  15278118.7914   15278117.2564
 -25501034.96947 -19840286.32542  17051136.9084   17051137.6664
 -42476825.10247 -33076744.00244  15861276.7994   15861274.4444
 -76079323.27749 -59265688.18846  14272683.6434   14272681.9714
 -40598194.61745 -31619012.81442  18060857.1274   18060857.9634
 -58557892.74249 -45612278.48546  14259329.4474   14259327.9204
 -19357548.10248 -15047432.64943  16242861.8774   16242863.0654
 04  7 17  2 38 29.9780000  0  8G13G28G10G19G27G 3G 8G31
 -82115362.69148 -63969548.47344  15250562.7764   15250561.6004
 -35542657.31649 -27660500.12645  15246967.5184   15246966.1904
 -25588213.93447 -19908218.02842  17034547.3464   17034547.8614
 -42559908.29348 -33141484.16344  15845466.0804   15845464.4084
 -76187023.36349 -59349610.33246  14252188.9164   14252187.1114
 -40615930.72346 -31632833.23642  18057482.2524   18057483.8154
 -58699814.87149 -45722867.09946  14232322.2684   14232320.9634
 -19571528.89848 -15214170.79143  16202142.7294   16202143.3734
 04  7 17  2 38 59.9780000  0  9G29G13G28G10G19G27G 3G 8G31
   -318808.68056   -214172.53552  18223632.9634   18223634.7214
 -82135777.17648 -63985455.93144  15246678.1744   15246676.9204
 -35706028.13349 -27787802.01645  15215879.2684   15215877.7914
 -25674868.30947 -19975741.00442  17018057.6044   17018058.1514
 -42642421.61348 -33205780.27944  15829765.0574   15829762.3074
 -76294503.82849 -59433361.32546  14231735.6974   14231734.0334
 -40633335.54745 -31646395.49042  18054169.5334   18054171.2094
 -58841516.61349 -45833283.95846  14205357.2294   14205355.6744
 -19785318.18048 -15380759.69243  16161459.9474   16161460.5494
 04  7 17  2 39 29.9780000  0  9G29G13G28G10G19G27G 3G 8G31
   -524801.03146   -374685.87442  18184434.3934   18184435.7564
 -82155822.43748 -64001075.69544  15242863.6274   15242862.5884
 -35869080.58249 -27914855.82345  15184851.1354   15184849.7524
 -25761011.06247 -20042865.27942  17001665.0494   17001665.7014
 -42724377.27748 -33269641.84944  15814169.6354   15814166.4324
 -76401775.07049 -59516949.31046  14211323.1194   14211321.1664
 -40650423.17645 -31659710.40241  18050917.6354   18050919.6354
 -58983009.24249 -45943537.91846  14178432.3934   14178430.4514
 -19998924.34848 -15547205.92943  16120812.2364   16120812.4324
 04  7 17  2 39 59.9780000  0  9G29G13G28G10G19G27G 3G 8G31
   -730699.89847   -535126.41042  18145253.6194   18145254.1154
 -82175504.34448 -64016412.31144  15239118.3854   15239117.1664
 -36031817.96949 -28041664.13545  15153883.4014   15153881.7094
 -25846647.21147 -20109594.80942  16985368.5264   16985369.8464
 -42805779.93448 -33333072.50844  15798679.0884   15798676.5654
 -76508840.18749 -59600376.68446  14190949.2294   14190947.3424
 -40667200.12545 -31672783.24041  18047725.4324   18047727.1004
 -59124295.40249 -46053631.02046  14151546.2994   14151544.5964
 -20212348.29748 -15713510.16543  16080198.4324   16080198.9284
 04  7 17  2 40 29.9780000  0  8G29G13G28G10G19G27G 8G31
   -936496.38747   -695487.18742  18106090.9244   18106092.3194
 -82194818.25448 -64031462.18444  15235443.4864   15235442.2214
 -36194233.79749 -28168221.86545  15122976.6434   15122974.8114
 -25931771.87147 -20175925.73042  16969170.4794   16969171.3544
 -42886623.43048 -33396067.46744  15783295.0724   15783292.2564
 -76615691.68049 -59683637.60646  14170616.2214   14170614.0724
 -59265367.89549 -46163557.61646  14124701.1664   14124699.1784
 -20425580.29748 -15879664.86443  16039622.3384   16039622.7684
 04  7 17  2 40 59.9780000  0  8G29G13G28G10G19G27G 8G31
  -1142185.93746   -855764.61842  18066949.4244   18066951.2684
 -82213763.69148 -64046224.94144  15231837.8224   15231836.6354
 -36356325.59049 -28294527.11445  15092131.6044   15092129.9754
 -26016384.35947 -20241857.62142  16953068.9794   16953070.0724
 -42966906.27047 -33458625.53944  15768017.7134   15768014.8974
 -76722326.19949 -59766729.45546  14150324.1584   14150322.4864
 -59406223.47349 -46273315.25146  14097897.4944   14097896.0724
 -20638614.92248 -16045665.72143  15999082.9714   15999083.1974
 04  7 17  2 41 29.9780000  0  8G29G13G28G10G19G27G 8G31
  -1347754.22747  -1015947.59842  18027831.4474   18027832.2014
 -82232330.30148 -64060692.48744  15228305.3074   15228303.8424
 -36518080.93749 -28420570.19345  15061350.1744   15061348.6394
 -26100473.98447 -20307382.03742  16937067.2364   16937068.2294
 -43046616.97347 -33520737.78944  15752849.1354   15752846.6394
 -76828730.73849 -59849642.08646  14130075.9404   14130074.3654
 -59546849.12149 -46382893.69446  14071136.7994   14071135.0614
 -20851437.02348 -16211500.98443  15958584.3224   15958584.3654
 04  7 17  2 41 59.9780000  0  8G29G13G28G10G19G27G 8G31
  -1553195.91047  -1176031.89342  17988737.0964   17988737.6514
 -82250517.53548 -64074864.42444  15224843.9014   15224842.7994
 -36679496.61749 -28546348.58545  15030634.2294   15030632.2764
 -26184039.37547 -20372497.96542  16921165.3384   16921166.4284
 -43125753.38748 -33582402.54944  15737790.1664   15737787.3734
 -76934901.50849 -59932372.56246  14109872.4324   14109870.8154
 -59687241.26249 -46492290.19146  14044421.2444   14044419.7014
 -21064040.59848 -16377165.95543  15918125.8304   15918126.8224
 04  7 17  2 42 29.9780000  0  8G29G13G28G10G19G27G 8G31
  -1758510.87547  -1336017.49942  17949666.4084   17949667.6544
 -82268329.37548 -64088743.85244  15221454.5654   15221453.3654
 -36840574.60249 -28671863.84945  14999981.9864   14999980.0334
 -26267084.14547 -20437208.20742  16905362.8154   16905364.0064
 -43204318.36348 -33643622.03644  15722839.7524   15722836.6864
 -77040839.55149 -60014921.68346  14089712.8934   14089711.2914
 -59827400.85949 -46601505.48946  14017749.8854   14017748.1584
 -21276424.60548 -16542659.82943  15877711.1434   15877711.6434
 04  7 17  2 42 59.9780000  0  8G29G13G28G10G19G27G 8G31
  -1963700.89547  -1495905.65642  17910620.5184   17910621.0694
 -82285771.70748 -64102335.33044  15218135.2524   15218134.4404
 -37001318.70749 -28797118.94845  14969393.1664   14969391.4404
 -26349614.13747 -20501517.31142  16889657.1044   16889658.5924
 -43282316.62147 -33704399.89944  15707997.2054   15707994.5534
 -77146548.03948 -60097291.93446  14069597.3614   14069595.8304
 -59967331.48849 -46710542.33546  13991121.7604   13991120.4204
 -21488589.97748 -16707983.36243  15837337.7214   15837337.5264
 04  7 17  2 43 29.9780000  0  8G29G13G28G10G19G27G 8G31
  -2168763.67247  -1655694.71442  17871598.2914   17871598.1084
 -82302846.81648 -64115640.69044  15214886.1434   15214885.1864
 -37161729.07049 -28922113.97545  14938867.9014   14938866.4754
 -26431630.99247 -20565426.56842  16874050.9634   16874051.2564
 -43359749.10547 -33764736.90844  15693261.6114   15693259.2334
 -77252026.14148 -60179482.70346  14049525.5104   14049523.8464
 -60107032.01249 -46819399.88946  13964537.7914   13964535.9864
 -21700533.82848 -16873134.27343  15797006.0574   15797005.9944
 04  7 17  2 43 59.9780000  0  8G29G13G28G10G19G27G 8G31
  -2373696.63347  -1815382.63242  17832600.2914   17832600.5924
 -82319556.34848 -64128661.18044  15211706.7524   15211705.7054
 -37321805.03549 -29046848.44045  14908406.3224   14908404.9084
 -26513135.94947 -20628936.96942  16858541.0184   16858541.8584
 -43436616.13348 -33824633.28244  15678634.6664   15678631.6434
 -77357272.60249 -60261492.94546  14029497.7994   14029496.4554
 -60246500.89549 -46928076.91946  13937997.8464   13937995.9834
 -21912252.63748 -17038109.82343  15756716.8154   15756717.1624
 04  7 17  2 44 29.9770000  0  8G29G13G28G10G19G27G 8G31
  -2578494.00847  -1974964.91242  17793628.5754   17793628.7244
 -82335904.69548 -64141400.23444  15208595.8574   15208594.5054
 -37481544.59849 -29171320.76545  14878009.6614   14878007.4004
 -26594131.39547 -20692050.33042  16843128.1304   16843128.1654
 -43512919.50848 -33884090.46344  15664115.2084   15664111.8964
 -77462286.11748 -60343321.60046  14009514.3414   14009512.6574
 -60385736.01249 -47036571.82546  13911502.4584   13911500.6934
 -22123739.57848 -17202904.70543  15716472.1144   15716472.1814
 04  7 17  2 44 59.9770000  0  8G29G13G28G10G19G27G 8G31
  -2783164.89847  -2134448.65642  17754680.8644   17754680.9744
 -82351893.18448 -64153858.87744  15205553.1854   15205552.2554
 -37640956.08649 -29295537.45745  14847674.5444   14847672.1854
 -26674622.29746 -20754770.54442  16827810.6534   16827811.2904
 -43588663.08648 -33943111.44844  15649701.6144   15649698.1654
 -77567070.96549 -60424972.12246  13989574.4034   13989572.7204
 -60524744.03949 -47144889.76746  13885049.7394   13885048.2674
 -22335003.65248 -17367525.91443  15676270.0444   15676270.0794
 04  7 17  2 45 29.9770000  0  8G29G13G28G10G19G27G 8G31
  -2987700.68447  -2293827.16142  17715758.8024   17715759.2784
 -82367523.41448 -64166038.35644  15202578.9034   15202577.6534
 -37800034.60949 -29419494.69245  14817402.5834   14817400.5254
 -26754607.95347 -20817097.02542  16812589.8254   16812591.3494
 -43663845.77048 -34001695.37244  15635394.4664   15635391.5564
 -77671622.96949 -60506441.20346  13969678.9824   13969677.5954
 -60663519.78949 -47253026.72446  13858641.5684   13858640.0014
 -22546035.19948 -17531965.96143  15636111.5684   15636112.0644
 04  7 17  2 45 59.9770000  0  8G29G13G28G10G19G27G 8G31
  -3192100.14547  -2453099.36942  17676863.4504   17676863.1854
 -82382798.66848 -64177941.22744  15199672.3104   15199671.1144
 -37958781.09449 -29543193.18745  14787193.8184   14787191.9314
 -26834091.28547 -20879032.12042  16797465.0284   16797465.8104
 -43738469.27048 -34059843.54844  15621194.2324   15621191.0524
 -77775942.37149 -60587729.03646  13949827.7004   13949825.9114
 -60802063.38349 -47360982.77546  13832277.7164   13832275.7434
 -22756832.12948 -17696223.16643  15595998.1854   15595998.6304
 04  7 17  2 46 29.9770000  0  8G29G13G28G10G19G27G 8G31
  -3396364.85947  -2612266.58342  17637992.8494   17637992.6504
 -82397725.10948 -64189572.29744  15196831.8184   15196830.5834
 -38117199.21149 -29666635.81545  14757048.1774   14757045.9274
 -26913077.95347 -20940580.18442  16782434.5214   16782434.8334
 -43812538.51247 -34117559.86244  15607099.7474   15607096.0214
 -77880031.87548 -60668837.73146  13930020.0444   13930018.3374
 -60940377.48849 -47468759.99846  13805957.4584   13805955.8724
 -22967395.27048 -17860298.22043  15555929.6224   15555929.6814
 04  7 17  2 46 59.9770000  0  8G29G13G28G10G19G27G 8G31
  -3600487.80147  -2771323.33242  17599149.0284   17599150.0754
 -82412299.82048 -64200929.29144  15194058.5834   15194057.6854
 -38275284.30549 -29789818.95345  14726965.5134   14726963.4154
 -26991565.10246 -21001738.99842  16767498.5604   16767500.0404
 -43886049.87947 -34174841.43844  15593110.4034   15593107.7754
 -77983886.12548 -60749763.11146  13910257.0444   13910255.3684
 -61078456.73849 -47576354.20146  13779681.8254   13779680.1574
 -23177716.86748 -18024185.03943  15515906.5754   15515906.5324
 04  7 17  2 47 29.9770000  0  8G29G13G28G10G19G27G 8G31
  -3804465.90647  -2930267.27942  17560333.6074   17560333.4004
 -82426524.59048 -64212013.61044  15191351.7554   15191350.6774
 -38433035.92249 -29912742.23445  14696946.0994   14696944.2634
 -27069553.87947 -21062509.49942  16752658.0994   16752659.4354
 -43959003.69548 -34231688.56844  15579228.0994   15579224.8334
 -78087503.63349 -60830504.02246  13890539.2164   13890538.0914
 -61216299.79749 -47683764.37846  13753451.1534   13753449.5754
 -23387793.51248 -18187881.00644  15475930.3644   15475930.1854
 04  7 17  2 47 59.9770000  0  8G29G13G28G10G19G27G 8G31
  -4008299.14547  -3089098.26442  17521545.6304   17521545.3724
 -82440403.74648 -64222828.61244  15188710.7634   15188710.2674
 -38590455.98849 -30035407.16845  14666990.1144   14666988.3414
 -27147048.27046 -21122894.75142  16737911.2244   16737912.2084
 -44031403.03548 -34288103.64344  15565451.2714   15565447.8294
 -78190885.53149 -60911061.33346  13870866.4034   13870864.7364
 -61353907.75049 -47790991.31246  13727265.0054   13727263.6934
 -23597623.94148 -18351385.10543  15436000.8884   15436000.9194
 04  7 17  2 48 29.9770000  0  8G29G13G28G10G19G27G 8G31
  -4211986.99646  -3247815.95542  17482784.9194   17482785.3414
 -82453941.26648 -64233377.41944  15186134.6854   15186133.7634
 -38747546.33649 -30157815.17645  14637096.9194   14637094.6574
 -27224052.08246 -21182897.73542  16723258.2324   16723258.5324
 -44103250.91047 -34344088.99344  15551778.7394   15551775.6384
 -78294032.61749 -60991435.66646  13851238.2554   13851236.7044
 -61491281.43049 -47898035.69446  13701124.0604   13701122.1464
 -23807207.07048 -18514696.50544  15396118.2714   15396118.0524
 04  7 17  2 48 59.9770000  0  8G29G13G28G10G19G27G 8G31
  -4415520.38746  -3406413.28741  17444054.2474   17444053.0254
 -82467132.48448 -64243656.38044  15183624.4824   15183623.8374
 -38904300.24249 -30279961.02445  14607267.3724   14607265.6734
 -27300560.46546 -21242514.66942  16708698.6144   16708699.2514
 -44174541.72747 -34399640.32544  15538212.4274   15538209.5174
 -78396937.44149 -61071621.24046  13831656.0214   13831654.4464
 -61628413.84849 -48004892.08446  13675028.3494   13675026.7984
 -24016533.11348 -18677807.58244  15356284.6934   15356284.6504
 04  7 17  2 49 29.9770000  0  8G29G13G28G10G19G27G 8G31
  -4618902.78946  -3564892.98841  17405350.6614   17405350.9584
 -82479985.12148 -64253671.50144  15181178.8104   15181177.7864
 -39060723.60549 -30401849.30845  14577501.4194   14577499.2674
 -27376580.93747 -21301751.40142  16694232.1694   16694233.5014
 -44245282.29748 -34454762.86344  15524750.7244   15524748.4004
 -78499604.76649 -61151621.73046  13812119.0754   13812117.2634
 -61765309.58649 -48111564.04046  13648977.8644   13648976.3294
 -24225604.93448 -18840720.55944  15316499.5754   15316499.4934
 04  7 17  2 49 59.9770000  0  8G29G13G28G10G19G27G 8G31
  -4822134.31246  -3723255.13041  17366676.9584   17366676.9274
 -82492503.63348 -64263426.28744  15178796.8334   15178795.9504
 -39216818.85549 -30523481.92445  14547797.6074   14547795.1734
 -27452118.00446 -21360611.49942  16679858.4894   16679859.5564
 -44315476.31248 -34509459.51244  15511393.5444   15511390.3644
 -78602036.19949 -61231438.39746  13792627.0284   13792625.2634
 -61901970.17649 -48218052.79546  13622972.5524   13622970.7864
 -24434421.89148 -19003434.94344  15276762.6694   15276762.8294
 04  7 17  2 50 29.9770000  0  8G29G13G28G10G19G27G 8G31
  -5025210.66446  -3881496.25841  17328032.2244   17328032.2044
 -82504688.67648 -64272921.21744  15176478.0754   15176477.1574
 -39372584.03149 -30644857.33345  14518155.7864   14518153.8334
 -27527171.58247 -21419094.81143  16665576.0134   16665577.2394
 -44385122.83248 -34563729.54244  15498139.8104   15498137.4934
 -78704228.65649 -61311068.87046  13773180.2554   13773178.6894
 -62038392.53149 -48324355.86646  13597012.0444   13597010.1184
 -24642978.84448 -19165946.74444  15237075.6534   15237075.3684
 04  7 17  2 50 59.9770000  0  8G29G13G28G10G19G27G 8G31
  -5228128.16846  -4039613.72341  17289418.5914   17289417.4744
 -82516540.97748 -64282156.86744  15174222.7004   15174221.6934
 -39528017.60949 -30765974.36445  14488577.9194   14488576.1304
 -27601742.18047 -21477201.80842  16651385.7554   16651386.1614
 -44454221.82848 -34617572.91744  15484991.2864   15484987.7164
 -78806180.27049 -61390511.65846  13753779.5994   13753778.1114
 -62174574.18749 -48430471.39846  13571097.3804   13571095.6264
 -24851271.61348 -19328252.66944  15197438.6144   15197438.7284
 04  7 17  2 51 29.9770000  0  8G29G13G28G10G19G27G 8G31
  -5430882.73446  -4197604.18641  17250835.8254   17250835.5174
 -82528060.81648 -64291133.47844  15172030.6144   15172029.8924
 -39683118.03549 -30886831.78945  14459063.2554   14459061.4194
 -27675830.01247 -21534932.62542  16637287.1074   16637288.1224
 -44522772.44948 -34670988.99244  15471946.1464   15471943.5914
 -78907887.96549 -61469764.38846  13734425.0524   13734423.7864
 -62310513.12549 -48536397.81446  13545229.0214   13545227.5644
 -25059295.18448 -19490348.85244  15157853.4034   15157853.2204
 04  7 17  2 51 59.9760000  0  8G29G13G28G10G19G27G 8G31
  -5633463.10547  -4355458.86741  17212286.6334   17212285.4064
 -82539247.96148 -64299850.82644  15169901.7274   15169900.8014
 -39837878.19149 -31007424.08545  14429613.3204   14429611.0004
 -27749432.74647 -21592285.42042  16623280.7744   16623282.2544
 -44590771.71148 -34723975.44844  15459006.6954   15459003.2894
 -79009345.57449 -61548822.24546  13715118.6254   13715116.7894
 -62446201.67249 -48642129.10246  13519408.4774   13519406.6954
 -25267037.64848 -19652225.98244  15118320.6884   15118320.5674
 04  7 17  2 52 29.9760000  0  8G29G13G28G10G19G27G 8G31
  -5835886.71947  -4513191.42442  17173766.6254   17173766.1214
 -82550111.56248 -64308316.06543  15167834.8604   15167834.3834
 -39992314.63749 -31127764.11345  14400224.9534   14400223.2274
 -27822563.41047 -21649270.39142  16609365.0004   16609366.1684
 -44658231.58648 -34776541.62744  15446168.9454   15446166.4344
 -79110565.07849 -61627694.56846  13695857.2274   13695855.2664
 -62581653.57049 -48747675.96446  13493632.8054   13493630.5354
 -25474516.00848 -19813897.29444  15078838.6024   15078838.5474
 04  7 17  2 52 59.9760000  0  8G29G13G28G10G19G27G 8G31
  -6038140.67647  -4670791.74642  17135278.8444   17135278.8674
 -82560649.87148 -64316527.81144  15165829.1564   15165828.6534
 -40146418.57849 -31247845.06945  14370899.8364   14370898.0784
 -27895218.06647 -21705884.44742  16595539.4224   16595540.1564
 -44725147.32448 -34828683.77344  15433435.6414   15433433.0394
 -79211538.60949 -61706375.24246  13676642.3604   13676640.6844
 -62716860.09449 -48853031.66346  13467903.5944   13467901.7624
 -25681716.70348 -19975352.27644  15039409.7974   15039409.4304
 04  7 17  2 53 29.9760000  0  8G29G13G28G10G19G27G 8G31
  -6240220.32847  -4828256.31942  17096824.1724   17096824.3754
 -82570862.46548 -64324485.78344  15163886.3204   15163885.1414
 -40300187.69549 -31367665.11145  14341638.2974   14341636.4144
 -27967396.26647 -21762127.21542  16581804.0244   16581804.5434
 -44791517.64148 -34880400.94844  15420805.6644   15420803.2314
 -79312262.79349 -61784861.60846  13657475.4384   13657473.8284
 -62851817.93749 -48958193.56146  13442221.8914   13442220.1254
 -25888634.19548 -20136586.56044  15000034.9924   15000034.1644
 04  7 17  2 53 59.9760000  0  8G29G13G28G10G19G27G 8G31
  -6442127.48847  -4985586.41142  17058402.3604   17058402.5394
 -82580756.31248 -64332195.35044  15162003.1724   15162002.8524
 -40453626.32449 -31487227.63245  14312440.2894   14312438.0514
 -28039104.38347 -21818003.71842  16568158.6954   16568159.6064
 -44857348.30948 -34931697.61644  15408278.7274   15408276.0784
 -79412740.75449 -61863156.10946  13638354.7814   13638353.2814
 -62986530.37149 -49063164.24746  13416586.9774   13416585.2234
 -26095269.64548 -20297601.08344  14960713.3674   14960712.9654
 04  7 17  2 54 29.9760000  0  8G29G13G28G10G19G27G 8G31
  -6643861.84847  -5142781.89942  17020013.4224   17020014.0634
 -82590335.30148 -64339659.58444  15160180.3994   15160180.1724
 -40606736.53949 -31606534.25845  14283303.8834   14283302.3094
 -28110346.42647 -21873517.02842  16554601.9064   16554602.8174
 -44922642.69948 -34982576.40544  15395853.1174   15395850.4964
 -79512973.78549 -61941259.74346  13619281.1884   13619279.5514
 -63120998.89549 -49167944.86846  13390998.5864   13390996.5674
 -26301622.19148 -20458395.15944  14921445.2584   14921445.2234
 04  7 17  2 54 59.9760000  0  8G29G13G28G10G19G27G 8G31
  -6845415.91847  -5299836.89642  16981657.7354   16981658.9454
 -82599596.88348 -64346876.48244  15158418.2814   15158417.5124
 -40759513.41449 -31725581.12545  14254231.7664   14254229.7464
 -28181119.50847 -21928664.93242  16541134.1174   16541135.4344
 -44987397.01648 -35033034.35744  15383531.1494   15383528.5244
 -79612955.87149 -62019167.85446  13600255.4454   13600253.6494
 -63255216.94549 -49272530.31646  13365457.8054   13365455.6294
 -26507683.78548 -20618962.50544  14882233.2974   14882232.9144
 04  7 17  2 55 29.9760000  0  8G29G13G28G10G19G27G 8G31
  -7046789.22346  -5456751.00642  16943338.2894   16943339.1844
 -82608544.94548 -64353849.09544  15156715.6644   15156714.6374
 -40911959.10249 -31844369.92545  14225222.3284   14225220.2704
 -28251427.60546 -21983450.50842  16527754.8914   16527756.2584
 -45051614.50848 -35083074.04144  15371310.9854   15371308.6994
 -79712688.09849 -62096881.25846  13581276.9384   13581275.3094
 -63389185.58249 -49376921.40346  13339964.3054   13339962.4424
 -26713453.23448 -20779302.23844  14843076.8134   14843076.3604
 04  7 17  2 55 59.9760000  0  8G29G13G28G10G19G27G 8G31
  -7247976.98046  -5613520.56042  16905053.4614   16905054.1254
 -82617179.50448 -64360577.40544  15155072.4854   15155071.6604
 -41064071.25849 -31962898.84445  14196276.4854   14196274.1804
 -28321270.55546 -22037873.61242  16514464.5704   16514465.4814
 -45115294.14848 -35132694.59044  15359193.7424   15359190.5004
 -79812166.94949 -62174397.19746  13562346.6104   13562345.0204
 -63522901.69949 -49481115.72346  13314518.7664   13314516.9854
 -26918925.25048 -20939410.18044  14803976.5704   14803976.0864
 04  7 17  2 56 29.9760000  0  8G29G13G28G10G19G27G 8G31
  -7448978.22346  -5770144.80142  16866803.7504   16866804.4304
 -82625504.09048 -64367064.15144  15153488.2814   15153487.8174
 -41215851.21949 -32081168.89545  14167393.2664   14167391.4924
 -28390651.78146 -22091936.96042  16501262.0704   16501262.6024
 -45178438.69148 -35181898.17644  15347177.7664   15347175.0634
 -79911392.91449 -62251716.10046  13543464.5314   13543462.8174
 -63656365.01249 -49585113.05646  13289121.5084   13289119.3674
 -27124097.97748 -21099284.91344  14764933.2814   14764932.7584
 04  7 17  2 56 59.9760000  0  8G29G13G28G10G19G27G 8G31
  -7649791.53146  -5926622.65142  16828590.0864   16828590.3484
 -82633522.00048 -64373311.97343  15151962.5944   15151962.0944
 -41367300.32049 -32199181.14045  14138573.3994   14138571.3174
 -28459574.35946 -22145642.94242  16488146.6724   16488147.4304
 -45241050.39147 -35230686.57744  15335262.4064   15335260.5984
 -80010366.11749 -62328838.05046  13524630.6884   13524628.9064
 -63789576.09849 -49688913.86446  13263772.4144   13263770.4534
 -27328969.56248 -21258925.00144  14725947.7584   14725947.0904
 04  7 17  2 57 29.9760000  0  8G29G13G28G10G19G27G 8G31
  -7850414.60546  -6082952.22242  16790413.1414   16790412.6414
 -82641235.48048 -64379322.56343  15150495.5244   15150494.5314
 -41518418.73449 -32316935.69445  14109816.6334   14109814.6994
 -28528040.68747 -22198993.35142  16475117.2974   16475118.4534
 -45303131.03948 -35279061.16144  15323449.0474   15323446.5634
 -80109085.73849 -62405762.41846  13505844.9064   13505842.8524
 -63922534.62549 -49792517.86546  13238471.1724   13238469.1214
 -27533537.00848 -21418328.09144  14687019.1804   14687019.1564
 04  7 17  2 57 59.9760000  0  8G29G13G28G10G19G27G 8G31
  -8050843.71547  -6239130.65441  16752272.7274   16752272.0354
 -82648645.97348 -64385097.04043  15149084.9144   15149084.2854
 -41669205.47349 -32434431.80645  14081122.7974   14081120.5904
 -28596051.84847 -22251989.14842  16462175.3204   16462176.5594
 -45364680.68048 -35327021.94544  15311736.7354   15311734.2934
 -80207549.71549 -62482487.58146  13487107.8284   13487106.0004
 -64055237.48049 -49895922.66546  13213218.6104   13213216.4064
 -27737796.23848 -21577491.00144  14648149.8364   14648149.5554
 04  7 17  2 58 29.9760000  0  8G29G13G28G10G19G27G 8G31
  -8251076.46547  -6395156.16341  16714169.4534   16714168.2114
 -82655755.65248 -64390637.14143  15147732.1024   15147731.5394
 -41819660.51649 -32551669.44545  14052492.2744   14052490.1104
 -28663610.00046 -22304631.91942  16449319.8364   16449320.7504
 -45425700.77348 -35374570.11944  15300125.0244   15300122.5704
 -80305756.76649 -62559012.56446  13468419.3444   13468417.9694
 -64187683.97349 -49999127.70546  13188014.9454   13188013.0084
 -27941744.03548 -21736411.26744  14609340.0944   14609339.5594
 04  7 17  2 58 59.9760000  0  8G29G13G28G10G19G27G 8G31
  -8451112.41847  -6551028.30042  16676103.8994   16676103.3874
 -82662568.81247 -64395946.18643  15146435.5474   15146435.0314
 -41969786.01249 -32668650.30945  14023924.1564   14023921.9144
 -28730719.35547 -22356924.95242  16436549.4774   16436550.6104
 -45486194.89548 -35421708.45944  15288613.3444   15288611.1644
 -80403708.21548 -62635338.36346  13449780.1024   13449778.5004
 -64319875.04349 -50102133.72846  13162859.5244   13162857.6064
 -28145379.33248 -21895088.00444  14570589.5244   14570588.7274
 04  7 17  2 59 29.9750000  0  8G29G13G28G10G19G27G 8G31
  -8650940.52747  -6706738.50042  16638078.1204   16638077.3594
 -82669085.34848 -64401024.06543  15145195.5424   15145195.1364
 -42119575.51249 -32785369.34545  13995420.3314   13995418.0504
 -28797378.00847 -22408866.80842  16423864.7304   16423865.4294
 -45546160.62948 -35468435.07944  15277203.4094   15277199.5114
 -80501397.85949 -62711460.17846  13431190.3394   13431188.7734
 -64451803.74249 -50204935.30446  13137754.5424   13137752.5424
 -28348690.67248 -22053512.31344  14531900.7144   14531899.6984
 04  7 17  2 59 59.9750000  0  8G29G13G28G10G19G27G 8G31
  -8850573.11747  -6862296.35442  16600089.4564   16600089.0974
 -82675309.38748 -64405874.06843  15144011.5114   15144010.8084
 -42269040.13349 -32901835.23545  13966977.8704   13966975.7804
 -28863593.89547 -22460463.67142  16411264.1914   16411265.1404
 -45605604.71948 -35514755.22244  15265891.0584   15265888.5974
 -80598832.55549 -62787383.30146  13412649.1834   13412647.3624
 -64583479.03549 -50307539.42546  13112697.4334   13112695.7534
 -28551689.76248 -22211693.31544  14493270.9954   14493270.2804
 04  7 17  3  0 29.9750000  0  9G29G13G28G 7G10G19G27G 8G31
  -9049998.91446  -7017693.03842  16562139.4954   16562139.8164
 -82681241.05548 -64410496.22643  15142882.4414   15142881.6914
 -42418173.16849 -33018042.74246  13938598.9954   13938596.6874
   -325414.32855   -218576.71851  16964832.1754   16964837.7224
 -28929365.22746 -22511714.17142  16398747.7774   16398749.3084
 -45664524.43448 -35560666.76244  15254678.7844   15254676.4954
 -80696006.19149 -62863103.03046  13394157.5894   13394155.8984
 -64714893.49249 -50409940.31946  13087690.3704   13087688.1874
 -28754364.82848 -22369621.83344  14454702.9564   14454702.5274
 04  7 17  3  0 59.9750000  0  9G29G13G28G 7G10G19G27G 8G31
  -9249226.54346  -7172935.24242  16524227.7614   16524227.5974
 -82686893.80148 -64414901.06843  15141806.8704   15141806.4604
 -42566986.07849 -33134000.80545  13910280.2924   13910278.0774
   -535793.98845   -382508.53141  16924798.0504   16924804.1204
 -28994705.02047 -22562628.32042  16386314.8624   16386315.9374
 -45722932.74648 -35606179.82244  15243564.1284   15243562.0774
 -80792928.77049 -62938627.11446  13375713.6594   13375711.9604
 -64846056.78949 -50512145.48846  13062730.5194   13062728.4684
 -28956723.89848 -22527304.13144  14416195.2774   14416194.9954
 04  7 17  3  1 29.9750000  0  9G29G13G28G 7G10G19G27G 8G31
  -9448253.56646  -7328021.21142  16486353.9564   16486354.7614
 -82692269.90648 -64419090.31443  15140784.4874   15140783.6244
 -42715478.64849 -33249709.25745  13882023.4954   13882021.1834
   -746147.67645   -546420.15942  16884768.1444   16884774.1914
 -29059615.64547 -22613208.08342  16373962.6524   16373963.6984
 -45780830.95748 -35651295.39544  15232547.2224   15232544.7344
 -80889599.09049 -63013954.64146  13357317.9174   13357316.5974
 -64976967.93749 -50614154.14246  13037819.2224   13037817.2694
 -29158763.89849 -22684737.77844  14377748.5424   14377747.5624
 04  7 17  3  1 59.9750000  0  9G29G13G28G 7G10G19G27G 8G31
  -9647076.62946  -7482948.17742  16448519.7924   16448519.3394
 -82697370.47748 -64423064.87143  15139813.2144   15139812.9094
 -42863650.53949 -33365167.81745  13853827.3784   13853824.9134
   -956472.16446   -710308.98841  16844744.9954   16844750.7374
 -29124098.75447 -22663454.69142  16361691.0814   16361693.1404
 -45838219.65648 -35696013.91944  15221626.1594   15221623.2924
 -80986015.66449 -63089084.45146  13338970.6204   13338968.9294
 -65107625.38349 -50715965.10146  13012955.8164   13012953.7964
 -29360481.05149 -22841919.88744  14339362.6284   14339361.8084
 04  7 17  3  2 29.9750000  0  9G29G13G28G 7G10G19G27G 8G31
  -9845691.72346  -7637713.13342  16410723.2614   16410724.7144
 -82702196.83647 -64426825.75543  15138894.9024   15138894.7144
 -43011500.25849 -33480375.33345  13825692.1674   13825689.7184
  -1166763.49246   -874172.02642  16804727.7614   16804733.2024
 -29188154.78947 -22713368.51742  16349502.8944   16349503.9254
 -45895099.14548 -35740335.66144  15210802.2614   15210800.0894
 -81082175.93449 -63164014.53646  13320671.8554   13320670.3434
 -65238026.13349 -50817576.05746  12988141.2144   12988139.2494
 -29561870.78148 -22998846.84144  14301039.8944   14301038.9644
 04  7 17  3  2 59.9750000  0  9G29G13G28G 7G10G19G27G 8G31
 -10044092.41446  -7792311.04242  16372969.6204   16372969.4484
 -82706746.56247 -64430371.08943  15138028.9724   15138028.9054
 -43159023.87149 -33595328.74845  13797619.3394   13797617.0624
  -1377015.27046  -1038004.26141  16764718.4094   16764723.1164
 -29251782.33247 -22762948.49842  16337394.9254   16337395.7734
 -45951466.69548 -35784258.51144  15200075.7614   15200073.8124
 -81178074.67249 -63238740.83046  13302423.3554   13302421.2184
 -65368165.44149 -50918983.31546  12963376.4414   12963374.5854
 -29762926.00049 -23155513.14744  14262780.0664   14262779.0704
 04  7 17  3  3 29.9750000  0  9G29G13G28G 7G10G19G27G 8G31
 -10242276.29747  -7946740.01942  16335256.6364   16335257.1324
 -82711023.05548 -64433703.48343  15137215.7454   15137215.1164
 -43306221.97749 -33710028.50245  13769608.6204   13769606.1094
  -1587225.68746  -1201804.14842  16724716.2064   16724721.5114
 -29314983.91447 -22812196.56042  16325366.9094   16325368.9374
 -46007324.37148 -35827784.04144  15189446.6834   15189444.1674
 -81273711.44549 -63313262.99346  13284224.0114   13284221.9294
 -65498042.52049 -51020186.23847  12938661.8004   12938659.9454
 -29963644.06249 -23311916.74344  14224584.5814   14224583.7304
 04  7 17  3  3 59.9750000  0  9G29G13G28G 7G10G19G27G 8G31
 -10440240.24647  -8100997.59742  16297585.3784   16297584.9764
 -82715027.61747 -64436824.02043  15136453.6364   15136453.0854
 -43453094.39149 -33824474.47745  13741659.7224   13741657.3434
  -1797391.32446  -1365569.17741  16684722.3554   16684727.3354
 -29377761.24647 -22861114.00142  16313421.9254   16313422.8944
 -46062673.18448 -35870913.06644  15178914.5274   15178911.8434
 -81369084.44149 -63387579.62446  13266075.2844   13266073.3824
 -65627655.37949 -51121183.26246  12913997.4334   12913995.3164
 -30164021.21549 -23468054.69544  14186453.9644   14186453.2304
 04  7 17  3  4 29.9750000  0  9G29G13G28G 7G10G19G27G 8G31
 -10637980.69547  -8255081.09242  16259956.4804   16259956.3124
 -82718761.45748 -64439733.59643  15135742.9564   15135742.5114
 -43599639.89149 -33938665.72846  13713772.6914   13713770.4134
  -2007508.94946  -1529296.89242  16644738.2694   16644742.8554
 -29440115.60547 -22909701.85242  16301556.6054   16301557.5384
 -46117513.63348 -35913645.95444  15168478.6284   15168476.4644
 -81464191.70749 -63461689.21046  13247976.5814   13247975.3394
 -65757002.31649 -51221973.08546  12889383.4174   12889381.5734
 -30364053.42248 -23623923.84844  14148388.7924   14148387.8274
 04  7 17  3  4 59.9750000  0  9G29G13G28G 7G10G19G27G 8G31
 -10835493.80947  -8408987.40442  16222371.0504   16222370.3624
 -82722225.61347 -64442433.02143  15135084.1204   15135083.5934
 -43745857.55549 -34052601.50446  13685948.4174   13685946.0194
  -2217574.83246  -1692984.11642  16604763.5894   16604768.4874
 -29502047.95747 -22957960.89742  16289771.4094   16289772.1014
 -46171845.98448 -35955982.91144  15158139.8004   15158137.6524
 -81559030.95749 -63535589.93846  13229929.7374   13229927.9254
 -65886080.92649 -51322553.80846  12864820.5034   12864818.5624
 -30563736.44149 -23779520.91144  14110390.6444   14110389.5074
 04  7 17  3  5 29.9750000  0  9G29G13G28G 7G10G19G27G 8G31
 -11032777.17247  -8562714.74942  16184829.5894   16184828.4174
 -82725422.23847 -64444923.96243  15134476.0894   15134475.2734
 -43891747.42249 -34166281.86746  13658186.5974   13658184.0704
  -2427586.23446  -1856629.03242  16564800.2774   16564805.3824
 -29563560.53547 -23005892.87242  16278065.1284   16278066.4914
 -46225671.71548 -35997925.10044  15147897.3624   15147894.3824
 -81653601.00049 -63609280.90946  13211933.5424   13211931.7454
 -66014889.79749 -51422924.37146  12840309.1364   12840307.0234
 -30763067.14149 -23934843.45344  14072459.1984   14072458.2224
 04  7 17  3  5 59.9750000  0  9G29G13G28G 7G10G19G27G 8G31
 -11229827.57446  -8716260.56542  16147332.0034   16147331.4954
 -82728352.98448 -64447207.76543  15133918.4484   15133917.9684
 -44037309.16449 -34279706.53545  13630487.4804   13630484.5584
  -2637540.77046  -2020229.64242  16524846.0894   16524851.3274
 -29624655.47747 -23053499.36142  16266439.6124   16266440.7144
 -46278992.19148 -36039473.59544  15137749.7144   15137748.0774
 -81747900.34049 -63682760.92946  13193988.8474   13193987.3824
 -66143427.24649 -51523083.44246  12815849.1594   12815847.2064
 -30962041.98049 -24089888.69544  14034595.4724   14034594.6364
 04  7 17  3  6 29.9750000  0  9G29G13G28G 7G10G19G27G 8G31
 -11426641.83246  -8869622.29542  16109879.2064   16109879.1554
 -82731020.09848 -64449286.10843  15133410.8004   15133409.9214
 -44182542.68449 -34392875.45046  13602850.1444   13602847.6874
  -2847434.97346  -2183783.10342  16484903.9484   16484908.8354
 -29685334.19147 -23100781.51442  16254892.6834   16254893.7774
 -46331808.23048 -36080629.00444  15127699.4874   15127697.8044
 -81841927.46549 -63756028.83946  13176096.1284   13176094.4454
 -66271691.41849 -51623029.55746  12791441.2614   12791439.4214
 -31160657.37148 -24244653.85344  13996800.2224   13996799.2024
 04  7 17  3  6 59.9740000  0  9G29G13G28G 7G10G19G27G 8G31
 -11623213.47346  -9022795.01642  16072472.8584   16072473.1824
 -82733428.20748 -64451162.63743  15132952.6784   15132951.7484
 -44327445.71549 -34505786.85146  13575275.9674   13575273.2994
  -3057262.01646  -2347284.39242  16444975.1004   16444980.2294
 -29745600.08647 -23147742.03342  16243425.3194   16243426.1744
 -46384122.63748 -36121393.55944  15117744.7874   15117742.2094
 -81935680.80549 -63829083.42446  13158255.4124   13158253.9084
 -66399679.87149 -51722760.83546  12767086.0764   12767083.8894
 -31358906.25449 -24399133.41644  13959074.8734   13959073.6394
 04  7 17  3  7 29.9740000  0  9G29G13G28G 7G10G19G27G 8G31
 -11819551.87946  -9175785.99442  16035111.0924   16035111.0804
 -82735578.26648 -64452838.07843  15132543.5224   15132542.8974
 -44472026.77049 -34618447.33745  13547762.8814   13547760.5414
  -3267032.41846  -2510741.47242  16405057.0844   16405061.4674
 -29805458.07447 -23194384.69442  16232033.8114   16232035.2294
 -46435939.25048 -36161770.17244  15107884.4514   15107882.0574
 -82029164.25849 -63901927.69746  13140466.3424   13140464.6274
 -66527398.44549 -51822281.84046  12742781.9984   12742780.0924
 -31556797.66049 -24553334.41944  13921416.6704   13921415.8504
 04  7 17  3  7 59.9740000  0 10G29G13G28G 7G10G19G27G26G 8G31
 -12015646.14845  -9328586.74042  15997795.7954   15997795.8814
 -82737471.26247 -64454313.26143  15132183.3424   15132182.7604
 -44616279.59449 -34730852.07146  13520312.4124   13520309.9014
  -3476735.00446  -2674145.64242  16365151.7644   16365156.5694
 -29864906.91847 -23240708.50042  16220721.3114   16220722.2014
 -46487256.22348 -36201757.46944  15098118.9594   15098116.6944
 -82122372.13749 -63974557.24346  13122729.0844   13122727.7604
   -318033.22356   -213712.17952  16615157.2404   16615158.9634
 -66654840.23449 -51921587.15246  12718530.5614   12718528.7954
 -31754320.24648 -24707248.04144  13883829.4044   13883828.8544
 04  7 17  3  8 29.9740000  0 10G29G13G28G 7G10G19G27G26G 8G31
 -12211502.80547  -9481202.29442  15960525.5534   15960525.9124
 -82739118.21948 -64455596.67643  15131869.9044   15131869.6624
 -44760213.61349 -34843008.38545  13492922.5294   13492920.0374
  -3686376.36746  -2837502.10042  16325257.9904   16325262.1394
 -29923958.08246 -23286722.42242  16209483.3974   16209485.5724
 -46538084.39548 -36241363.89144  15088446.5534   15088444.6004
 -82215312.41849 -64046978.26546  13105043.3194   13105041.5574
   -523325.75846   -373680.29042  16576092.0924   16576093.6084
 -66782012.91849 -52020682.76346  12694330.6704   12694328.6154
 -31951480.03149 -24860878.97144  13846311.2644   13846310.2524
 04  7 17  3  8 59.9740000  0 10G29G13G28G 7G10G19G27G26G 8G31
 -12407123.12145  -9633633.69442  15923300.3894   15923300.5144
 -82740525.52047 -64456693.37843  15131602.3894   15131601.9474
 -44903833.10549 -34954919.62346  13465592.5694   13465590.1084
  -3895957.85545  -3000811.94342  16285374.8194   16285379.9444
 -29982617.81647 -23332431.40742  16198321.6234   16198323.1944
 -46588429.32447 -36280593.78243  15078866.5534   15078864.4124
 -82307987.94549 -64119192.97646  13087407.9754   13087406.1664
   -728416.26246   -533490.92242  16537064.2954   16537065.7404
 -66908920.05949 -52119571.46346  12670180.6234   12670178.9474
 -32148278.00848 -25014227.97444  13808861.8194   13808860.9834
 04  7 17  3  9 29.9740000  0 10G29G13G28G 7G10G19G27G26G 8G31
 -12602496.21947  -9785872.45742  15886122.1004   15886122.0064
 -82741687.22747 -64457598.68643  15131381.4834   15131380.7524
 -45047129.89149 -35066579.38446  13438324.3894   13438321.8624
  -4105468.93045  -3164066.94342  16245505.7794   16245510.7834
 -30040880.40647 -23377830.86442  16187234.2794   16187236.0654
 -46638284.53548 -36319442.02344  15069379.0694   15069377.2374
 -82400389.44949 -64191194.18046  13069824.8194   13069823.0024
   -933293.39547   -693135.31742  16498077.2174   16498078.2644
 -67035551.62149 -52218245.42446  12646083.5924   12646081.5024
 -32344702.91049 -25167286.26244  13771483.2564   13771482.5724
 04  7 17  3  9 59.9740000  0 10G29G13G28G 7G10G19G27G26G 8G31
 -12797622.48047  -9937918.84642  15848990.8504   15848990.4284
 -82742608.47747 -64458316.65743  15131206.3654   15131205.2954
 -45190107.28949 -35177990.28646  13411116.6314   13411113.6824
  -4314910.09845  -3327267.48842  16205650.0454   16205654.9984
 -30098751.24647 -23422925.10442  16176222.4674   16176224.0264
 -46687654.84048 -36357912.46644  15059984.7874   15059982.3264
 -82492519.03149 -64262983.47846  13052292.9754   13052291.0574
  -1137957.57847   -852613.76442  16459130.9904   16459131.9944
 -67161909.29749 -52316705.96647  12622038.6784   12622037.0654
 -32540754.75448 -25320053.85644  13734175.6394   13734175.1274
 04  7 17  3 10 29.9740000  0 10G29G13G28G 7G10G19G27G26G 8G31
 -12992495.13347 -10089767.54942  15811907.7484   15811907.6824
 -82743287.32847 -64458845.73643  15131076.5924   15131076.5064
 -45332760.96149 -35289148.94446  13383970.2334   13383967.7214
  -4524274.54346  -3490408.22742  16165809.4674   16165814.2014
 -30156228.37947 -23467712.55242  16165285.0224   16165286.0374
 -46736537.66448 -36396003.03944  15050682.3654   15050680.3584
 -82584371.10549 -64334556.54146  13034814.0534   13034812.1314
  -1342401.68447  -1011920.75342  16420226.4834   16420227.4324
 -67287988.07449 -52414949.17446  12598046.8034   12598044.9944
 -32736426.25449 -25472525.08644  13696940.5224   13696940.2444
 04  7 17  3 10 59.9740000  0 10G29G13G28G 7G10G19G27G26G 8G31
 -13187112.12147 -10241417.05542  15774872.7174   15774872.8194
 -82743726.98848 -64459188.46043  15130993.2254   15130993.0454
 -45475092.10249 -35400056.28146  13356885.8114   13356883.2564
  -4733560.25045  -3653487.55742  16125984.1474   16125987.5724
 -30213315.26647 -23512195.91342  16154421.2094   16154423.2874
 -46784935.58648 -36433715.75644  15041473.1784   15041470.4044
 -82675945.41449 -64405913.15746  13017387.8894   13017386.1704
  -1546623.60247  -1171054.63342  16381364.3264   16381364.7644
 -67413786.95349 -52512974.28446  12574108.0224   12574105.9594
 -32931714.77749 -25624697.89945  13659778.3264   13659777.5574
 04  7 17  3 11 29.9740000  0 10G29G13G28G 7G10G19G27G26G 8G31
 -13381467.02746 -10392862.30942  15737887.9444   15737887.8304
 -82743925.75847 -64459343.43643  15130954.8734   15130954.8344
 -45617097.14849 -35510709.51846  13329863.0374   13329860.4364
  -4942761.30946  -3816501.04542  16086174.0064   16086177.8504
 -30270010.41447 -23556374.03542  16143633.4514   16143634.0654
 -46832846.21548 -36471048.76144  15032355.5534   15032353.6624
 -82767237.02049 -64477049.48646  13000016.0764   13000014.2724
  -1750616.82047  -1330010.25242  16342545.4444   16342546.1584
 -67539301.21549 -52610777.60146  12550223.3034   12550221.3624
 -33126613.91449 -25776567.28545  13622690.4124   13622689.6194
 04  7 17  3 11 59.9740000  0 10G29G13G28G 7G10G19G27G26G 8G31
 -13575562.44547 -10544105.33242  15700952.6944   15700953.0374
 -82743891.23047 -64459316.64043  15130961.8194   15130962.0884
 -45758781.41449 -35621112.80146  13302901.3814   13302898.8934
  -5151880.12545  -3979450.38442  16046379.1864   16046383.6704
 -30326321.42247 -23600252.86642  16132917.7724   16132918.2874
 -46880276.68748 -36508007.62044  15023330.2484   15023327.9324
 -82858250.21149 -64547968.86546  12982696.5144   12982694.8154
  -1954383.79747  -1488789.58842  16303769.8654   16303771.0144
 -67664535.04749 -52708362.41046  12526392.1004   12526390.3974
 -33321125.71149 -25928134.86045  13585676.0294   13585674.9674
 04  7 17  3 12 29.9740000  0 10G29G13G28G 7G10G19G27G26G 8G31
 -13769393.83247 -10695142.60942  15664068.6544   15664068.1044
 -82743623.78147 -64459108.34542  15131013.6394   15131013.1784
 -45900143.21949 -35731264.80646  13276000.9444   13275998.1944
  -5360912.42246  -4142332.40242  16006601.4754   16006605.4364
 -30382248.82847 -23643832.72142  16122274.6474   16122276.4554
 -46927226.86348 -36544592.19644  15014395.5294   15014393.7524
 -82948981.87149 -64618668.86246  12965430.6624   12965429.5294
  -2157919.71947  -1647388.87042  16265037.8974   16265037.6974
 -67789484.74649 -52805725.79146  12502615.1004   12502612.9674
 -33515245.27749 -26079396.79145  13548736.1624   13548735.0614
 04  7 17  3 12 59.9740000  0 10G29G13G28G 7G10G19G27G26G 8G31
 -13962957.59848 -10845971.35742  15627234.3654   15627233.8894
 -82743124.67647 -64458719.52042  15131108.1624   15131108.5104
 -46041181.77049 -35841164.94346  13249162.1944   13249159.3344
  -5569854.68746  -4305144.21442  15966840.4514   15966844.1664
 -30437794.14147 -23687114.93942  16111705.1624   16111706.1124
 -46973697.65248 -36580803.21144  15005552.1704   15005550.8304
 -83039430.11349 -64689148.00346  12948219.0454   12948217.6974
  -2361220.98047  -1805805.40641  16226351.1084   16226350.4714
 -67914148.16849 -52902866.12546  12478892.3424   12478890.2794
 -33708968.68049 -26230350.03245  13511872.0694   13511870.8154
 04  7 17  3 13 29.9740000  0 10G29G13G28G 7G10G19G27G26G 8G31
 -14156253.82847 -10996591.62142  15590451.4044   15590450.9244
 -82742399.03947 -64458154.21743  15131246.5374   15131246.2524
 -46181900.35549 -35950815.76946  13222384.0064   13222381.7444
  -5778707.27346  -4467886.17742  15927097.4284   15927101.2914
 -30492962.94547 -23730103.66942  16101206.2564   16101208.2834
 -47019693.60248 -36616644.26144  14996800.0144   14996798.0024
 -83129596.84849 -64759407.80846  12931060.9044   12931059.2484
  -2564287.40247  -1964038.85941  16187708.7954   16187708.4164
 -68038527.70349 -52999785.24446  12455223.9594   12455221.9714
 -33902295.74649 -26380994.44445  13475082.9444   13475081.7954
 04  7 17  3 13 59.9740000  0 10G29G13G28G 7G10G19G27G26G 8G31
 -14349277.06648 -11146999.19842  15553719.6474   15553719.5614
 -82741446.25847 -64457411.91143  15131427.4834   15131427.9874
 -46322296.11349 -36060215.03746  13195668.0374   13195665.4284
  -5987464.58746  -4630553.97142  15887371.9904   15887375.7294
 -30547754.32047 -23772798.33642  16090780.6544   16090782.6124
 -47065213.48048 -36652114.32444  14988138.5064   14988135.7094
 -83219477.84849 -64829444.94046  12913957.1544   12913955.4044
  -2767113.47347  -2122085.05541  16149111.8114   16149111.1004
 -68162618.41449 -53096479.26546  12431610.0534   12431608.0884
 -34095220.55149 -26531325.39945  13438370.5844   13438369.0454
 04  7 17  3 14 29.9730000  0 10G29G13G28G 7G10G19G27G26G 8G31
 -14542020.16447 -11297188.45642  15517042.0404   15517041.6184
 -82740270.53147 -64456495.86542  15131652.0564   15131651.7594
 -46462366.56249 -36169360.82146  13169013.4004   13169010.8884
  -6196119.19546  -4793141.67742  15847666.5324   15847669.4544
 -30602170.97747 -23815201.07842  16080426.0564   16080426.4074
 -47110259.72748 -36687215.32944  14979566.5014   14979563.6504
 -83309070.88749 -64899257.69846  12896908.3924   12896906.3764
  -2969691.48447  -2279937.86442  16110562.8144   16110562.9114
 -68286417.06649 -53192945.73446  12408051.7904   12408050.0404
 -34287735.61749 -26681337.07145  13401736.1574   13401735.0484
 04  7 17  3 14 59.9730000  0 10G29G13G28G 7G10G19G27G26G 8G31
 -14734490.35547 -11447165.05743  15480415.4864   15480415.8104
 -82738871.46548 -64455405.81443  15131918.4784   15131917.9934
 -46602118.30149 -36278258.26146  13142419.5794   13142417.0054
  -6404679.59046  -4955655.98842  15807978.4074   15807981.7434
 -30656216.36347 -23857314.50342  16070141.3764   16070142.6034
 -47154834.24648 -36721948.75244  14971084.2434   14971081.4784
 -83398378.01249 -64968847.67046  12879913.5714   12879911.8724
  -3172029.02346  -2437603.39641  16072058.8684   16072058.8294
 -68409928.03949 -53289188.03146  12384548.6424   12384546.5134
 -34479847.87549 -26831034.86445  13365178.2904   13365176.9314
 04  7 17  3 15 29.9730000  0 10G29G13G28G 7G10G19G27G26G 8G31
 -14926678.97747 -11596922.23942  15443843.6184   15443843.7324
 -82737251.53147 -64454143.64143  15132226.5324   15132226.0954
 -46741547.51249 -36386904.38746  13115887.0794   13115884.3144
  -6613136.55946  -5118089.76342  15768310.4154   15768313.2004
 -30709891.54346 -23899139.45842  16059926.3684   16059928.5134
 -47198937.48048 -36756314.91344  14962690.9234   14962688.7714
 -83487395.65249 -65038212.07146  12862974.2904   12862972.6504
  -3374117.14147  -2595074.50042  16033602.2284   16033603.3764
 -68533146.15249 -53385202.12846  12361100.8214   12361098.9314
 -34671548.31249 -26980411.77145  13328698.8844   13328697.4624
 04  7 17  3 15 59.9730000  0 10G29G13G28G 7G10G19G27G26G 8G31
 -15118588.57847 -11746462.04542  15407323.7594   15407323.7364
 -82735418.37147 -64452715.30242  15132575.5174   15132575.1814
 -46880659.67649 -36495303.46746  13089414.9784   13089412.2324
  -6821492.89546  -5280445.09342  15728661.0644   15728664.0604
 -30763204.00446 -23940681.80342  16049781.8924   16049783.8184
 -47242576.88748 -36790319.64844  14954386.6654   14954384.3534
 -83576128.04349 -65107354.20146  12846089.0014   12846087.1114
  -3575958.10547  -2752353.08742  15995194.1964   15995193.8414
 -68656075.29749 -53480991.04846  12337708.4624   12337706.0834
 -34862839.32049 -27129469.63545  13292296.9784   13292296.0134
 04  7 17  3 16 29.9730000  0 10G29G13G28G 7G10G19G27G26G 8G31
 -15310211.43047 -11895778.43142  15370859.1964   15370858.8104
 -82733369.06247 -64451118.60542  15132965.0954   15132965.2514
 -47019449.79749 -36603451.61446  13063003.9624   13063001.3334
  -7029740.88746  -5442716.05942  15689032.9394   15689035.7324
 -30816151.46546 -23981939.65542  16039706.2124   16039708.4974
 -47285749.06648 -36823960.33744  14946171.6654   14946169.2394
 -83664568.94949 -65176269.18546  12829259.1114   12829257.5014
  -3777543.97746  -2909432.87542  15956832.8844   15956833.1304
 -68778709.10549 -53576549.85146  12314372.0014   12314369.9784
 -35053712.77749 -27278202.13145  13255974.7434   13255973.9624
 04  7 17  3 16 59.9730000  0 10G29G13G28G 7G10G19G27G26G 8G31
 -15501545.46147 -12044869.77842  15334449.7124   15334448.9784
 -82731106.77048 -64449355.89142  15133396.1344   15133396.6184
 -47157918.96149 -36711349.64946  13036653.9464   13036651.4504
  -7237878.63346  -5604901.15842  15649425.6034   15649428.0794
 -30868737.05146 -24022915.59542  16029700.1504   16029701.6504
 -47328456.57848 -36857238.97444  14938044.5564   14938042.1504
 -83752717.86349 -65244956.65946  12812485.0404   12812483.1344
  -3978872.60946  -3066312.11041  15918522.2434   15918521.6184
 -68901047.03149 -53671878.09946  12291091.5174   12291089.9044
 -35244166.39149 -27426607.47945  13219733.0094   13219731.9704
 04  7 17  3 17 29.9730000  0 10G29G13G28G 7G10G19G27G26G 8G31
 -15692585.29347 -12193731.85542  15298096.2984   15298095.2044
 -82728630.93747 -64447426.82842  15133867.1734   15133867.3844
 -47296064.60949 -36818995.62046  13010365.8454   13010363.0714
  -7445900.98446  -5766996.30442  15609839.3064   15609842.8334
 -30920960.66446 -24063609.47442  16019762.5254   16019763.8644
 -47370698.55947 -36890154.81043  14930006.3844   14930003.7554
 -83840571.06649 -65313413.70746  12795767.2434   12795765.3534
  -4179938.44146  -3222986.71542  15880259.7904   15880260.2904
 -69023085.25449 -53766972.81046  12267868.5954   12267866.4584
 -35434194.45349 -27574681.21445  13183571.6814   13183570.9044
 04  7 17  3 17 59.9730000  0 10G29G13G28G 7G10G19G27G26G 8G31
 -15883329.32046 -12342363.48143  15261798.3924   15261797.9274
 -82725945.01647 -64445334.04642  15134378.2824   15134378.5364
 -47433887.99249 -36926390.46446  12984139.0484   12984136.1614
  -7653806.48046  -5929000.40942  15570276.1424   15570278.9664
 -30972825.55547 -24104023.82842  16009892.1264   16009894.7044
 -47412478.05947 -36922710.24843  14922055.4934   14922054.1184
 -83928128.64549 -65381640.38246  12779105.5404   12779103.6854
  -4380739.77746  -3379455.13341  15842048.3684   15842048.0484
 -69144823.80549 -53861834.01046  12244702.2904   12244700.4824
 -35623795.18748 -27722421.97445  13147491.7124   13147490.7394
 04  7 17  3 18 29.9730000  0 11G29G13G28G 7G10G19G27G26G 8G31G11
 -16073780.34847 -12490766.81243  15225556.6574   15225556.0644
 -82723056.52746 -64443083.39242  15134928.3214   15134928.5994
 -47571395.03549 -37033538.80446  12957972.3684   12957969.3454
  -7861597.91446  -6090915.70842  15530734.3924   15530737.6144
 -31024339.99646 -24144165.09542  16000090.4394   16000092.1464
 -47453802.10547 -36954910.84043  14914192.2594   14914189.4784
 -84015394.82049 -65449640.01646  12762499.6114   12762497.5484
  -4581279.00045  -3535719.31241  15803886.5404   15803885.8144
 -69266265.85949 -53956464.17246  12221592.8064   12221590.8024
 -35812971.00849 -27869831.62445  13111492.9544   13111491.8804
   -252636.71956   -169728.76552  16433894.7434   16433895.9664
 04  7 17  3 18 59.9730000  0 11G29G13G28G 7G10G19G27G26G 8G31G11
 -16263944.11346 -12638946.28143  15189369.8144   15189369.2594
 -82719976.29747 -64440683.32642  15135513.9234   15135514.6774
 -47708594.41449 -37140447.41146  12931864.1264   12931861.2794
  -8069281.21945  -6252746.70342  15491213.7204   15491216.4664
 -31075514.94546 -24184041.78942  15990352.9864   15990353.9194
 -47494681.46548 -36986764.85943  14906412.8374   14906410.5364
 -84102376.98849 -65517418.34046  12745947.3924   12745945.3414
  -4781561.83646  -3691783.67041  15765774.2984   15765773.6144
 -69387419.45749 -54050869.55846  12198537.9314   12198535.8614
 -36001727.54348 -28016914.56045  13075573.4704   13075572.4824
   -416350.64846   -297298.03742  16402742.4004   16402742.3184
 04  7 17  3 19 29.9730000  0 11G29G13G28G 7G10G19G27G26G 8G31G11
 -16453814.67247 -12786897.29443  15153238.8294   15153238.3574
 -82716703.72747 -64438133.43742  15136138.0014   15136137.9154
 -47845483.01249 -37247113.84146  12905814.8294   12905812.6654
  -8276850.51246  -6414488.83642  15451715.1734   15451717.7864
 -31126349.67246 -24223653.43942  15980678.3534   15980680.6184
 -47535114.55147 -37018271.16743  14898719.0644   14898716.4194
 -84189070.84849 -65584971.99646  12729449.6654   12729448.1614
  -4981582.07446  -3847643.57841  15727712.0714   15727711.0754
 -69508279.60549 -54145046.26946  12175538.8684   12175536.6694
 -36190058.65649 -28163665.99645  13039735.6654   13039734.5794
   -579888.93746   -424730.36642  16371621.2674   16371621.6694
 04  7 17  3 19 59.9730000  0 11G29G13G28G 7G10G19G27G26G 8G31G11
 -16643392.27748 -12934620.07543  15117162.7824   15117162.7084
 -82713243.85247 -64435437.57742  15136795.7984   15136796.4044
 -47982064.16049 -37353540.70646  12879824.6654   12879821.7004
  -8484306.36346  -6576142.61942  15412237.3534   15412239.5754
 -31176849.69146 -24263004.23942  15971069.0174   15971070.7084
 -47575106.44548 -37049433.64843  14891108.1574   14891105.9394
 -84275478.32849 -65652302.51146  12713007.0014   12713005.2394
  -5181339.98046  -4003299.03141  15689699.1574   15689698.6934
 -69628848.25449 -54238995.84046  12152595.8144   12152593.2284
 -36377964.33249 -28310085.92545  13003978.0254   13003976.6694
   -743251.69547   -552025.98042  16340534.2674   16340535.0254
 04  7 17  3 20 29.9730000  0 11G29G13G28G 7G10G19G27G26G 8G31G11
 -16832667.84847 -13082107.46443  15081144.7434   15081144.9044
 -82709592.51247 -64432592.53642  15137490.8764   15137491.1384
 -48118331.71549 -37459723.19146  12853893.9234   12853891.0834
  -8691639.64145  -6737700.90642  15372782.2984   15372785.3414
 -31227011.33046 -24302091.42042  15961524.0644   15961525.4464
 -47614652.57448 -37080248.80243  14883583.1344   14883581.7044
 -84361591.89849 -65719403.99346  12696620.1424   12696618.6264
  -5380826.09447  -4158742.63142  15651738.0484   15651738.2794
 -69749117.85949 -54332712.38046  12129708.7904   12129707.1384
 -36565435.23849 -28456167.05845  12968303.2364   12968302.1734
   -906429.55147   -679177.38442  16309483.0094   16309483.7754
 04  7 17  3 20 59.9730000  0 11G29G13G28G 7G10G19G27G26G 8G31G11
 -17021640.69948 -13229358.96743  15045184.9074   15045184.0754
 -82705753.82447 -64429601.49042  15138221.7124   15138221.6304
 -48254287.99649 -37565663.14346  12828021.9934   12828019.5874
  -8898849.80546  -6899163.21942  15333352.8844   15333354.7474
 -31276839.07046 -24340918.39442  15952041.5094   15952043.7124
 -47653756.72748 -37110719.57143  14876142.0484   14876139.9154
 -84447412.52749 -65786277.20346  12680289.2434   12680287.2204
  -5580039.72347  -4313973.98542  15613828.6654   15613829.0834
 -69869088.76649 -54426196.17546  12106879.2284   12106876.9504
 -36752470.58649 -28601908.81545  12932711.9934   12932710.6224
  -1069421.62946   -806184.16042  16278465.9314   16278467.0684
 04  7 17  3 21 29.9730000  0 11G29G13G28G 7G10G19G27G26G 8G31G11
 -17210304.61348 -13376369.76043  15009282.7904   15009282.8104
 -82701726.71946 -64426463.60542  15138987.5564   15138988.2364
 -48389929.88749 -37671358.08446  12802210.1654   12802207.6224
  -9105930.79346  -7060524.93142  15293945.9154   15293948.2514
 -31326332.14846 -24379484.58742  15942623.2904   15942625.8614
 -47692417.84448 -37140845.12543  14868784.9934   14868782.6734
 -84532935.77049 -65852918.69146  12664014.5644   12664012.8534
  -5778974.32847  -4468987.87042  15575972.8844   15575973.6964
 -69988755.94549 -54519443.29346  12084107.2824   12084105.4274
 -36939063.97349 -28747306.17245  12897204.4154   12897202.7824
  -1232221.39847   -933041.02742  16247486.3764   16247486.6814
 04  7 17  3 21 59.9720000  0 11G29G13G28G 7G10G19G27G26G 8G31G11
 -17398649.98848 -13523132.26143  14973441.8404   14973441.3094
 -82697513.30947 -64423180.58042  15139789.4654   15139790.1374
 -48525252.42649 -37776804.17846  12776458.9734   12776456.6024
  -9312872.61746  -7221778.16342  15254567.0044   15254569.0124
 -31375490.62946 -24417790.13042  15933268.6604   15933270.7154
 -47730635.57048 -37170625.20243  14861512.8094   14861510.5164
 -84618156.92649 -65919324.76946  12647797.5984   12647795.7194
  -5977619.84447  -4623776.52542  15538172.2784   15538172.3054
 -70108114.13749 -54612449.64346  12061394.1214   12061392.2274
 -37125205.71149 -28892351.59545  12861782.0744   12861781.1804
  -1394819.63747  -1059740.85142  16216545.1294   16216545.8754
 04  7 17  3 22 29.9720000  0 11G29G13G28G 7G10G19G27G26G 8G31G11
 -17586688.18048 -13669655.47543  14937659.6294   14937659.1684
 -82693116.84847 -64419754.91642  15140626.5514   15140626.8524
 -48660266.54349 -37882009.94646  12750766.7234   12750764.4064
  -9519687.82846  -7382932.78342  15215210.4344   15215212.7034
 -31424322.20746 -24455840.84942  15923976.9034   15923979.4104
 -47768416.12148 -37200064.57743  14854322.9494   14854320.7154
 -84703082.18749 -65985500.28446  12631636.7784   12631634.7114
  -6175988.09047  -4778349.04942  15500423.5124   15500424.0044
 -70227171.13749 -54705221.30046  12038738.3244   12038736.7544
 -37310906.87149 -29037053.71545  12826444.8794   12826443.6764
  -1557225.91047  -1186291.15142  16185639.7154   16185640.2894
 04  7 17  3 22 59.9720000  0 11G29G13G28G 7G10G19G27G26G 8G31G11
 -17774412.21548 -13815933.87043  14901936.7154   14901935.9964
 -82688541.80947 -64416190.11742  15141497.0904   15141497.4854
 -48794969.86749 -37986973.52246  12725133.6374   12725130.7894
  -9726369.09847  -7543983.00242  15175880.4574   15175882.1374
 -31472829.41046 -24493638.80242  15914746.7934   15914749.4654
 -47805761.97347 -37229165.26043  14847215.8874   14847214.1844
 -84787709.58249 -66051443.70346  12615532.6294   12615530.8604
  -6374071.52047  -4932699.69542  15462728.8564   15462730.3174
 -70345923.70749 -54797755.73447  12016140.5284   12016138.1534
 -37496160.23449 -29181406.90445  12791192.4424   12791190.5984
  -1719433.76647  -1312686.71442  16154772.8634   16154773.5124
 04  7 17  3 23 29.9720000  0 11G29G13G28G 7G10G19G27G26G 8G31G11
 -17961815.82847 -13961962.55143  14866274.7544   14866273.5314
 -82683786.77047 -64412485.03342  15142401.8014   15142402.5314
 -48929359.13749 -38091692.38946  12699560.0674   12699557.6684
  -9932910.08647  -7704923.90242  15136576.8564   15136578.6964
 -31521011.49646 -24531183.44442  15905578.9964   15905581.1024
 -47842671.45347 -37257925.90543  14840193.4494   14840190.5004
 -84872034.37949 -66117151.32446  12599486.0124   12599484.3014
  -6571863.71146  -5086823.33042  15425090.8954   15425090.8324
 -70464366.96949 -54890049.15847  11993601.3564   11993599.4344
 -37680959.53949 -29325406.27745  12756025.8794   12756024.4574
  -1881436.55147  -1438922.54042  16123944.8094   16123944.8094
 04  7 17  3 23 59.9720000  0 11G29G13G28G 7G10G19G27G26G 8G31G11
 -18148894.56247 -14107738.10343  14830675.5984   14830674.3244
 -82678852.46547 -64408640.26142  15143341.4814   15143341.7464
 -49063432.90649 -38196165.39546  12674046.8174   12674044.1134
 -10139306.54746  -7865752.18342  15097300.1994   15097303.0784
 -31568869.19146 -24568475.28142  15896470.1844   15896473.3364
 -47879145.07848 -37286346.91944  14833252.4654   14833249.7504
 -84956053.89549 -66182621.06846  12583497.7544   12583495.9534
  -6769360.06646  -5240716.42642  15387508.3484   15387508.2194
 -70582497.84849 -54982099.15247  11971122.0824   11971120.2074
 -37865300.09849 -29469048.18645  12720947.0904   12720945.7194
  -2043229.92646  -1564995.26542  16093156.2464   16093156.8404
 04  7 17  3 24 29.9720000  0 11G29G13G28G 7G10G19G27G26G 8G31G11
 -18335648.94147 -14253260.89443  14795136.5984   14795135.9304
 -82673744.43047 -64404660.09342  15144312.5044   15144313.8174
 -49197194.87149 -38300395.42946  12648592.6924   12648589.9694
 -10345559.30146  -8026468.49542  15058051.4264   15058054.3524
 -31616408.71947 -24605519.24142  15887424.7464   15887427.1214
 -47915188.17648 -37314432.47543  14826392.8564   14826390.6494
 -85039770.35249 -66247854.65346  12567566.9964   12567565.3564
  -6966560.84846  -5394379.20242  15349981.1374   15349982.1604
 -70700318.40649 -55073907.34447  11948701.6454   11948699.1994
 -38049182.45349 -29612333.05845  12685955.1684   12685953.7624
  -2204814.07047  -1690904.83542  16062407.7074   16062408.3484
 04  7 17  3 24 59.9720000  0 11G29G13G28G 7G10G19G27G26G 8G31G11
 -18522075.06647 -14398527.89243  14759661.1374   14759660.5554
 -82668463.75447 -64400545.42642  15145317.9964   15145319.2854
 -49330644.05149 -38404381.73646  12623197.9654   12623195.3634
 -10551664.34847  -8187069.68842  15018831.9104   15018834.1644
 -31663631.19547 -24642316.10742  15878439.7854   15878441.1604
 -47950801.30548 -37342183.00944  14819616.8094   14819613.6214
 -85123181.43749 -66312850.29046  12551694.5044   12551692.6964
  -7163461.84846  -5547808.40242  15312512.7704   15312513.4224
 -70817825.85949 -55165471.55647  11926340.3484   11926338.3174
 -38232602.44149 -29755257.63545  12651051.7234   12651050.2154
  -2366184.67247  -1816648.05242  16031700.0284   16031700.4264
 04  7 17  3 25 29.9720000  0 11G29G13G28G 7G10G19G27G26G 8G31G11
 -18708170.56247 -14543537.24743  14724248.3874   14724247.4224
 -82663012.91847 -64396298.17042  15146355.6844   15146355.9924
 -49463781.12149 -38508124.82546  12597862.7544   12597860.4494
 -10757619.61746  -8347554.17042  14979639.8564   14979641.5784
 -31710539.91446 -24678868.49242  15869511.8954   15869514.7584
 -47985987.00047 -37369600.49143  14812920.9424   14812918.1964
 -85206286.48449 -66377607.43746  12535879.9574   12535878.1804
  -7360060.75046  -5701002.20741  15275101.0204   15275101.0044
 -70935019.67249 -55256791.36546  11904038.8794   11904036.8634
 -38415557.76249 -29897820.14245  12616236.1374   12616235.1024
  -2527339.25847  -1942222.93442  16001033.5594   16001033.7034
 04  7 17  3 25 59.9720000  0 11G29G13G28G 7G10G19G27G26G 8G31G11
 -18893931.98047 -14688286.29243  14688898.6534   14688898.1724
 -82657393.46947 -64391919.48642  15147425.7784   15147425.8014
 -49596605.62149 -38611624.36446  12572587.0434   12572584.2664
 -10963421.65246  -8507919.22742  14940475.9264   14940478.7034
 -31757136.50047 -24715177.59542  15860645.9574   15860647.4854
 -48020746.36747 -37396685.74943  14806306.7384   14806304.6134
 -85289083.51249 -66442124.58446  12520124.2154   12520122.8444
  -7556353.64847  -5853957.58542  15237748.0824   15237746.9814
 -71051897.27749 -55347864.78747  11881798.0354   11881796.1254
 -38598044.73849 -30040017.71045  12581510.4424   12581508.6294
  -2688273.97347  -2067626.48642  15970409.0744   15970408.6724
 04  7 17  3 26 29.9720000  0 11G29G13G28G 7G10G19G27G26G 8G31G11
 -19079355.13747 -14832771.76843  14653613.9964   14653613.0864
 -82651606.01647 -64387409.93142  15148526.5284   15148528.1064
 -49729116.28549 -38714879.35046  12547371.3484   12547368.2464
 -11169066.35246  -8668161.68742  14901343.2854   14901345.6134
 -31803422.11346 -24751244.36642  15851837.0514   15851839.3874
 -48055079.86347 -37423439.21343  14799772.7934   14799770.6064
 -85371570.00449 -66506399.73946  12504427.4494   12504425.7784
  -7752336.07447  -6006671.06042  15200452.9184   15200452.8604
 -71168455.77049 -55438689.55547  11859617.7704   11859615.5744
 -38780059.02049 -30181846.92845  12546873.7784   12546872.3524
  -2848984.39847  -2192855.18442  15939825.6454   15939826.2154
 04  7 17  3 26 59.9720000  0 11G29G13G28G 7G10G19G27G26G 8G31G11
 -19264440.27747 -14976993.83443  14618393.3174   14618392.6064
 -82645656.00847 -64382773.73742  15149659.2154   15149659.6024
 -49861316.54349 -38817892.47146  12522213.6844   12522211.1684
 -11374554.09447  -8828281.79542  14862240.8404   14862242.9854
 -31849402.23046 -24787073.18442  15843088.1214   15843090.9424
 -48088992.69548 -37449864.84344  14793319.8404   14793317.0394
 -85453748.03149 -66570434.54246  12488789.5594   12488787.9424
  -7948008.35547  -6159142.83042  15163218.7154   15163217.2854
 -71284697.47349 -55529267.47046  11837497.5284   11837495.4534
 -38961600.99649 -30323308.13745  12512327.3484   12512325.9614
  -3009470.53946  -2317909.19742  15909286.6844   15909286.7194
 04  7 17  3 27 29.9720000  0 11G29G13G28G 7G10G19G27G26G 8G31G11
 -19449182.66047 -15120948.84443  14583238.3244   14583237.5824
 -82639543.97347 -64378011.23342  15150821.9884   15150822.8244
 -49993204.77049 -38920662.44346  12497116.8094   12497113.6804
 -11579880.13746  -8988275.91242  14823167.4424   14823169.8714
 -31895077.32847 -24822664.21342  15834396.1374   15834398.6884
 -48122484.71948 -37475962.57743  14786946.4574   14786944.3244
 -85535614.18449 -66634226.32046  12473211.2464   12473209.4494
  -8143365.20747  -6311368.79741  15126042.9494   15126042.5554
 -71400618.18749 -55619595.25846  11815438.5594   11815436.6104
 -39142665.58649 -30464397.33446  12477872.1924   12477870.1454
  -3169727.21547  -2442784.45341  15878789.9884   15878789.7234
 04  7 17  3 27 59.9720000  0 11G29G13G28G 7G10G19G27G26G 8G31G11
 -19633580.96547 -15264635.74643  14548147.7154   14548147.1294
 -82633273.50046 -64373125.26942  15152014.9814   15152016.1994
 -50124782.57049 -39023190.53046  12472077.9264   12472075.4734
 -11785043.52746  -9148143.30842  14784125.7074   14784128.2894
 -31940451.69147 -24858020.92342  15825762.5284   15825764.6644
 -48155559.49647 -37501735.20143  14780651.8874   14780651.0594
 -85617169.05149 -66697775.53246  12457691.4654   12457689.9534
  -8338405.41447  -6463348.11342  15088928.2154   15088927.7234
 -71516218.07849 -55709673.06546  11793440.8564   11793438.6884
 -39323251.66449 -30605113.69145  12443507.8094   12443505.9184
  -3329753.18046  -2567479.80241  15848338.9184   15848337.4424
 04  7 17  3 28 29.9720000  0 11G29G13G28G 7G10G19G27G26G 8G31G11
 -19817634.94948 -15408054.34843  14513123.6454   14513122.8714
 -82626848.82447 -64368119.15242  15153238.5744   15153239.1214
 -50256052.54349 -39125478.75746  12447098.0904   12447095.3244
 -11990044.02346  -9307883.69042  14745115.6994   14745117.4694
 -31985530.35547 -24893147.23942  15817184.4034   15817185.9854
 -48188221.45347 -37527186.15143  14774436.7704   14774435.5714
 -85698414.05549 -66761083.30546  12442231.0204   12442229.3324
  -8533128.35947  -6615080.04042  15051873.3564   15051872.8994
 -71631498.53949 -55799501.96746  11771503.6764   11771501.4034
 -39503358.91849 -30745456.92246  12409234.3014   12409232.6454
  -3489547.77047  -2691994.90441  15817930.5904   15817929.7354
 04  7 17  3 28 59.9720000  0 11G29G13G28G 7G10G19G27G26G 8G31G11
 -20001337.74647 -15551199.30843  14478165.7464   14478165.3404
 -82620268.69147 -64362991.92442  15154490.4344   15154491.2584
 -50387011.07849 -39227524.29846  12422177.6604   12422174.8284
 -12194874.92646  -9467491.97442  14706137.5204   14706139.7154
 -32030312.04747 -24928042.15442  15808662.2624   15808665.0434
 -48220468.60547 -37552313.85443  14768300.9104   14768298.1964
 -85779343.88749 -66824145.49646  12426830.5824   12426829.4104
  -8727527.08246  -6766559.40242  15014880.1534   15014880.5744
 -71746454.03149 -55889077.64647  11749628.3094   11749626.1294
 -39682980.43449 -30885421.65546  12375053.4264   12375051.7894
  -3649104.04746  -2816324.39541  15787567.6764   15787566.0864
 04  7 17  3 29 29.9710000  0 11G29G13G28G 7G10G19G27G26G 8G31G11
 -20184682.77747 -15694065.48043  14443276.4764   14443276.1164
 -82613537.14546 -64357746.71642  15155771.0304   15155772.3944
 -50517656.30949 -39329325.70746  12397316.4994   12397313.4294
 -12399528.98846  -9626962.45842  14667192.4764   14667194.7494
 -32074800.09847 -24962708.20642  15800196.2024   15800198.9884
 -48252304.15248 -37577120.84843  14762243.0384   14762239.1794
 -85859956.95349 -66886960.85046  12411490.5624   12411489.0544
  -8921594.17646  -6917780.36542  14977949.4844   14977950.4564
 -71861081.75049 -55978397.91947  11727815.4374   11727813.2534
 -39862109.60549 -31025002.75746  12340966.2734   12340964.5154
  -3808415.99246  -2940463.36341  15757251.4214   15757250.3234
 04  7 17  3 29 59.9710000  0 11G29G13G28G 7G10G19G27G26G 8G31G11
 -20367680.55947 -15836661.05243  14408453.0304   14408452.6984
 -82606657.48445 -64352386.05542  15157081.0704   15157081.7384
 -50647998.45749 -39430890.95746  12372513.1794   12372510.3664
 -12604018.18046  -9786304.44842  14628280.2414   14628281.8594
 -32119001.12947 -24997150.64142  15791785.3984   15791787.8984
 -48283733.28548 -37601611.15343  14756262.2264   14756260.1134
 -85940258.82049 -66949533.72846  12396209.3434   12396207.9524
  -9115340.83646  -7068751.58942  14941081.1014   14941081.6634
 -71975388.60249 -56067468.16446  11706063.4454   11706061.1244
 -40040756.77049 -31164208.26445  12306970.6554   12306969.1524
  -3967492.08246  -3064418.60541  15726980.0464   15726979.3664
 04  7 17  3 30 29.9710000  0 11G29G13G28G 7G10G19G27G26G 8G31G11
 -20550322.95747 -15978979.73443  14373697.4134   14373696.8744
 -82599632.83646 -64346912.44942  15158417.1714   15158418.7694
 -50778033.87949 -39532217.20346  12347768.1094   12347765.2344
 -12808333.83646  -9945511.16442  14589399.3274   14589401.5934
 -32162916.70347 -25031370.63542  15783428.3824   15783431.1204
 -48314757.42648 -37625785.90843  14750358.5304   14750356.5624
 -86020246.27049 -67011861.60246  12380988.3274   12380986.6794
  -9308758.30946  -7219466.29042  14904274.9054   14904274.5774
 -72089370.49649 -56156285.18446  11684373.3664   11684371.0234
 -40218913.91049 -31303031.92346  12273068.3824   12273066.5704
  -4126324.80145  -3188184.22041  15696754.9524   15696753.9054
 04  7 17  3 30 59.9710000  0 11G29G13G28G 7G10G19G27G26G 8G31G11
 -20732606.94548 -16121019.14343  14339009.9134   14339009.1484
 -82592465.13346 -64341327.37842  15159781.9844   15159782.5854
 -50907762.53149 -39633304.40246  12323081.4684   12323078.5734
 -13012473.14846 -10104580.54642  14550553.5544   14550554.8434
 -32206549.50447 -25065370.29442  15775125.9214   15775128.2804
 -48345378.28148 -37649646.38043  14744531.6244   14744529.2384
 -86099918.07049 -67073943.50546  12365827.1874   12365825.4764
  -9501843.55146  -7369922.15742  14867532.7804   14867531.6914
 -72203025.53949 -56244847.51546  11662745.2964   11662743.1054
 -40396578.14549 -31441471.52046  12239260.1014   12239258.5734
  -4284910.47346  -3311757.34841  15666577.0154   15666575.9524
 04  7 17  3 31 29.9710000  0 11G29G13G28G 7G10G19G27G26G 8G31G11
 -20914529.22748 -16262776.70843  14304390.8354   14304390.8554
 -82585155.92646 -64335632.05642  15161172.0154   15161173.7144
 -51037184.51649 -39734152.65146  12298453.3204   12298450.3434
 -13216432.83646 -10263509.87542  14511740.4054   14511742.2694
 -32249901.36347 -25099151.05742  15766876.3664   15766878.6914
 -48375598.00048 -37673194.30643  14738781.4214   14738778.8904
 -86179272.37949 -67135778.03045  12350726.7104   12350724.7774
  -9694592.65647  -7520116.15142  14830853.1484   14830852.4174
 -72316351.48849 -56333153.43547  11641180.1244   11641178.0704
 -40573746.06649 -31579524.37646  12205546.0854   12205544.2964
  -4443246.28945  -3435135.63141  15636447.4914   15636446.1754
 04  7 17  3 31 59.9710000  0 11G29G13G28G 7G10G19G27G26G 8G31G11
 -21096090.06248 -16404252.62243  14269840.9524   14269840.3204
 -82577710.38346 -64329830.44342  15162589.7884   15162590.8084
 -51166302.92249 -39834764.35846  12273882.9454   12273879.9254
 -13420213.07046 -10422299.40842  14472961.6484   14472963.7654
 -32292977.96547 -25132717.35042  15758679.0624   15758681.6244
 -48405420.92648 -37696433.02343  14733105.7734   14733103.8594
 -86258311.23049 -67197366.74946  12335686.0934   12335684.2844
  -9887005.73047  -7670048.32442  14794238.7494   14794238.2344
 -72429350.18749 -56421204.33747  11619677.2654   11619675.0114
 -40750417.98849 -31717190.73646  12171926.7574   12171924.6164
  -4601331.81246  -3558318.96542  15606363.8664   15606363.4454
 04  7 17  3 32 29.9710000  0 11G29G13G28G 7G10G19G27G26G 8G31G11
 -21277285.56247 -16545443.86543  14235360.5384   14235359.8474
 -82570129.68046 -64323923.56442  15164031.9684   15164033.4764
 -51295116.70749 -39935138.69146  12249370.1404   12249367.5504
 -13623810.34446 -10580946.33242  14434218.9134   14434220.0774
 -32335781.00046 -25166070.43242  15750533.3124   15750536.0384
 -48434848.09848 -37719363.36443  14727505.9134   14727504.4454
 -86337032.31249 -67258707.84746  12320706.0234   12320703.8594
 -10079078.88347  -7819715.61442  14757687.8824   14757687.1244
 -72542019.34449 -56508998.45146  11598236.8354   11598234.8664
 -40926590.04749 -31854467.59146  12138402.0384   12138400.0894
  -4759162.81246  -3681304.03142  15576329.4684   15576329.6874
 04  7 17  3 32 59.9710000  0 11G29G13G28G 7G10G19G27G26G 8G31G11
 -21458110.64847 -16686346.46043  14200950.6324   14200950.1364
 -82562413.68046 -64317911.20442  15165500.4764   15165501.8664
 -51423623.99649 -40035274.20746  12224916.3984   12224913.5854
 -13827219.58246 -10739446.78742  14395511.1484   14395512.6404
 -32378310.59447 -25199210.47242  15742440.9214   15742443.2064
 -48463879.35947 -37741985.22143  14721981.4684   14721979.3984
 -86415432.13349 -67319798.62646  12305787.1954   12305785.2144
 -10270806.57847  -7969113.76942  14721202.9524   14721201.9484
 -72654354.66449 -56596532.43647  11576860.3434   11576858.0774
 -41102257.23049 -31991351.04946  12104973.4684   12104971.6054
  -4916734.02746  -3804086.63642  15546344.6244   15546344.4374
 04  7 17  3 33 29.9710000  0 11G29G13G28G 7G10G19G27G26G 8G31G11
 -21638563.30947 -16826958.84743  14166611.8744   14166610.9804
 -82554565.31246 -64311795.72342  15166994.0934   15166995.4604
 -51551826.01249 -40135171.84246  12200520.2884   12200516.8594
 -14030438.89146 -10897799.21842  14356839.6324   14356841.0504
 -32420570.15246 -25232140.14142  15734398.8044   15734401.5194
 -48492517.68047 -37764300.86243  14716531.7494   14716529.8274
 -86493510.68449 -67380639.05046  12290929.1014   12290927.5584
 -10462186.74247  -8118241.10142  14684784.4994   14684783.9214
 -72766355.99249 -56683806.17347  11555547.0384   11555545.2024
 -41277417.65249 -32127839.62146  12071641.5384   12071639.7614
  -5074043.53146  -3926665.32242  15516409.3204   15516408.8664
 04  7 17  3 33 59.9710000  0 11G29G13G28G 7G10G19G27G26G 8G31G11
 -21818641.82047 -16967279.69043  14132343.8434   14132342.8354
 -82546588.02046 -64305579.76742  15168511.9374   15168513.5234
 -51679723.98049 -40234832.56046  12176181.9764   12176179.0234
 -14233466.74646 -11056002.43342  14318204.7414   14318205.7844
 -32462563.28546 -25264862.14942  15726408.0384   15726410.7884
 -48520766.09847 -37786312.69843  14711156.4294   14711155.1054
 -86571267.59049 -67441228.86846  12276132.2654   12276130.5034
 -10653217.36747  -8267096.08542  14648432.2574   14648431.4684
 -72878022.71549 -56770819.18047  11534297.6164   11534295.8354
 -41452069.78549 -32263932.12045  12038406.2804   12038404.4024
  -5231089.15646  -4049038.32342  15486524.3984   15486524.1634
 04  7 17  3 34 29.9710000  0 11G29G13G28G 7G10G19G27G26G 8G31G11
 -21998342.94547 -17107306.47243  14098147.8744   14098146.9524
 -82538483.18745 -64299264.39842  15170054.9524   15170055.7534
 -51807317.59049 -40334256.11146  12151901.8744   12151898.8984
 -14436299.79347 -11214053.89042  14279606.4134   14279607.3474
 -32504292.34846 -25297378.41442  15718466.9764   15718469.9564
 -48548625.84847 -37808021.66143  14705854.9764   14705853.7024
 -86648701.53949 -67501566.99846  12261397.0774   12261395.4334
 -10843895.00446  -8415676.02742  14612147.2344   14612147.0384
 -72989352.78549 -56857569.86447  11513112.1404   11513109.9524
 -41626210.30949 -32399625.97146  12005268.6324   12005266.7414
  -5387867.32046  -4171203.01142  15456690.3664   15456690.7414
 04  7 17  3 34 59.9710000  0 11G29G13G28G 7G10G19G27G26G 8G31G11
 -22177668.91847 -17247040.92443  14064022.9844   14064022.3204
 -82530258.01646 -64292855.25042  15171620.0464   15171621.2414
 -51934612.00049 -40433446.53146  12127678.5544   12127675.2694
 -14638940.42247 -11371955.37043  14241044.2414   14241045.5854
 -32545764.69546 -25329694.60442  15710575.5234   15710578.4954
 -48576104.00847 -37829433.32043  14700626.1484   14700624.8164
 -86725816.21549 -67561656.37746  12246722.7964   12246721.0584
 -11034221.50446  -8563982.31742  14575929.7104   14575929.4134
 -73100350.02049 -56944061.19847  11491990.1634   11491988.3904
 -41799841.48049 -32534922.91946  11972227.3274   11972225.5974
  -5544380.03545  -4293160.83242  15426906.9214   15426906.4604
 04  7 17  3 35 29.9710000  0 11G29G13G28G 7G10G19G27G26G 8G31G11
 -22356614.01648 -17386478.56943  14029970.7964   14029970.3394
 -82521911.70746 -64286351.73642  15173208.1874   15173209.8394
 -52061604.53149 -40532401.71446  12103512.4994   12103509.5704
 -14841382.97747 -11529702.51643  14202521.7574   14202522.4914
 -32586979.92646 -25361810.45442  15702733.2344   15702735.5934
 -48603199.87147 -37850547.06643  14695470.2884   14695468.4684
 -86802607.48049 -67621493.73046  12232110.2494   12232108.5464
 -11224190.90246  -8712010.39942  14539779.4604   14539780.0304
 -73211009.74249 -57030289.52746  11470932.2184   11470930.2964
 -41972957.78949 -32669818.68346  11939284.5154   11939282.3944
  -5700621.48846  -4414907.27842  15397175.2964   15397175.5194
 04  7 17  3 35 59.9710000  0 11G29G13G28G 7G10G19G27G26G 8G31G11
 -22535175.50848 -17525617.29643  13995991.8904   13995990.7734
 -82513446.49646 -64279755.60142  15174818.8984   15174820.5034
 -52188295.04349 -40631121.56446  12079404.1954   12079400.9414
 -15043624.73047 -11687293.20943  14164035.1874   14164036.5384
 -32627940.53546 -25393727.92742  15694937.8904   15694941.1444
 -48629915.23447 -37871364.31243  14690386.0464   14690384.1794
 -86879074.30549 -67681078.26946  12217558.7574   12217557.3314
 -11413800.23847  -8859757.84942  14503698.5304   14503698.2964
 -73321330.57049 -57116253.78847  11449939.2184   11449937.0154
 -42145556.50849 -32804311.11446  11906440.0074   11906437.9884
  -5856588.23446  -4536439.64342  15367495.9524   15367495.1324
 04  7 17  3 36 29.9710000  0 11G29G13G28G 7G10G19G27G26G 8G31G11
 -22713350.83248 -17664455.11843  13962085.9294   13962085.3234
 -82504864.60546 -64273068.47042  15176452.0384   15176453.6594
 -52314684.93749 -40729607.17346  12055352.9994   12055349.7454
 -15245663.50447 -11844725.75643  14125589.0464   14125589.9214
 -32668649.57046 -25425449.31642  15687191.9844   15687194.7064
 -48656252.41847 -37891886.86643  14685374.5624   14685372.7574
 -86955216.19949 -67740409.63446  12203069.3824   12203067.9214
 -11603046.74247  -9007222.62542  14467686.1634   14467685.8784
 -73431311.57449 -57201953.26046  11429010.1164   11429008.2064
 -42317635.50049 -32938398.58446  11873694.3904   11873692.7024
  -6012277.64546  -4657755.95042  15337869.1094   15337867.9134
 04  7 17  3 36 59.9700000  0 11G29G13G28G 7G10G19G27G26G 8G31G11
 -22891134.34047 -17802987.60743  13928254.7834   13928253.8624
 -82496171.74646 -64266294.92042  15178106.7684   15178107.7054
 -52440772.84049 -40827857.45246  12031359.1194   12031355.9904
 -15447492.70747 -12001994.98343  14087181.8074   14087182.4204
 -32709111.38746 -25456978.09142  15679491.8694   15679494.9284
 -48682215.83247 -37912118.15543  14680433.7294   14680432.2804
 -87031032.13749 -67799486.98646  12188642.2214   12188640.5264
 -11791924.09047  -9154399.79642  14431744.3544   14431743.1194
 -73540950.16449 -57287385.90147  11408146.4244   11408144.4834
 -42489189.28948 -33072076.79346  11841048.8074   11841046.7604
  -6167684.84846  -4778852.35942  15308296.3624   15308295.0144
 04  7 17  3 37 29.9700000  0 11G29G13G28G 7G10G19G27G26G 8G31G11
 -23068536.20347 -17941222.70843  13894495.9944   13894495.3304
 -82487370.59446 -64259436.99142  15179781.9164   15179783.0264
 -52566568.66449 -40925880.15446  12007421.1194   12007418.0304
 -15649124.23447 -12159110.17443  14048812.3694   14048813.4674
 -32749332.19146 -25488319.05242  15671838.5264   15671841.3194
 -48707810.23047 -37932061.93143  14675563.8624   14675562.3304
 -87106527.27349 -67858314.37146  12174275.9874   12174274.2484
 -11980442.97747  -9301297.55242  14395869.8224   14395869.9944
 -73650253.56649 -57372557.38546  11387346.6904   11387344.7334
 -42660227.71149 -33205353.41446  11808501.1434   11808499.3624
  -6322818.12146  -4899735.27242  15278774.1824   15278774.2834
 04  7 17  3 37 59.9700000  0 11G29G13G28G 7G10G19G27G26G 8G31G11
 -23245544.47348 -18079151.12543  13860812.6664   13860811.7484
 -82478460.15646 -64252493.91042  15181477.1434   15181479.2174
 -52692065.34049 -41023669.74146  11983539.7214   11983536.6824
 -15850545.34447 -12316061.42743  14010482.6124   14010484.2684
 -32789309.94946 -25519470.64442  15664230.9014   15664234.5104
 -48733033.69947 -37951716.66043  14670764.6354   14670761.1194
 -87181694.75449 -67916886.45346  12159972.0414   12159970.5804
 -12168590.73047  -9447906.19042  14360066.5654   14360066.0924
 -73759213.44948 -57457461.18046  11366612.5414   11366610.0964
 -42830739.36348 -33338219.57946  11776053.6904   11776051.6824
  -6477666.47746  -5020396.16042  15249307.6584   15249308.0064
 04  7 17  3 38 29.9700000  0 11G29G13G28G 7G10G19G27G26G 8G31G11
 -23422157.38748 -18216771.47943  13827204.2684   13827203.0414
 -82469443.52746 -64245468.07442  15183193.1664   15183195.3194
 -52817263.69949 -41121226.88646  11959715.5334   11959712.2094
 -16051754.48047 -12472847.51943  13972193.8774   13972194.8424
 -32829048.37946 -25550435.77742  15656669.5804   15656672.1554
 -48757889.27047 -37971084.68643  14666033.5884   14666031.8074
 -87256534.47749 -67975203.12746  12145730.6354   12145729.0024
 -12356365.45347  -9594224.12542  14324333.9084   14324333.5184
 -73867829.14849 -57542096.76947  11345943.7374   11345941.6084
 -43000722.43748 -33470673.84946  11743707.2134   11743705.0374
  -6632227.26246  -5140833.03142  15219896.1664   15219894.8114
 04  7 17  3 38 59.9700000  0 11G29G13G28G 7G10G19G27G26G 8G31G11
 -23598370.27048 -18354080.11343  13793672.4244   13793670.6784
 -82460320.44146 -64238359.34442  15184929.1514   15184930.8154
 -52942162.24249 -41218550.39346  11935948.0414   11935944.8584
 -16252746.85248 -12629464.69643  13933946.2134   13933946.7644
 -32868548.21546 -25581214.97542  15649152.6194   15649156.2484
 -48782376.89547 -37990166.05143  14661374.5724   14661372.5764
 -87331043.27349 -68033261.92746  12131552.3624   12131549.9754
 -12543762.07847  -9740247.40242  14288673.4714   14288673.3504
 -73976097.12949 -57626461.42447  11325340.7764   11325338.9634
 -43170172.54748 -33602712.83646  11711461.3774   11711459.5724
  -6786495.66046  -5261042.11842  15190539.6194   15190538.1664
 04  7 17  3 39 29.9700000  0 11G29G13G28G 7G10G19G27G26G 8G31G11
 -23774180.64147 -18491075.11343  13760215.9944   13760215.6864
 -82451094.18746 -64231170.17742  15186685.1274   15186686.1474
 -53066761.51249 -41315640.71546  11912237.6434   11912234.4324
 -16453520.00447 -12785911.07143  13895740.0334   13895740.9444
 -32907812.12146 -25611810.18942  15641680.7294   15641684.1824
 -48806498.74247 -38008962.34343  14656783.6904   14656782.5534
 -87405220.31649 -68091062.22446  12117436.5804   12117434.8304
 -12730777.82047  -9885973.90242  14253086.0414   14253085.4944
 -74084016.45749 -57710554.38547  11304804.2604   11304802.4594
 -43339087.35548 -33734334.70146  11679318.6274   11679315.8504
  -6940468.75046  -5381021.03142  15161239.1904   15161239.0764
 04  7 17  3 39 59.9700000  0 11G29G13G28G 7G10G19G27G26G 8G31G11
 -23949590.17647 -18627757.75943  13726836.8074   13726835.8934
 -82441770.88746 -64223905.38642  15188459.4474   15188461.0764
 -53191066.31249 -41412501.57346  11888583.2374   11888579.8854
 -16654076.01248 -12942188.26543  13857575.2834   13857576.0264
 -32946847.24246 -25642227.32042  15634253.0184   15634255.9014
 -48830261.55148 -38027478.87543  14652262.4874   14652260.0494
 -87479069.30549 -68148606.91046  12103384.0024   12103382.0264
 -12917414.30547 -10031404.88642  14217569.6584   14217569.8544
 -74191589.93049 -57794377.86947  11284333.7994   11284331.6584
 -43507468.85948 -33865541.00546  11647276.0104   11647274.3544
  -7094148.38746  -5500771.27142  15131994.8154   15131993.9794
 04  7 17  3 40 29.9700000  0 11G29G13G28G 7G10G19G27G26G 8G31G11
 -24124592.66448 -18764123.25043  13693535.0654   13693533.8854
 -82432349.32446 -64216564.04642  15190252.7294   15190253.6154
 -53315073.43449 -41509130.48546  11864985.3544   11864981.9514
 -16854408.60947 -13098291.38043  13819453.2294   13819454.0614
 -32985652.79746 -25672465.48442  15626868.1354   15626870.5844
 -48853664.06247 -38045714.64743  14647808.6974   14647806.7444
 -87552585.43049 -68205892.20546  12089394.1274   12089392.2094
 -13103664.92247 -10176535.17342  14182127.3934   14182127.4364
 -74298812.88349 -57877928.19947  11263930.2764   11263927.8074
 -43675311.21149 -33996327.20346  11615336.7524   11615335.0844
  -7247528.01646  -5620287.71642  15102807.5104   15102806.7804
 04  7 17  3 40 59.9700000  0 11G29G13G28G 7G10G19G27G26G 8G31G11
 -24299193.29747 -18900175.61343  13660309.4324   13660308.4514
 -82422839.27746 -64209153.77742  15192062.8464   15192063.7604
 -53438790.75049 -41605533.55946  11841442.5184   11841439.4714
 -17054522.81248 -13254224.31143  13781372.3694   13781372.9204
 -33024239.08646 -25702532.74742  15619525.0804   15619528.5724
 -48876715.78147 -38063677.08443  14643422.1124   14643420.6864
 -87625775.61749 -68262923.53646  12075466.7054   12075464.7564
 -13289534.54348 -10321368.57143  14146757.6514   14146757.3734
 -74405691.52349 -57961210.26047  11243592.1044   11243589.2834
 -43842619.58249 -34126697.30046  11583499.1584   11583497.1314
  -7400612.37946  -5739574.16042  15073676.3154   15073675.5694
 04  7 17  3 41 29.9700000  0 11G29G13G28G 7G10G19G27G26G 8G31G11
 -24473387.20748 -19035911.02643  13627161.4874   13627160.5574
 -82413240.78146 -64201674.58041  15193888.5884   15193889.8264
 -53562216.32849 -41701709.30446  11817955.3854   11817952.2054
 -17254413.85948 -13409983.37043  13743333.9794   13743334.4674
 -33062606.52346 -25732429.52542  15612224.5184   15612227.4554
 -48899416.66447 -38081366.15243  14639102.2764   14639100.5374
 -87698636.54749 -68319698.30046  12061601.5724   12061599.5494
 -13475017.98447 -10465901.08643  14111461.9794   14111461.0574
 -74512222.06649 -58044221.07146  11223319.5494   11223317.4514
 -44009389.36349 -34256647.72046  11551763.8224   11551761.9874
  -7553396.33646  -5858626.50042  15044602.2294   15044602.1624
 04  7 17  3 41 59.9700000  0 11G29G13G28G 7G10G19G27G26G 8G31G11
 -24647165.32848 -19171322.48343  13594092.7684   13594091.2294
 -82403549.62546 -64194123.13342  15195733.2134   15195734.5924
 -53685344.37549 -41797653.21246  11794524.9084   11794521.5614
 -17454073.00448 -13565561.74343  13705340.2294   13705341.1584
 -33100751.69545 -25762153.13241  15604965.4244   15604968.9984
 -48921762.76247 -38098778.75142  14634850.1044   14634848.1784
 -87771161.02049 -68376210.88346  12047800.8544   12047798.6234
 -13660106.19547 -10610125.58043  14076240.1974   14076239.8654
 -74618397.34449 -58126955.04846  11203115.0724   11203112.9244
 -44175611.83249 -34386171.66646  11520132.7374   11520130.9904
  -7705870.88346  -5977437.73542  15015588.4794   15015587.4674
 04  7 17  3 42 29.9700000  0 11G29G13G28G 7G10G19G27G26G 8G31G11
 -24820529.65648 -19306411.50343  13561102.1974   13561101.1084
 -82393772.42646 -64186504.73842  15197594.3774   15197594.8854
 -53808179.71949 -41893369.05146  11771150.1664   11771147.0614
 -17653501.88348 -13720960.66343  13667390.1354   13667390.4794
 -33138681.53546 -25791708.94442  15597747.9084   15597751.4014
 -48943760.41846 -38115919.82242  14630663.1974   14630662.6974
 -87843352.30949 -68432463.84146  12034062.9244   12034060.9444
 -13844800.34847 -10754042.99143  14041093.7914   14041094.0694
 -74724219.79349 -58209414.09046  11182977.4324   11182975.5534
 -44341289.05549 -34515270.75746  11488604.9874   11488603.2444
  -7858037.28546  -6096008.83242  14986631.6744   14986630.5764
 04  7 17  3 42 59.9700000  0 11G29G13G28G 7G10G19G27G26G 8G31G11
 -24993477.39848 -19441175.93543  13528191.6124   13528190.0844
 -82383911.57845 -64178821.12542  15199470.5264   15199471.5764
 -53930722.73049 -41988857.07546  11747831.1274   11747827.6234
 -17852697.91047 -13876178.17243  13629484.3854   13629484.8424
 -33176398.79746 -25821099.08042  15590571.0104   15590573.7954
 -48965411.91447 -38132791.15542  14626543.9794   14626542.1124
 -87915209.58249 -68488456.53146  12020388.9084   12020387.2724
 -14029097.80947 -10897651.27242  14006022.8694   14006023.0724
 -74829688.07849 -58291597.16247  11162907.8934   11162905.8224
 -44506418.71949 -34643943.16846  11457182.2294   11457180.3894
  -8009892.98046  -6214337.87442  14957733.8774   14957733.4054
 04  7 17  3 43 29.9700000  0 11G29G13G28G 7G10G19G27G26G 8G31G11
 -25166009.01648 -19575616.07743  13495359.7994   13495358.2874
 -82373972.28546 -64171076.32541  15201361.4874   15201363.1314
 -54052976.60549 -42084119.81046  11724566.6824   11724563.5374
 -18051661.70748 -14031214.70543  13591622.6124   13591622.7094
 -33213909.28546 -25850328.11441  15583432.7834   15583436.0184
 -48986722.66847 -38149396.95242  14622489.2764   14622487.0184
 -87986734.92249 -68544190.57146  12006778.1824   12006776.4714
 -14212998.64847 -11040950.54342  13971028.5334   13971027.9404
 -74934804.14849 -58373505.79447  11142904.8544   11142902.5924
 -44671001.54749 -34772189.46646  11425863.1584   11425860.6314
  -8161437.91847  -6332424.75042  14928897.0724   14928895.8774
 04  7 17  3 43 59.9700000  0 11G29G13G28G 7G10G19G27G26G 8G31G11
 -25338116.87148 -19709726.07443  13462608.5334   13462607.1664
 -82363951.14146 -64163267.85041  15203268.7444   15203270.7484
 -54174936.82849 -42179153.73646  11701358.5334   11701355.2994
 -18250385.43048 -14186064.18243  13553807.3154   13553806.7804
 -33251210.37946 -25879393.91742  15576334.2764   15576337.8934
 -49007689.18746 -38165734.53442  14618498.6274   14618496.9244
 -88057922.21549 -68599661.20845  11993231.8544   11993230.1514
 -14396494.89147 -11183934.46142  13936109.3624   13936109.3304
 -75039561.41049 -58455134.81047  11122970.1514   11122968.1234
 -44835030.06249 -34900003.84646  11394649.4324   11394647.3854
  -8312664.03146  -6450263.13042  14900118.2294   14900117.5024
 04  7 17  3 44 29.9690000  0 11G29G13G28G 7G10G19G27G26G 8G31G11
 -25509794.27748 -19843500.62243  13429939.7244   13429938.9234
 -82353852.25446 -64155398.64841  15205190.4354   15205192.1614
 -54296601.05949 -42273957.01946  11678206.7634   11678203.3414
 -18448861.64548 -14340720.80743  13516037.8254   13516037.9234
 -33288305.02746 -25908299.01841  15569276.4044   15569278.6384
 -49028315.17646 -38181806.84242  14614574.4114   14614571.7434
 -88128769.97749 -68654867.26445  11979749.8804   11979748.2754
 -14579579.13747 -11326597.40443  13901270.2474   13901269.7204
 -75143956.66449 -58536481.76147  11103104.5294   11103102.0954
 -44998498.19548 -35027381.55946  11363542.6464   11363539.9504
  -8463565.19147  -6567848.40642  14871403.4044   14871403.0364
 04  7 17  3 44 59.9690000  0 11G29G13G28G 7G10G19G27G26G 8G31G11
 -25681051.87948 -19976948.07043  13397350.3334   13397349.0094
 -82343679.83646 -64147472.24141  15207126.5604   15207128.5254
 -54417979.92249 -42368537.93346  11655108.8964   11655105.8294
 -18647102.94547 -14495194.39843  13478313.1384   13478313.3144
 -33325200.34446 -25937048.63942  15562255.2474   15562258.0054
 -49048605.98046 -38197617.86742  14610712.8254   14610711.8844
 -88199283.68749 -68709813.03146  11966331.4434   11966329.4664
 -14762262.80547 -11468948.18142  13866506.2634   13866505.9274
 -75247997.38749 -58617552.44846  11083306.2634   11083303.9194
 -45161416.58649 -35154330.90646  11332540.2164   11332538.1034
  -8614150.81247  -6685187.74042  14842746.7474   14842746.8024
 04  7 17  3 45 29.9690000  0 11G29G13G28G 7G10G19G27G26G 8G31G11
 -25851881.03148 -20110061.65943  13364842.9894   13364841.3764
 -82333435.78546 -64139490.01342  15209075.8494   15209077.4504
 -54539069.10249 -42462893.11746  11632066.5524   11632063.6384
 -18845099.70748 -14649477.43443  13440636.2394   13440636.1424
 -33361897.76646 -25965644.18042  15555272.0604   15555275.1184
 -49068562.18446 -38213168.13342  14606914.4744   14606913.0834
 -88269459.69949 -68764495.66145  11952977.4274   11952975.8254
 -14944536.30547 -11610979.35743  13831820.8024   13831820.1934
 -75351678.44149 -58698342.87847  11063576.4434   11063574.2044
 -45323776.98049 -35280845.45046  11301643.5754   11301641.6304
  -8764412.16447  -6802274.46742  14814154.0834   14814153.0404
 04  7 17  3 45 59.9690000  0 11G29G13G28G 7G10G19G27G26G 8G31G11
 -26022277.07048 -20242837.73843  13332417.2634   13332416.0444
 -82323119.90246 -64131451.71241  15211039.0754   15211040.6464
 -54659867.40649 -42557021.66446  11609079.2084   11609075.6264
 -19042847.24648 -14803566.25943  13403005.5684   13403005.6574
 -33398397.80947 -25994085.83842  15548327.0214   15548329.7364
 -49088184.63346 -38228458.34942  14603181.3724   14603179.1074
 -88339295.08248 -68818912.86345  11939688.3574   11939686.7554
 -15126394.81247 -11752687.12643  13797214.6304   13797213.6184
 -75454996.17249 -58778850.19247  11043915.5524   11043913.3804
 -45485575.21549 -35406921.94546  11270854.6694   11270852.3374
  -8914344.85947  -6919105.03342  14785622.3494   14785620.7634
 04  7 17  3 46 29.9690000  0 11G29G13G28G 7G10G19G27G26G 8G31G11
 -26192243.90248 -20375279.40643  13300073.7324   13300072.1854
 -82312740.94146 -64123364.41341  15213014.2714   15213016.3184
 -54780381.03949 -42650928.37446  11586146.2394   11586143.0834
 -19240349.67648 -14957464.09543  13365421.9584   13365422.3614
 -33434709.82846 -26022380.99741  15541415.6144   15541419.6574
 -49107481.52347 -38243494.92742  14599508.6854   14599507.8184
 -88408795.47348 -68873069.03346  11926462.5524   11926461.0364
 -15307842.10947 -11894074.52943  13762685.7944   13762685.1654
 -75557956.04749 -58859078.65547  11024322.9744   11024320.7514
 -45646815.47348 -35532563.65846  11240171.7394   11240169.4624
  -9063952.01646  -7035682.00242  14757152.3964   14757152.5364
 04  7 17  3 46 59.9690000  0 11G29G13G28G 7G10G19G27G26G 8G31G11
 -26361777.52048 -20507383.48344  13267812.3574   13267810.9504
 -82302299.71146 -64115228.52541  15215001.5994   15215002.7634
 -54900609.13749 -42744612.59046  11563267.4194   11563264.5524
 -19437602.81648 -15111167.71143  13327885.6854   13327885.8764
 -33470834.74246 -26050530.38641  15534542.1384   15534545.0994
 -49126453.64147 -38258278.47342  14595899.1074   14595898.5994
 -88477958.34048 -68926962.17845  11913301.5524   11913300.0444
 -15488873.51647 -12035137.82043  13728236.4354   13728235.8024
 -75660554.79749 -58939025.73147  11004799.1934   11004796.6344
 -45807494.16448 -35657767.80346  11209595.6464   11209593.4744
  -9213229.52746  -7152002.05642  14728746.1144   14728745.6264
 04  7 17  3 47 29.9690000  0 11G29G13G28G 7G10G19G27G26G 8G31G11
 -26530873.66848 -20639146.68343  13235634.5364   13235632.8884
 -82291796.28946 -64107044.16242  15217000.5524   15217002.5254
 -55020549.96949 -42838072.95746  11540443.6304   11540440.4074
 -19634602.27748 -15264673.67243  13290398.4824   13290398.5524
 -33506773.27746 -26078534.51941  15527703.1304   15527706.1734
 -49145101.29346 -38272809.12342  14592350.1854   14592349.4074
 -88546780.99248 -68980590.23845  11900205.2864   11900203.4004
 -15669484.46147 -12175873.47443  13693866.9824   13693866.6654
 -75762789.39849 -59018689.04547  10985344.6614   10985342.0404
 -45967607.23448 -35782531.18846  11179126.6074   11179124.8844
  -9362172.96546  -7268061.81242  14700403.1224   14700402.9314
 04  7 17  3 47 59.9690000  0 11G29G13G28G 7G10G19G27G26G 8G31G11
 -26699531.48448 -20770568.33943  13203540.1224   13203538.3224
 -82281234.87546 -64098814.58042  15219009.9044   15219012.5094
 -55140206.15649 -42931311.52746  11517673.9354   11517670.4194
 -19831347.50848 -15417981.50143  13252958.6774   13252958.9544
 -33542530.22746 -26106397.27341  15520898.8254   15520901.5834
 -49163428.48847 -38287090.07642  14588862.8724   14588861.7514
 -88615264.46948 -69033954.00745  11887172.9274   11887171.4354
 -15849674.16447 -12316280.91043  13659577.9894   13659578.0174
 -75864659.91449 -59098068.65646  10965959.2244   10965957.0324
 -46127154.37949 -35906853.59246  11148766.3104   11148763.9474
  -9510781.12947  -7383860.31942  14672123.9584   14672123.2244
 04  7 17  3 48 29.9690000  0 11G29G13G28G 7G10G19G27G26G 8G31G11
 -26867744.32048 -20901643.21843  13171529.8884   13171528.5214
 -82270613.60546 -64090538.41442  15221030.6144   15221034.4194
 -55259574.11349 -43024325.49846  11494959.0294   11494955.7324
 -20027831.85248 -15571086.03143  13215569.0604   13215569.1144
 -33578104.18746 -26134117.25341  15514129.3884   15514132.8684
 -49181433.39547 -38301119.81243  14585436.8494   14585436.0484
 -88683403.85548 -69087049.66546  11874206.7634   11874204.7164
 -16029435.59047 -12456354.62243  13625370.7004   13625369.9824
 -75966161.93049 -59177161.12746  10946644.0444   10946641.9234
 -46286129.43749 -36030730.21746  11118514.4114   11118511.8924
  -9659047.18447  -7499392.22242  14643909.9274   14643909.1264
 04  7 17  3 48 59.9690000  0 11G29G13G28G 7G10G19G27G26G 8G31G11
 -27035515.25848 -21032373.76043  13139604.1074   13139602.6614
 -82259939.91046 -64082221.32842  15223062.8254   15223064.3224
 -55378659.25049 -43117119.08646  11472297.6464   11472294.6614
 -20224058.05947 -15723989.45143  13178228.0214   13178228.0364
 -33613503.21146 -26161700.96941  15507394.1464   15507397.2824
 -49199123.51647 -38314904.26343  14582070.6224   14582069.0404
 -88751203.53949 -69139880.61246  11861304.8724   11861303.1304
 -16208771.43047 -12596096.73243  13591244.4044   13591243.1734
 -76067299.23449 -59255969.40047  10927398.1464   10927396.0954
 -46444535.67649 -36154163.59646  11088370.4434   11088368.2474
  -9806973.94146  -7614659.75842  14615761.0834   14615759.6264
 04  7 17  3 49 29.9690000  0 10G29G13G28G 7G19G27G26G 8G31G11
 -27202839.84848 -21162756.51744  13107763.2944   13107762.4584
 -82249213.71946 -64073863.45342  15225103.5524   15225106.2864
 -55497460.17649 -43209691.21246  11449690.7944   11449687.1854
 -20420021.92247 -15876688.44443  13140937.0754   13140937.1384
 -49216499.64847 -38328444.20343  14578763.9664   14578762.3924
 -88818660.76649 -69192444.71046  11848468.2164   11848466.1114
 -16387676.80147 -12735503.43243  13557199.6074   13557198.4154
 -76168068.03149 -59334490.52147  10908222.7004   10908220.6574
 -46602369.02749 -36277150.59246  11058335.5134   11058333.7394
  -9954556.47746  -7729659.05242  14587675.8494   14587675.1734
 04  7 17  3 49 59.9690000  0 10G29G13G28G 7G19G27G26G 8G31G11
 -27369714.54748 -21292788.67844  13076008.4044   13076006.7434
 -82238436.37146 -64065465.62842  15227154.9434   15227157.3064
 -55615976.26649 -43302041.39146  11427137.8254   11427134.5094
 -20615719.75847 -16029180.14743  13103696.9824   13103697.1034
 -49233562.22747 -38341739.73243  14575516.8024   14575515.3764
 -88885773.57449 -69244740.42145  11835697.1934   11835695.4744
 -16566147.85547 -12874571.70543  13523237.6614   13523236.6934
 -76268466.38749 -59412722.98847  10889117.3024   10889115.4234
 -46759626.49249 -36399688.83546  11028410.4584   11028408.2864
 -10101791.27746  -7844387.40142  14559658.2004   14559657.8764
 04  7 17  3 50 29.9690000  0 10G29G13G28G 7G19G27G26G 8G31G11
 -27536129.09048 -21422462.29844  13044340.5214   13044339.1934
 -82227602.89846 -64057024.11842  15229216.0214   15229219.1814
 -55734200.27349 -43394163.97646  11404640.2944   11404637.2754
 -20811141.44947 -16181456.65243  13066509.5054   13066509.3574
 -49250306.05147 -38354786.88242  14572330.4744   14572329.2164
 -88952533.58249 -69296761.23345  11822993.1544   11822991.1304
 -16744174.27748 -13013293.53243  13489360.4194   13489359.3294
 -76368484.91449 -59490659.48547  10870084.3574   10870082.1814
 -46916298.32449 -36521770.73546  10998596.6464   10998594.1974
 -10248667.95746  -7958836.70442  14531708.1074   14531707.8764
 04  7 17  3 50 59.9690000  0 10G29G13G28G 7G19G27G26G 8G31G11
 -27702077.37948 -21551772.60843  13012761.7554   13012760.0404
 -82216711.35546 -64048537.31642  15231288.7394   15231291.4274
 -55852128.68749 -43486056.23046  11382199.5294   11382195.6854
 -21006280.73047 -16333513.09943  13029375.3574   13029375.2754
 -49266729.90646 -38367584.72542  14569204.5294   14569203.7794
 -89018936.20749 -69348503.56945  11810357.0684   11810355.5524
 -16921749.45747 -13151663.75743  13455568.9894   13455567.8144
 -76468119.06249 -59568296.47547  10851124.7394   10851122.8254
 -47072378.78949 -36643391.83446  10968895.7944   10968893.2864
 -10395179.93046  -8073001.78542  14503827.7244   14503826.9704
 04  7 17  3 51 29.9690000  0 10G29G13G28G 7G19G27G26G 8G31G11
 -27867563.90248 -21680723.07244  12981270.4744   12981268.9934
 -82205770.97346 -64040012.56641  15233370.8884   15233374.1074
 -55969769.06649 -43577724.03946  11359812.9584   11359809.6504
 -21201142.22748 -16485353.10343  12992294.4824   12992294.6304
 -49282842.94946 -38380140.38142  14566139.3024   14566136.9544
 -89084987.67248 -69399972.26645  11797787.7004   11797786.0564
 -17098877.72747 -13289685.71243  13421862.2164   13421861.4504
 -76567374.24649 -59645638.16346  10832237.0834   10832234.6074
 -47227872.96149 -36764556.08146  10939305.8494   10939303.7514
 -10541331.30146  -8186885.87142  14476016.0294   14476015.3764
 04  7 17  3 51 59.9680000  0 10G29G13G28G 7G19G27G26G 8G31G11
 -28032583.28548 -21809309.55943  12949868.3674   12949866.7354
 -82194786.49246 -64031453.37441  15235461.0784   15235464.2744
 -56087120.36349 -43669166.59146  11337481.7744   11337478.4894
 -21395719.32448 -16636971.50143  12955267.3834   12955267.6024
 -49298649.03546 -38392456.89142  14563130.5784   14563130.1804
 -89150687.35248 -69451166.84445  11785285.6564   11785283.8174
 -17275552.82847 -13427354.57043  13388242.0474   13388240.9964
 -76666248.82449 -59722683.27747  10813421.9464   10813419.6374
 -47382776.07049 -36885259.76446  10909828.9534   10909826.3714
 -10687117.00846  -8300485.01242  14448273.4144   14448273.3644
 04  7 17  3 52 29.9680000  0 10G29G13G28G 7G19G27G26G 8G31G11
 -28197145.50448 -21937539.81044  12918553.2274   12918551.3484
 -82183760.71146 -64022861.96641  15237559.4384   15237562.2504
 -56204192.27049 -43760391.41546  11315203.9614   11315200.4654
 -21590023.99648 -16788377.61843  12918292.7424   12918292.7704
 -49314153.19546 -38404538.12742  14560181.2894   14560180.4894
 -89216040.28148 -69502091.22445  11772849.4224   11772847.8834
 -17451785.24247 -13564678.47743  13354706.1414   13354705.0004
 -76764749.28949 -59799436.87147  10794677.6724   10794675.9814
 -47537098.04349 -37005510.61746  10880462.5634   10880460.0004
 -10832545.94546  -8413806.14342  14420599.4384   14420598.3404
 04  7 17  3 52 59.9680000  0 10G29G13G28G 7G19G27G26G 8G31G11
 -28361245.35948 -22065409.77844  12887325.8674   12887324.5244
 -82172699.00446 -64014242.65742  15239665.2584   15239667.5044
 -56320983.84849 -43851397.83746  11292979.1104   11292975.7744
 -21784049.91448 -16939566.53143  12881370.9144   12881370.6334
 -49329359.40646 -38416387.17942  14557287.2664   14557285.0244
 -89281046.18048 -69552745.19545  11760479.3524   11760477.5394
 -17627569.05547 -13701652.82043  13321255.7354   13321254.1844
 -76862873.12149 -59875897.00147  10776005.3994   10776003.1724
 -47690834.46549 -37125305.17646  10851207.5944   10851205.1924
 -10977612.89846  -8526845.25442  14392994.5164   14392993.1684
